<?xml version='1.0' encoding='UTF-8'?><gpx version="1.1" creator="JPX - https://github.com/jenetics/jpx" xmlns="http://www.topografix.com/GPX/1/1"><trk><trkseg><trkpt lat="43.779015" lon="11.2058855"><ele>40.0</ele><time>2026-04-05T09:13:30.406Z</time></trkpt><trkpt lat="43.7791209" lon="11.2058802"><ele>40.0</ele><time>2026-04-05T09:15:14.432Z</time></trkpt><trkpt lat="43.7793265" lon="11.2058759"><ele>40.0</ele><time>2026-04-05T09:15:37.432Z</time></trkpt><trkpt lat="43.7793785" lon="11.2057915"><ele>40.0</ele><time>2026-04-05T09:15:40.433Z</time></trkpt><trkpt lat="43.7794085" lon="11.2056914"><ele>39.5</ele><time>2026-04-05T09:15:43.433Z</time></trkpt><trkpt lat="43.7794493" lon="11.2055814"><ele>39.0</ele><time>2026-04-05T09:15:46.433Z</time></trkpt><trkpt lat="43.7794729" lon="11.2054942"><ele>38.5</ele><time>2026-04-05T09:15:48.433Z</time></trkpt><trkpt lat="43.7795116" lon="11.2053763"><ele>38.0</ele><time>2026-04-05T09:15:51.432Z</time></trkpt><trkpt lat="43.7795335" lon="11.205258"><ele>37.5</ele><time>2026-04-05T09:15:54.432Z</time></trkpt><trkpt lat="43.7795045" lon="11.2051663"><ele>37.0</ele><time>2026-04-05T09:15:58.433Z</time></trkpt><trkpt lat="43.7794528" lon="11.205114"><ele>37.0</ele><time>2026-04-05T09:16:42.432Z</time></trkpt><trkpt lat="43.779454" lon="11.2050097"><ele>37.0</ele><time>2026-04-05T09:16:46.432Z</time></trkpt><trkpt lat="43.7795079" lon="11.2049426"><ele>37.0</ele><time>2026-04-05T09:16:49.433Z</time></trkpt><trkpt lat="43.7795638" lon="11.2048938"><ele>37.0</ele><time>2026-04-05T09:16:51.432Z</time></trkpt><trkpt lat="43.7796503" lon="11.2048926"><ele>37.0</ele><time>2026-04-05T09:16:54.431Z</time></trkpt><trkpt lat="43.7797125" lon="11.2049123"><ele>37.0</ele><time>2026-04-05T09:16:57.433Z</time></trkpt><trkpt lat="43.7797935" lon="11.2049322"><ele>37.0</ele><time>2026-04-05T09:17:00.432Z</time></trkpt><trkpt lat="43.7798611" lon="11.2049074"><ele>37.0</ele><time>2026-04-05T09:17:02.433Z</time></trkpt><trkpt lat="43.7799295" lon="11.204878"><ele>37.0</ele><time>2026-04-05T09:17:04.432Z</time></trkpt><trkpt lat="43.779999" lon="11.2048458"><ele>37.0</ele><time>2026-04-05T09:17:06.432Z</time></trkpt><trkpt lat="43.7800635" lon="11.2048187"><ele>37.0</ele><time>2026-04-05T09:17:08.432Z</time></trkpt><trkpt lat="43.7801585" lon="11.2048498"><ele>37.0</ele><time>2026-04-05T09:17:11.431Z</time></trkpt><trkpt lat="43.7802196" lon="11.2048215"><ele>37.0</ele><time>2026-04-05T09:17:13.431Z</time></trkpt><trkpt lat="43.7802864" lon="11.2047782"><ele>37.0</ele><time>2026-04-05T09:17:15.432Z</time></trkpt><trkpt lat="43.7803506" lon="11.2047446"><ele>37.142857142857146</ele><time>2026-04-05T09:17:17.431Z</time></trkpt><trkpt lat="43.7804155" lon="11.2047183"><ele>37.285714285714285</ele><time>2026-04-05T09:17:19.432Z</time></trkpt><trkpt lat="43.7804771" lon="11.2046968"><ele>37.42857142857143</ele><time>2026-04-05T09:17:21.433Z</time></trkpt><trkpt lat="43.7805445" lon="11.2046761"><ele>37.57142857142857</ele><time>2026-04-05T09:17:23.433Z</time></trkpt><trkpt lat="43.7806112" lon="11.2046591"><ele>37.714285714285715</ele><time>2026-04-05T09:17:25.432Z</time></trkpt><trkpt lat="43.7807072" lon="11.2046331"><ele>37.857142857142854</ele><time>2026-04-05T09:17:28.432Z</time></trkpt><trkpt lat="43.7807819" lon="11.2046031"><ele>38.0</ele><time>2026-04-05T09:17:30.432Z</time></trkpt><trkpt lat="43.7808587" lon="11.2045735"><ele>38.0</ele><time>2026-04-05T09:17:32.432Z</time></trkpt><trkpt lat="43.7809372" lon="11.2045502"><ele>38.0</ele><time>2026-04-05T09:17:34.432Z</time></trkpt><trkpt lat="43.7810176" lon="11.2045305"><ele>38.0</ele><time>2026-04-05T09:17:36.432Z</time></trkpt><trkpt lat="43.7810937" lon="11.2045077"><ele>38.0</ele><time>2026-04-05T09:17:38.431Z</time></trkpt><trkpt lat="43.7811649" lon="11.2044879"><ele>38.0</ele><time>2026-04-05T09:17:40.431Z</time></trkpt><trkpt lat="43.781259" lon="11.2044718"><ele>38.0</ele><time>2026-04-05T09:17:43.432Z</time></trkpt><trkpt lat="43.781321" lon="11.2044542"><ele>38.166666666666664</ele><time>2026-04-05T09:17:45.433Z</time></trkpt><trkpt lat="43.7814115" lon="11.2044185"><ele>38.33333333333333</ele><time>2026-04-05T09:17:48.433Z</time></trkpt><trkpt lat="43.7814793" lon="11.2044032"><ele>38.5</ele><time>2026-04-05T09:17:50.433Z</time></trkpt><trkpt lat="43.7815743" lon="11.2043795"><ele>38.666666666666664</ele><time>2026-04-05T09:17:53.434Z</time></trkpt><trkpt lat="43.7816391" lon="11.2043717"><ele>38.833333333333336</ele><time>2026-04-05T09:17:55.432Z</time></trkpt><trkpt lat="43.7817185" lon="11.2043537"><ele>39.0</ele><time>2026-04-05T09:17:58.433Z</time></trkpt><trkpt lat="43.7817766" lon="11.2044062"><ele>39.0</ele><time>2026-04-05T09:18:02.432Z</time></trkpt><trkpt lat="43.7818437" lon="11.2044515"><ele>39.0</ele><time>2026-04-05T09:18:06.432Z</time></trkpt><trkpt lat="43.7819203" lon="11.204459"><ele>39.0</ele><time>2026-04-05T09:18:11.433Z</time></trkpt><trkpt lat="43.7819922" lon="11.2044735"><ele>39.0</ele><time>2026-04-05T09:18:16.432Z</time></trkpt><trkpt lat="43.782065" lon="11.2045199"><ele>39.0</ele><time>2026-04-05T09:18:20.431Z</time></trkpt><trkpt lat="43.7821077" lon="11.2046198"><ele>39.0</ele><time>2026-04-05T09:18:23.432Z</time></trkpt><trkpt lat="43.7820821" lon="11.2047211"><ele>39.0</ele><time>2026-04-05T09:18:26.432Z</time></trkpt><trkpt lat="43.7820941" lon="11.2048226"><ele>39.0</ele><time>2026-04-05T09:18:30.433Z</time></trkpt><trkpt lat="43.7821303" lon="11.2047428"><ele>39.0</ele><time>2026-04-05T09:18:34.432Z</time></trkpt><trkpt lat="43.782137" lon="11.2046309"><ele>39.0</ele><time>2026-04-05T09:18:38.431Z</time></trkpt><trkpt lat="43.7821453" lon="11.2045263"><ele>39.0</ele><time>2026-04-05T09:18:41.431Z</time></trkpt><trkpt lat="43.7821694" lon="11.2044035"><ele>39.0</ele><time>2026-04-05T09:18:44.431Z</time></trkpt><trkpt lat="43.7821819" lon="11.2043145"><ele>39.0</ele><time>2026-04-05T09:18:46.433Z</time></trkpt><trkpt lat="43.7821984" lon="11.2042218"><ele>39.0</ele><time>2026-04-05T09:18:48.431Z</time></trkpt><trkpt lat="43.7822187" lon="11.2041328"><ele>39.0</ele><time>2026-04-05T09:18:50.433Z</time></trkpt><trkpt lat="43.782244" lon="11.204048"><ele>39.0</ele><time>2026-04-05T09:18:52.433Z</time></trkpt><trkpt lat="43.7822791" lon="11.2039658"><ele>39.0</ele><time>2026-04-05T09:18:54.432Z</time></trkpt><trkpt lat="43.7823295" lon="11.2038952"><ele>39.0</ele><time>2026-04-05T09:18:56.432Z</time></trkpt><trkpt lat="43.7823976" lon="11.2038691"><ele>39.0</ele><time>2026-04-05T09:18:58.432Z</time></trkpt><trkpt lat="43.7824819" lon="11.2038974"><ele>38.833333333333336</ele><time>2026-04-05T09:19:00.431Z</time></trkpt><trkpt lat="43.7825669" lon="11.2039405"><ele>38.666666666666664</ele><time>2026-04-05T09:19:02.431Z</time></trkpt><trkpt lat="43.7826424" lon="11.2039716"><ele>38.5</ele><time>2026-04-05T09:19:04.433Z</time></trkpt><trkpt lat="43.7827168" lon="11.2040086"><ele>38.33333333333333</ele><time>2026-04-05T09:19:06.432Z</time></trkpt><trkpt lat="43.782787" lon="11.2040478"><ele>38.166666666666664</ele><time>2026-04-05T09:19:08.431Z</time></trkpt><trkpt lat="43.7828519" lon="11.2040846"><ele>38.0</ele><time>2026-04-05T09:19:10.433Z</time></trkpt><trkpt lat="43.7829193" lon="11.2041146"><ele>38.285714285714285</ele><time>2026-04-05T09:19:12.433Z</time></trkpt><trkpt lat="43.7829912" lon="11.2041427"><ele>38.57142857142858</ele><time>2026-04-05T09:19:14.431Z</time></trkpt><trkpt lat="43.783062" lon="11.2041686"><ele>38.85714285714286</ele><time>2026-04-05T09:19:16.433Z</time></trkpt><trkpt lat="43.7831298" lon="11.2041943"><ele>39.14285714285714</ele><time>2026-04-05T09:19:18.432Z</time></trkpt><trkpt lat="43.7831967" lon="11.2042222"><ele>39.42857142857143</ele><time>2026-04-05T09:19:20.432Z</time></trkpt><trkpt lat="43.7832662" lon="11.2042452"><ele>39.714285714285715</ele><time>2026-04-05T09:19:22.432Z</time></trkpt><trkpt lat="43.7833353" lon="11.2042612"><ele>40.0</ele><time>2026-04-05T09:19:24.433Z</time></trkpt><trkpt lat="43.7834035" lon="11.2042833"><ele>40.0</ele><time>2026-04-05T09:19:26.432Z</time></trkpt><trkpt lat="43.7834751" lon="11.204312"><ele>40.0</ele><time>2026-04-05T09:19:28.433Z</time></trkpt><trkpt lat="43.7835454" lon="11.2043341"><ele>40.0</ele><time>2026-04-05T09:19:30.432Z</time></trkpt><trkpt lat="43.783617" lon="11.2043593"><ele>40.0</ele><time>2026-04-05T09:19:32.432Z</time></trkpt><trkpt lat="43.7836856" lon="11.2043834"><ele>40.0</ele><time>2026-04-05T09:19:34.432Z</time></trkpt><trkpt lat="43.7837496" lon="11.2044027"><ele>40.0</ele><time>2026-04-05T09:19:36.431Z</time></trkpt><trkpt lat="43.783821" lon="11.2044248"><ele>40.0</ele><time>2026-04-05T09:19:38.431Z</time></trkpt><trkpt lat="43.7838971" lon="11.204448"><ele>40.0</ele><time>2026-04-05T09:19:40.432Z</time></trkpt><trkpt lat="43.7839642" lon="11.2044724"><ele>40.0</ele><time>2026-04-05T09:19:42.432Z</time></trkpt><trkpt lat="43.7840253" lon="11.2044975"><ele>40.0</ele><time>2026-04-05T09:19:44.432Z</time></trkpt><trkpt lat="43.7840899" lon="11.2045241"><ele>40.0</ele><time>2026-04-05T09:19:46.432Z</time></trkpt><trkpt lat="43.7841533" lon="11.2045516"><ele>40.0</ele><time>2026-04-05T09:19:48.432Z</time></trkpt><trkpt lat="43.7842185" lon="11.2045737"><ele>40.0</ele><time>2026-04-05T09:19:50.432Z</time></trkpt><trkpt lat="43.7842876" lon="11.2046004"><ele>40.0</ele><time>2026-04-05T09:19:52.432Z</time></trkpt><trkpt lat="43.7843559" lon="11.2046303"><ele>40.0</ele><time>2026-04-05T09:19:54.433Z</time></trkpt><trkpt lat="43.7844293" lon="11.2046619"><ele>40.0</ele><time>2026-04-05T09:19:56.432Z</time></trkpt><trkpt lat="43.7845026" lon="11.204687"><ele>40.0</ele><time>2026-04-05T09:19:58.431Z</time></trkpt><trkpt lat="43.7845756" lon="11.2047096"><ele>40.0</ele><time>2026-04-05T09:20:00.431Z</time></trkpt><trkpt lat="43.7846459" lon="11.2047372"><ele>40.0</ele><time>2026-04-05T09:20:02.431Z</time></trkpt><trkpt lat="43.7847192" lon="11.204766"><ele>40.0</ele><time>2026-04-05T09:20:04.432Z</time></trkpt><trkpt lat="43.7847926" lon="11.2047962"><ele>40.0</ele><time>2026-04-05T09:20:06.432Z</time></trkpt><trkpt lat="43.7848628" lon="11.2048185"><ele>40.0</ele><time>2026-04-05T09:20:08.432Z</time></trkpt><trkpt lat="43.7849268" lon="11.2048441"><ele>40.0</ele><time>2026-04-05T09:20:10.432Z</time></trkpt><trkpt lat="43.7850121" lon="11.2048784"><ele>40.0</ele><time>2026-04-05T09:20:13.432Z</time></trkpt><trkpt lat="43.7850845" lon="11.2048874"><ele>40.0</ele><time>2026-04-05T09:20:16.432Z</time></trkpt><trkpt lat="43.7851478" lon="11.2049396"><ele>40.0</ele><time>2026-04-05T09:20:21.432Z</time></trkpt><trkpt lat="43.7852179" lon="11.2048725"><ele>39.714285714285715</ele><time>2026-04-05T09:20:25.432Z</time></trkpt><trkpt lat="43.7852471" lon="11.2047843"><ele>39.42857142857143</ele><time>2026-04-05T09:20:27.432Z</time></trkpt><trkpt lat="43.7852846" lon="11.2046973"><ele>39.14285714285714</ele><time>2026-04-05T09:20:29.431Z</time></trkpt><trkpt lat="43.7853233" lon="11.2046106"><ele>38.85714285714286</ele><time>2026-04-05T09:20:31.432Z</time></trkpt><trkpt lat="43.785363" lon="11.204529"><ele>38.57142857142858</ele><time>2026-04-05T09:20:33.432Z</time></trkpt><trkpt lat="43.7854032" lon="11.2044475"><ele>38.285714285714285</ele><time>2026-04-05T09:20:35.431Z</time></trkpt><trkpt lat="43.7854391" lon="11.2043687"><ele>38.0</ele><time>2026-04-05T09:20:37.432Z</time></trkpt><trkpt lat="43.7854841" lon="11.2042637"><ele>38.0</ele><time>2026-04-05T09:20:40.432Z</time></trkpt><trkpt lat="43.7855571" lon="11.2041977"><ele>38.0</ele><time>2026-04-05T09:20:43.433Z</time></trkpt><trkpt lat="43.7856218" lon="11.2042031"><ele>38.0</ele><time>2026-04-05T09:20:45.432Z</time></trkpt><trkpt lat="43.785687" lon="11.2042124"><ele>38.0</ele><time>2026-04-05T09:20:47.431Z</time></trkpt><trkpt lat="43.7857664" lon="11.2041647"><ele>38.0</ele><time>2026-04-05T09:20:50.432Z</time></trkpt><trkpt lat="43.7858039" lon="11.2040765"><ele>38.0</ele><time>2026-04-05T09:20:52.431Z</time></trkpt><trkpt lat="43.7858391" lon="11.2039806"><ele>38.33333333333333</ele><time>2026-04-05T09:20:54.432Z</time></trkpt><trkpt lat="43.7858804" lon="11.2038885"><ele>38.666666666666664</ele><time>2026-04-05T09:20:56.431Z</time></trkpt><trkpt lat="43.7859254" lon="11.2038013"><ele>39.0</ele><time>2026-04-05T09:20:58.433Z</time></trkpt><trkpt lat="43.7859735" lon="11.2037149"><ele>39.333333333333336</ele><time>2026-04-05T09:21:00.433Z</time></trkpt><trkpt lat="43.7860186" lon="11.2036267"><ele>39.66666666666667</ele><time>2026-04-05T09:21:02.432Z</time></trkpt><trkpt lat="43.7860581" lon="11.2035402"><ele>40.0</ele><time>2026-04-05T09:21:04.432Z</time></trkpt><trkpt lat="43.7860923" lon="11.2034529"><ele>39.714285714285715</ele><time>2026-04-05T09:21:06.431Z</time></trkpt><trkpt lat="43.786124" lon="11.2033664"><ele>39.42857142857143</ele><time>2026-04-05T09:21:08.431Z</time></trkpt><trkpt lat="43.786158" lon="11.2032837"><ele>39.14285714285714</ele><time>2026-04-05T09:21:10.431Z</time></trkpt><trkpt lat="43.7861962" lon="11.2032023"><ele>38.85714285714286</ele><time>2026-04-05T09:21:12.431Z</time></trkpt><trkpt lat="43.786236" lon="11.2031215"><ele>38.57142857142858</ele><time>2026-04-05T09:21:14.432Z</time></trkpt><trkpt lat="43.7862767" lon="11.2030413"><ele>38.285714285714285</ele><time>2026-04-05T09:21:16.431Z</time></trkpt><trkpt lat="43.7863197" lon="11.2029578"><ele>38.0</ele><time>2026-04-05T09:21:18.432Z</time></trkpt><trkpt lat="43.7863641" lon="11.2028697"><ele>38.0</ele><time>2026-04-05T09:21:20.432Z</time></trkpt><trkpt lat="43.7864032" lon="11.2027835"><ele>38.0</ele><time>2026-04-05T09:21:22.431Z</time></trkpt><trkpt lat="43.7864421" lon="11.2026991"><ele>38.0</ele><time>2026-04-05T09:21:24.432Z</time></trkpt><trkpt lat="43.7864842" lon="11.2026147"><ele>38.0</ele><time>2026-04-05T09:21:26.431Z</time></trkpt><trkpt lat="43.786529" lon="11.2025283"><ele>38.0</ele><time>2026-04-05T09:21:28.431Z</time></trkpt><trkpt lat="43.7865768" lon="11.2024428"><ele>38.0</ele><time>2026-04-05T09:21:30.432Z</time></trkpt><trkpt lat="43.7866239" lon="11.2023625"><ele>38.0</ele><time>2026-04-05T09:21:32.431Z</time></trkpt><trkpt lat="43.7866647" lon="11.2022814"><ele>37.714285714285715</ele><time>2026-04-05T09:21:34.432Z</time></trkpt><trkpt lat="43.7867073" lon="11.2021967"><ele>37.42857142857143</ele><time>2026-04-05T09:21:36.432Z</time></trkpt><trkpt lat="43.7867462" lon="11.2021113"><ele>37.142857142857146</ele><time>2026-04-05T09:21:38.433Z</time></trkpt><trkpt lat="43.7867791" lon="11.2020191"><ele>36.85714285714286</ele><time>2026-04-05T09:21:40.431Z</time></trkpt><trkpt lat="43.7868083" lon="11.2019309"><ele>36.57142857142857</ele><time>2026-04-05T09:21:42.432Z</time></trkpt><trkpt lat="43.7868454" lon="11.2018398"><ele>36.28571428571429</ele><time>2026-04-05T09:21:44.432Z</time></trkpt><trkpt lat="43.7868789" lon="11.2017515"><ele>36.0</ele><time>2026-04-05T09:21:46.431Z</time></trkpt><trkpt lat="43.7869126" lon="11.2016689"><ele>36.00000000000001</ele><time>2026-04-05T09:21:48.433Z</time></trkpt><trkpt lat="43.786948" lon="11.2015873"><ele>36.0</ele><time>2026-04-05T09:21:50.432Z</time></trkpt><trkpt lat="43.7869827" lon="11.2015052"><ele>36.0</ele><time>2026-04-05T09:21:52.432Z</time></trkpt><trkpt lat="43.7870161" lon="11.2014274"><ele>36.0</ele><time>2026-04-05T09:21:54.432Z</time></trkpt><trkpt lat="43.7870556" lon="11.2013483"><ele>36.0</ele><time>2026-04-05T09:21:56.431Z</time></trkpt><trkpt lat="43.7870937" lon="11.2012669"><ele>36.00000000000001</ele><time>2026-04-05T09:21:58.431Z</time></trkpt><trkpt lat="43.7871335" lon="11.2011816"><ele>36.0</ele><time>2026-04-05T09:22:00.432Z</time></trkpt><trkpt lat="43.7871769" lon="11.2011002"><ele>36.142857142857146</ele><time>2026-04-05T09:22:02.431Z</time></trkpt><trkpt lat="43.7872214" lon="11.2010173"><ele>36.285714285714285</ele><time>2026-04-05T09:22:04.433Z</time></trkpt><trkpt lat="43.7872642" lon="11.2009313"><ele>36.42857142857143</ele><time>2026-04-05T09:22:06.431Z</time></trkpt><trkpt lat="43.7872987" lon="11.2008513"><ele>36.57142857142857</ele><time>2026-04-05T09:22:08.431Z</time></trkpt><trkpt lat="43.7873369" lon="11.2007745"><ele>36.714285714285715</ele><time>2026-04-05T09:22:10.431Z</time></trkpt><trkpt lat="43.7873767" lon="11.2006966"><ele>36.85714285714286</ele><time>2026-04-05T09:22:12.432Z</time></trkpt><trkpt lat="43.7874168" lon="11.200614"><ele>37.0</ele><time>2026-04-05T09:22:14.432Z</time></trkpt><trkpt lat="43.7874591" lon="11.2005255"><ele>37.333333333333336</ele><time>2026-04-05T09:22:16.432Z</time></trkpt><trkpt lat="43.7875016" lon="11.2004429"><ele>37.66666666666667</ele><time>2026-04-05T09:22:18.432Z</time></trkpt><trkpt lat="43.7875472" lon="11.2003595"><ele>38.0</ele><time>2026-04-05T09:22:20.431Z</time></trkpt><trkpt lat="43.7875952" lon="11.200278"><ele>38.333333333333336</ele><time>2026-04-05T09:22:22.432Z</time></trkpt><trkpt lat="43.7876411" lon="11.2001919"><ele>38.666666666666664</ele><time>2026-04-05T09:22:24.432Z</time></trkpt><trkpt lat="43.7876838" lon="11.200107"><ele>39.0</ele><time>2026-04-05T09:22:26.432Z</time></trkpt><trkpt lat="43.7877263" lon="11.2000235"><ele>38.714285714285715</ele><time>2026-04-05T09:22:28.432Z</time></trkpt><trkpt lat="43.7877662" lon="11.1999394"><ele>38.42857142857142</ele><time>2026-04-05T09:22:30.433Z</time></trkpt><trkpt lat="43.7877977" lon="11.199861"><ele>38.14285714285714</ele><time>2026-04-05T09:22:32.431Z</time></trkpt><trkpt lat="43.7878268" lon="11.1997804"><ele>37.85714285714286</ele><time>2026-04-05T09:22:34.431Z</time></trkpt><trkpt lat="43.7878568" lon="11.1997015"><ele>37.57142857142857</ele><time>2026-04-05T09:22:36.432Z</time></trkpt><trkpt lat="43.7878782" lon="11.1996143"><ele>37.285714285714285</ele><time>2026-04-05T09:22:38.431Z</time></trkpt><trkpt lat="43.7878925" lon="11.1995292"><ele>37.0</ele><time>2026-04-05T09:22:40.431Z</time></trkpt><trkpt lat="43.7879013" lon="11.1994415"><ele>37.0</ele><time>2026-04-05T09:22:42.431Z</time></trkpt><trkpt lat="43.7879108" lon="11.1993538"><ele>37.0</ele><time>2026-04-05T09:22:44.43Z</time></trkpt><trkpt lat="43.7879252" lon="11.1992532"><ele>37.0</ele><time>2026-04-05T09:22:46.432Z</time></trkpt><trkpt lat="43.7879369" lon="11.1991506"><ele>37.0</ele><time>2026-04-05T09:22:48.432Z</time></trkpt><trkpt lat="43.787959" lon="11.1990417"><ele>37.0</ele><time>2026-04-05T09:22:50.432Z</time></trkpt><trkpt lat="43.787998" lon="11.1989479"><ele>37.0</ele><time>2026-04-05T09:22:52.431Z</time></trkpt><trkpt lat="43.7880468" lon="11.1988661"><ele>37.0</ele><time>2026-04-05T09:22:54.433Z</time></trkpt><trkpt lat="43.7880978" lon="11.1987933"><ele>37.16666666666667</ele><time>2026-04-05T09:22:56.432Z</time></trkpt><trkpt lat="43.7881497" lon="11.1987226"><ele>37.333333333333336</ele><time>2026-04-05T09:22:58.431Z</time></trkpt><trkpt lat="43.7881983" lon="11.1986562"><ele>37.5</ele><time>2026-04-05T09:23:00.431Z</time></trkpt><trkpt lat="43.7882688" lon="11.1985733"><ele>37.666666666666664</ele><time>2026-04-05T09:23:03.431Z</time></trkpt><trkpt lat="43.7883139" lon="11.1985035"><ele>37.83333333333333</ele><time>2026-04-05T09:23:05.432Z</time></trkpt><trkpt lat="43.7883511" lon="11.1984115"><ele>38.0</ele><time>2026-04-05T09:23:07.43Z</time></trkpt><trkpt lat="43.7883923" lon="11.1983198"><ele>38.0</ele><time>2026-04-05T09:23:09.432Z</time></trkpt><trkpt lat="43.7884352" lon="11.1982297"><ele>38.0</ele><time>2026-04-05T09:23:11.431Z</time></trkpt><trkpt lat="43.7884788" lon="11.1981333"><ele>38.0</ele><time>2026-04-05T09:23:13.4Z</time></trkpt><trkpt lat="43.7885137" lon="11.1980537"><ele>38.0</ele><time>2026-04-05T09:23:15.338Z</time></trkpt><trkpt lat="43.7885486" lon="11.1979744"><ele>38.0</ele><time>2026-04-05T09:23:17.431Z</time></trkpt><trkpt lat="43.7885839" lon="11.1978989"><ele>38.0</ele><time>2026-04-05T09:23:19.433Z</time></trkpt><trkpt lat="43.7885756" lon="11.1977682"><ele>37.83333333333333</ele><time>2026-04-05T09:23:22.431Z</time></trkpt><trkpt lat="43.7885566" lon="11.1976661"><ele>37.666666666666664</ele><time>2026-04-05T09:23:24.431Z</time></trkpt><trkpt lat="43.7885836" lon="11.1975633"><ele>37.5</ele><time>2026-04-05T09:23:26.398Z</time></trkpt><trkpt lat="43.7886357" lon="11.1974674"><ele>37.333333333333336</ele><time>2026-04-05T09:23:28.431Z</time></trkpt><trkpt lat="43.7886828" lon="11.197371"><ele>37.16666666666667</ele><time>2026-04-05T09:23:30.431Z</time></trkpt><trkpt lat="43.7887275" lon="11.1972717"><ele>37.0</ele><time>2026-04-05T09:23:32.432Z</time></trkpt><trkpt lat="43.7887689" lon="11.1971674"><ele>37.0</ele><time>2026-04-05T09:23:34.432Z</time></trkpt><trkpt lat="43.7888159" lon="11.1970658"><ele>37.0</ele><time>2026-04-05T09:23:36.432Z</time></trkpt><trkpt lat="43.7888631" lon="11.1969695"><ele>37.0</ele><time>2026-04-05T09:23:38.431Z</time></trkpt><trkpt lat="43.7889064" lon="11.1968774"><ele>37.0</ele><time>2026-04-05T09:23:40.432Z</time></trkpt><trkpt lat="43.7889472" lon="11.1967909"><ele>37.0</ele><time>2026-04-05T09:23:42.401Z</time></trkpt><trkpt lat="43.788985" lon="11.1967115"><ele>37.0</ele><time>2026-04-05T09:23:44.432Z</time></trkpt><trkpt lat="43.7890246" lon="11.1966286"><ele>37.0</ele><time>2026-04-05T09:23:46.432Z</time></trkpt><trkpt lat="43.7890616" lon="11.1965374"><ele>37.0</ele><time>2026-04-05T09:23:48.432Z</time></trkpt><trkpt lat="43.7891003" lon="11.1964512"><ele>37.0</ele><time>2026-04-05T09:23:50.431Z</time></trkpt><trkpt lat="43.7891393" lon="11.1963569"><ele>37.0</ele><time>2026-04-05T09:23:52.431Z</time></trkpt><trkpt lat="43.7891766" lon="11.1962613"><ele>37.0</ele><time>2026-04-05T09:23:54.43Z</time></trkpt><trkpt lat="43.7892108" lon="11.1961701"><ele>37.0</ele><time>2026-04-05T09:23:56.431Z</time></trkpt><trkpt lat="43.7892441" lon="11.1960737"><ele>37.66666666666667</ele><time>2026-04-05T09:23:58.431Z</time></trkpt><trkpt lat="43.7892589" lon="11.1959763"><ele>38.333333333333336</ele><time>2026-04-05T09:24:00.431Z</time></trkpt><trkpt lat="43.7892428" lon="11.1958769"><ele>39.0</ele><time>2026-04-05T09:24:02.431Z</time></trkpt><trkpt lat="43.7892187" lon="11.1957725"><ele>39.666666666666664</ele><time>2026-04-05T09:24:04.432Z</time></trkpt><trkpt lat="43.7891982" lon="11.1956752"><ele>40.33333333333333</ele><time>2026-04-05T09:24:06.431Z</time></trkpt><trkpt lat="43.789193" lon="11.1955856"><ele>41.0</ele><time>2026-04-05T09:24:08.432Z</time></trkpt><trkpt lat="43.7892858" lon="11.1955903"><ele>39.71428571428571</ele><time>2026-04-05T09:24:12.432Z</time></trkpt><trkpt lat="43.7893466" lon="11.1956247"><ele>38.42857142857143</ele><time>2026-04-05T09:24:14.432Z</time></trkpt><trkpt lat="43.7894025" lon="11.1956746"><ele>37.14285714285714</ele><time>2026-04-05T09:24:18.431Z</time></trkpt><trkpt lat="43.7894746" lon="11.1956624"><ele>35.857142857142854</ele><time>2026-04-05T09:24:23.431Z</time></trkpt><trkpt lat="43.7895258" lon="11.1957314"><ele>34.57142857142857</ele><time>2026-04-05T09:24:29.431Z</time></trkpt><trkpt lat="43.7895827" lon="11.1957959"><ele>33.285714285714285</ele><time>2026-04-05T09:24:32.43Z</time></trkpt><trkpt lat="43.7896537" lon="11.195858"><ele>32.0</ele><time>2026-04-05T09:24:36.431Z</time></trkpt><trkpt lat="43.7897213" lon="11.1959339"><ele>31.200000000000003</ele><time>2026-04-05T09:24:39.432Z</time></trkpt><trkpt lat="43.7897912" lon="11.1959882"><ele>30.400000000000002</ele><time>2026-04-05T09:24:41.431Z</time></trkpt><trkpt lat="43.789849" lon="11.196036"><ele>29.599999999999998</ele><time>2026-04-05T09:24:43.432Z</time></trkpt><trkpt lat="43.7899262" lon="11.196095"><ele>28.799999999999997</ele><time>2026-04-05T09:24:45.431Z</time></trkpt><trkpt lat="43.7900544" lon="11.1962207"><ele>28.0</ele><time>2026-04-05T09:24:46.432Z</time></trkpt><trkpt lat="43.7901095" lon="11.1963638"><ele>28.0</ele><time>2026-04-05T09:24:47.431Z</time></trkpt><trkpt lat="43.7901739" lon="11.1963732"><ele>28.0</ele><time>2026-04-05T09:24:49.431Z</time></trkpt><trkpt lat="43.790277" lon="11.1963492"><ele>28.0</ele><time>2026-04-05T09:24:53.431Z</time></trkpt><trkpt lat="43.7903441" lon="11.1963656"><ele>28.0</ele><time>2026-04-05T09:24:55.432Z</time></trkpt><trkpt lat="43.7904062" lon="11.1963821"><ele>28.0</ele><time>2026-04-05T09:24:57.431Z</time></trkpt><trkpt lat="43.7904731" lon="11.1964176"><ele>28.0</ele><time>2026-04-05T09:25:02.432Z</time></trkpt><trkpt lat="43.7905326" lon="11.1964666"><ele>28.0</ele><time>2026-04-05T09:25:06.431Z</time></trkpt><trkpt lat="43.7905959" lon="11.1965102"><ele>28.599999999999998</ele><time>2026-04-05T09:25:10.432Z</time></trkpt><trkpt lat="43.7906841" lon="11.1965614"><ele>29.199999999999996</ele><time>2026-04-05T09:25:13.431Z</time></trkpt><trkpt lat="43.790767" lon="11.1966562"><ele>29.8</ele><time>2026-04-05T09:25:15.431Z</time></trkpt><trkpt lat="43.7908446" lon="11.1967277"><ele>30.4</ele><time>2026-04-05T09:25:17.432Z</time></trkpt><trkpt lat="43.7909263" lon="11.1967442"><ele>31.0</ele><time>2026-04-05T09:25:19.431Z</time></trkpt><trkpt lat="43.7909997" lon="11.19672"><ele>32.333333333333336</ele><time>2026-04-05T09:25:21.431Z</time></trkpt><trkpt lat="43.7910548" lon="11.1966181"><ele>33.66666666666667</ele><time>2026-04-05T09:25:24.432Z</time></trkpt><trkpt lat="43.7910674" lon="11.1965061"><ele>35.0</ele><time>2026-04-05T09:25:26.431Z</time></trkpt><trkpt lat="43.7910855" lon="11.1963958"><ele>36.333333333333336</ele><time>2026-04-05T09:25:28.431Z</time></trkpt><trkpt lat="43.7910943" lon="11.196295"><ele>37.666666666666664</ele><time>2026-04-05T09:25:30.432Z</time></trkpt><trkpt lat="43.7910992" lon="11.1961967"><ele>39.0</ele><time>2026-04-05T09:25:32.432Z</time></trkpt><trkpt lat="43.7911015" lon="11.1960886"><ele>39.166666666666664</ele><time>2026-04-05T09:25:34.432Z</time></trkpt><trkpt lat="43.7911028" lon="11.1959757"><ele>39.333333333333336</ele><time>2026-04-05T09:25:36.432Z</time></trkpt><trkpt lat="43.7910952" lon="11.1958695"><ele>39.5</ele><time>2026-04-05T09:25:38.432Z</time></trkpt><trkpt lat="43.7910855" lon="11.1957625"><ele>39.66666666666667</ele><time>2026-04-05T09:25:40.432Z</time></trkpt><trkpt lat="43.7910864" lon="11.1956543"><ele>39.833333333333336</ele><time>2026-04-05T09:25:42.432Z</time></trkpt><trkpt lat="43.7910905" lon="11.195548"><ele>40.0</ele><time>2026-04-05T09:25:44.432Z</time></trkpt><trkpt lat="43.7910931" lon="11.1954323"><ele>40.0</ele><time>2026-04-05T09:25:46.431Z</time></trkpt><trkpt lat="43.7910943" lon="11.1953196"><ele>40.0</ele><time>2026-04-05T09:25:48.431Z</time></trkpt><trkpt lat="43.7910943" lon="11.1952107"><ele>40.0</ele><time>2026-04-05T09:25:50.431Z</time></trkpt><trkpt lat="43.7910945" lon="11.1951054"><ele>40.0</ele><time>2026-04-05T09:25:52.432Z</time></trkpt><trkpt lat="43.7910973" lon="11.1950004"><ele>40.0</ele><time>2026-04-05T09:25:54.431Z</time></trkpt><trkpt lat="43.791096" lon="11.1948913"><ele>40.0</ele><time>2026-04-05T09:25:56.432Z</time></trkpt><trkpt lat="43.7910967" lon="11.1947819"><ele>40.0</ele><time>2026-04-05T09:25:58.431Z</time></trkpt><trkpt lat="43.7910996" lon="11.1946766"><ele>40.0</ele><time>2026-04-05T09:26:00.431Z</time></trkpt><trkpt lat="43.791106" lon="11.1945691"><ele>40.0</ele><time>2026-04-05T09:26:02.432Z</time></trkpt><trkpt lat="43.7911026" lon="11.1944595"><ele>40.0</ele><time>2026-04-05T09:26:04.432Z</time></trkpt><trkpt lat="43.7910964" lon="11.1943493"><ele>40.0</ele><time>2026-04-05T09:26:06.431Z</time></trkpt><trkpt lat="43.7910978" lon="11.1942506"><ele>40.0</ele><time>2026-04-05T09:26:08.431Z</time></trkpt><trkpt lat="43.7911018" lon="11.1941504"><ele>40.0</ele><time>2026-04-05T09:26:10.432Z</time></trkpt><trkpt lat="43.7911057" lon="11.1940517"><ele>40.0</ele><time>2026-04-05T09:26:12.431Z</time></trkpt><trkpt lat="43.7911132" lon="11.1939536"><ele>40.0</ele><time>2026-04-05T09:26:14.432Z</time></trkpt><trkpt lat="43.7911135" lon="11.1938527"><ele>40.0</ele><time>2026-04-05T09:26:16.432Z</time></trkpt><trkpt lat="43.7911031" lon="11.193748"><ele>40.0</ele><time>2026-04-05T09:26:18.431Z</time></trkpt><trkpt lat="43.7910877" lon="11.1936337"><ele>40.0</ele><time>2026-04-05T09:26:20.431Z</time></trkpt><trkpt lat="43.7910818" lon="11.1935142"><ele>39.833333333333336</ele><time>2026-04-05T09:26:22.43Z</time></trkpt><trkpt lat="43.791084" lon="11.1933917"><ele>39.66666666666667</ele><time>2026-04-05T09:26:24.432Z</time></trkpt><trkpt lat="43.7910866" lon="11.1932748"><ele>39.5</ele><time>2026-04-05T09:26:26.432Z</time></trkpt><trkpt lat="43.7910932" lon="11.1931574"><ele>39.333333333333336</ele><time>2026-04-05T09:26:28.431Z</time></trkpt><trkpt lat="43.791092" lon="11.1930423"><ele>39.166666666666664</ele><time>2026-04-05T09:26:30.431Z</time></trkpt><trkpt lat="43.7910873" lon="11.1929304"><ele>39.0</ele><time>2026-04-05T09:26:32.432Z</time></trkpt><trkpt lat="43.7910812" lon="11.1928157"><ele>39.0</ele><time>2026-04-05T09:26:34.432Z</time></trkpt><trkpt lat="43.7910784" lon="11.1927027"><ele>39.0</ele><time>2026-04-05T09:26:36.43Z</time></trkpt><trkpt lat="43.7910756" lon="11.1925969"><ele>39.0</ele><time>2026-04-05T09:26:38.431Z</time></trkpt><trkpt lat="43.791079" lon="11.1924805"><ele>39.0</ele><time>2026-04-05T09:26:40.432Z</time></trkpt><trkpt lat="43.7910812" lon="11.1923631"><ele>39.0</ele><time>2026-04-05T09:26:42.432Z</time></trkpt><trkpt lat="43.7910843" lon="11.1922474"><ele>39.0</ele><time>2026-04-05T09:26:44.431Z</time></trkpt><trkpt lat="43.7910887" lon="11.1921278"><ele>39.0</ele><time>2026-04-05T09:26:46.431Z</time></trkpt><trkpt lat="43.7910931" lon="11.1920113"><ele>39.0</ele><time>2026-04-05T09:26:48.431Z</time></trkpt><trkpt lat="43.791097" lon="11.191895"><ele>39.0</ele><time>2026-04-05T09:26:50.431Z</time></trkpt><trkpt lat="43.7910986" lon="11.1917787"><ele>39.0</ele><time>2026-04-05T09:26:52.431Z</time></trkpt><trkpt lat="43.7910976" lon="11.1916645"><ele>39.0</ele><time>2026-04-05T09:26:54.431Z</time></trkpt><trkpt lat="43.7910943" lon="11.1915498"><ele>39.0</ele><time>2026-04-05T09:26:56.431Z</time></trkpt><trkpt lat="43.7910935" lon="11.1914364"><ele>39.0</ele><time>2026-04-05T09:26:58.43Z</time></trkpt><trkpt lat="43.791098" lon="11.1913191"><ele>39.0</ele><time>2026-04-05T09:27:00.431Z</time></trkpt><trkpt lat="43.7910999" lon="11.1912079"><ele>39.0</ele><time>2026-04-05T09:27:02.43Z</time></trkpt><trkpt lat="43.7911021" lon="11.1910963"><ele>39.0</ele><time>2026-04-05T09:27:04.431Z</time></trkpt><trkpt lat="43.7911007" lon="11.1909835"><ele>39.0</ele><time>2026-04-05T09:27:06.43Z</time></trkpt><trkpt lat="43.7911005" lon="11.1908711"><ele>39.0</ele><time>2026-04-05T09:27:08.431Z</time></trkpt><trkpt lat="43.791103" lon="11.190762"><ele>39.166666666666664</ele><time>2026-04-05T09:27:10.431Z</time></trkpt><trkpt lat="43.7911108" lon="11.1906474"><ele>39.333333333333336</ele><time>2026-04-05T09:27:12.43Z</time></trkpt><trkpt lat="43.7911238" lon="11.1905342"><ele>39.5</ele><time>2026-04-05T09:27:14.431Z</time></trkpt><trkpt lat="43.7911356" lon="11.1904294"><ele>39.66666666666667</ele><time>2026-04-05T09:27:16.43Z</time></trkpt><trkpt lat="43.791147" lon="11.1903234"><ele>39.833333333333336</ele><time>2026-04-05T09:27:18.431Z</time></trkpt><trkpt lat="43.7911559" lon="11.190212"><ele>40.0</ele><time>2026-04-05T09:27:20.431Z</time></trkpt><trkpt lat="43.791151" lon="11.1901012"><ele>40.0</ele><time>2026-04-05T09:27:22.43Z</time></trkpt><trkpt lat="43.7911426" lon="11.1899937"><ele>40.0</ele><time>2026-04-05T09:27:24.431Z</time></trkpt><trkpt lat="43.7911299" lon="11.1898906"><ele>40.0</ele><time>2026-04-05T09:27:26.43Z</time></trkpt><trkpt lat="43.7911154" lon="11.1897826"><ele>40.0</ele><time>2026-04-05T09:27:28.431Z</time></trkpt><trkpt lat="43.7911047" lon="11.1896693"><ele>40.0</ele><time>2026-04-05T09:27:30.43Z</time></trkpt><trkpt lat="43.7910885" lon="11.1895535"><ele>40.0</ele><time>2026-04-05T09:27:32.431Z</time></trkpt><trkpt lat="43.7910702" lon="11.1894399"><ele>39.833333333333336</ele><time>2026-04-05T09:27:34.43Z</time></trkpt><trkpt lat="43.791057" lon="11.1893266"><ele>39.66666666666667</ele><time>2026-04-05T09:27:36.432Z</time></trkpt><trkpt lat="43.7910461" lon="11.189212"><ele>39.5</ele><time>2026-04-05T09:27:38.432Z</time></trkpt><trkpt lat="43.7910348" lon="11.1890937"><ele>39.333333333333336</ele><time>2026-04-05T09:27:40.431Z</time></trkpt><trkpt lat="43.7910225" lon="11.1889774"><ele>39.166666666666664</ele><time>2026-04-05T09:27:42.431Z</time></trkpt><trkpt lat="43.7910086" lon="11.1888625"><ele>39.0</ele><time>2026-04-05T09:27:44.43Z</time></trkpt><trkpt lat="43.7909934" lon="11.1887493"><ele>38.5</ele><time>2026-04-05T09:27:46.431Z</time></trkpt><trkpt lat="43.790979" lon="11.1886353"><ele>38.0</ele><time>2026-04-05T09:27:48.431Z</time></trkpt><trkpt lat="43.7909627" lon="11.1885202"><ele>37.5</ele><time>2026-04-05T09:27:50.431Z</time></trkpt><trkpt lat="43.7909491" lon="11.1884051"><ele>37.0</ele><time>2026-04-05T09:27:52.43Z</time></trkpt><trkpt lat="43.7909396" lon="11.1882929"><ele>36.5</ele><time>2026-04-05T09:27:54.431Z</time></trkpt><trkpt lat="43.7909283" lon="11.1881858"><ele>36.0</ele><time>2026-04-05T09:27:56.431Z</time></trkpt><trkpt lat="43.7909194" lon="11.1880791"><ele>35.666666666666664</ele><time>2026-04-05T09:27:58.431Z</time></trkpt><trkpt lat="43.790913" lon="11.1879697"><ele>35.333333333333336</ele><time>2026-04-05T09:28:00.431Z</time></trkpt><trkpt lat="43.7909034" lon="11.1878593"><ele>35.0</ele><time>2026-04-05T09:28:02.431Z</time></trkpt><trkpt lat="43.7908899" lon="11.1877522"><ele>34.66666666666667</ele><time>2026-04-05T09:28:04.431Z</time></trkpt><trkpt lat="43.7908811" lon="11.1876469"><ele>34.333333333333336</ele><time>2026-04-05T09:28:06.432Z</time></trkpt><trkpt lat="43.7908701" lon="11.1875437"><ele>34.0</ele><time>2026-04-05T09:28:08.431Z</time></trkpt><trkpt lat="43.7908651" lon="11.187435"><ele>34.0</ele><time>2026-04-05T09:28:10.43Z</time></trkpt><trkpt lat="43.7908609" lon="11.187314"><ele>34.0</ele><time>2026-04-05T09:28:12.432Z</time></trkpt><trkpt lat="43.7908551" lon="11.1872032"><ele>34.0</ele><time>2026-04-05T09:28:14.43Z</time></trkpt><trkpt lat="43.7908484" lon="11.1870932"><ele>34.0</ele><time>2026-04-05T09:28:16.432Z</time></trkpt><trkpt lat="43.7908414" lon="11.1869791"><ele>34.0</ele><time>2026-04-05T09:28:18.432Z</time></trkpt><trkpt lat="43.7908331" lon="11.186864"><ele>34.0</ele><time>2026-04-05T09:28:20.43Z</time></trkpt><trkpt lat="43.7908249" lon="11.1867491"><ele>34.0</ele><time>2026-04-05T09:28:22.431Z</time></trkpt><trkpt lat="43.7908187" lon="11.1866382"><ele>34.0</ele><time>2026-04-05T09:28:24.431Z</time></trkpt><trkpt lat="43.7908137" lon="11.1865262"><ele>34.0</ele><time>2026-04-05T09:28:26.431Z</time></trkpt><trkpt lat="43.7908079" lon="11.1864142"><ele>34.0</ele><time>2026-04-05T09:28:28.431Z</time></trkpt><trkpt lat="43.7908005" lon="11.1863079"><ele>34.0</ele><time>2026-04-05T09:28:30.351Z</time></trkpt><trkpt lat="43.7907926" lon="11.1861947"><ele>34.0</ele><time>2026-04-05T09:28:32.432Z</time></trkpt><trkpt lat="43.7907796" lon="11.1860858"><ele>34.16666666666667</ele><time>2026-04-05T09:28:34.431Z</time></trkpt><trkpt lat="43.7907548" lon="11.1859811"><ele>34.333333333333336</ele><time>2026-04-05T09:28:36.431Z</time></trkpt><trkpt lat="43.7907228" lon="11.1858747"><ele>34.5</ele><time>2026-04-05T09:28:38.432Z</time></trkpt><trkpt lat="43.7907064" lon="11.185758"><ele>34.666666666666664</ele><time>2026-04-05T09:28:40.43Z</time></trkpt><trkpt lat="43.7906898" lon="11.1856421"><ele>34.83333333333333</ele><time>2026-04-05T09:28:42.43Z</time></trkpt><trkpt lat="43.7906749" lon="11.1855221"><ele>35.0</ele><time>2026-04-05T09:28:44.43Z</time></trkpt><trkpt lat="43.7906588" lon="11.1854039"><ele>35.0</ele><time>2026-04-05T09:28:46.432Z</time></trkpt><trkpt lat="43.790647" lon="11.1852852"><ele>35.0</ele><time>2026-04-05T09:28:48.431Z</time></trkpt><trkpt lat="43.7906463" lon="11.1851707"><ele>35.0</ele><time>2026-04-05T09:28:50.431Z</time></trkpt><trkpt lat="43.7906466" lon="11.1850538"><ele>35.0</ele><time>2026-04-05T09:28:52.431Z</time></trkpt><trkpt lat="43.7906458" lon="11.1849403"><ele>35.0</ele><time>2026-04-05T09:28:54.431Z</time></trkpt><trkpt lat="43.7906388" lon="11.1848284"><ele>35.0</ele><time>2026-04-05T09:28:56.43Z</time></trkpt><trkpt lat="43.7906363" lon="11.1847209"><ele>35.33333333333333</ele><time>2026-04-05T09:28:58.43Z</time></trkpt><trkpt lat="43.7906314" lon="11.1846167"><ele>35.666666666666664</ele><time>2026-04-05T09:29:00.43Z</time></trkpt><trkpt lat="43.7906226" lon="11.184509"><ele>36.0</ele><time>2026-04-05T09:29:02.431Z</time></trkpt><trkpt lat="43.790613" lon="11.1844008"><ele>36.333333333333336</ele><time>2026-04-05T09:29:04.43Z</time></trkpt><trkpt lat="43.7906071" lon="11.1842917"><ele>36.66666666666667</ele><time>2026-04-05T09:29:06.432Z</time></trkpt><trkpt lat="43.790599" lon="11.1841803"><ele>37.0</ele><time>2026-04-05T09:29:08.43Z</time></trkpt><trkpt lat="43.7905892" lon="11.1840692"><ele>37.333333333333336</ele><time>2026-04-05T09:29:10.431Z</time></trkpt><trkpt lat="43.7905827" lon="11.1839624"><ele>37.66666666666667</ele><time>2026-04-05T09:29:12.43Z</time></trkpt><trkpt lat="43.7905762" lon="11.1838547"><ele>38.0</ele><time>2026-04-05T09:29:14.432Z</time></trkpt><trkpt lat="43.7905688" lon="11.1837482"><ele>38.333333333333336</ele><time>2026-04-05T09:29:16.431Z</time></trkpt><trkpt lat="43.7905571" lon="11.183639"><ele>38.666666666666664</ele><time>2026-04-05T09:29:18.43Z</time></trkpt><trkpt lat="43.7905484" lon="11.1835244"><ele>39.0</ele><time>2026-04-05T09:29:20.432Z</time></trkpt><trkpt lat="43.7905458" lon="11.1834051"><ele>39.0</ele><time>2026-04-05T09:29:22.431Z</time></trkpt><trkpt lat="43.790542" lon="11.183289"><ele>39.0</ele><time>2026-04-05T09:29:24.429Z</time></trkpt><trkpt lat="43.7905324" lon="11.1831732"><ele>39.0</ele><time>2026-04-05T09:29:26.431Z</time></trkpt><trkpt lat="43.7905216" lon="11.1830608"><ele>39.0</ele><time>2026-04-05T09:29:28.43Z</time></trkpt><trkpt lat="43.7905106" lon="11.1829505"><ele>39.0</ele><time>2026-04-05T09:29:30.43Z</time></trkpt><trkpt lat="43.790499" lon="11.1828382"><ele>39.0</ele><time>2026-04-05T09:29:32.431Z</time></trkpt><trkpt lat="43.7904856" lon="11.1827241"><ele>38.833333333333336</ele><time>2026-04-05T09:29:34.431Z</time></trkpt><trkpt lat="43.7904727" lon="11.1826095"><ele>38.666666666666664</ele><time>2026-04-05T09:29:36.432Z</time></trkpt><trkpt lat="43.7904603" lon="11.1824933"><ele>38.5</ele><time>2026-04-05T09:29:38.432Z</time></trkpt><trkpt lat="43.7904452" lon="11.182379"><ele>38.33333333333333</ele><time>2026-04-05T09:29:40.431Z</time></trkpt><trkpt lat="43.7904313" lon="11.1822635"><ele>38.166666666666664</ele><time>2026-04-05T09:29:42.431Z</time></trkpt><trkpt lat="43.79042" lon="11.1821468"><ele>38.0</ele><time>2026-04-05T09:29:44.431Z</time></trkpt><trkpt lat="43.7904066" lon="11.1820342"><ele>38.0</ele><time>2026-04-05T09:29:46.431Z</time></trkpt><trkpt lat="43.7903995" lon="11.1819194"><ele>38.0</ele><time>2026-04-05T09:29:48.431Z</time></trkpt><trkpt lat="43.7903903" lon="11.1818072"><ele>38.0</ele><time>2026-04-05T09:29:50.43Z</time></trkpt><trkpt lat="43.7903795" lon="11.1816926"><ele>38.0</ele><time>2026-04-05T09:29:52.43Z</time></trkpt><trkpt lat="43.7903725" lon="11.181572"><ele>38.0</ele><time>2026-04-05T09:29:54.43Z</time></trkpt><trkpt lat="43.7903612" lon="11.1814532"><ele>38.0</ele><time>2026-04-05T09:29:56.431Z</time></trkpt><trkpt lat="43.7903517" lon="11.1813352"><ele>38.0</ele><time>2026-04-05T09:29:58.431Z</time></trkpt><trkpt lat="43.7903411" lon="11.1812169"><ele>38.0</ele><time>2026-04-05T09:30:00.43Z</time></trkpt><trkpt lat="43.7903298" lon="11.1811001"><ele>38.0</ele><time>2026-04-05T09:30:02.431Z</time></trkpt><trkpt lat="43.7903228" lon="11.1809825"><ele>38.0</ele><time>2026-04-05T09:30:04.431Z</time></trkpt><trkpt lat="43.790313" lon="11.1808654"><ele>38.0</ele><time>2026-04-05T09:30:06.431Z</time></trkpt><trkpt lat="43.7903033" lon="11.1807487"><ele>38.0</ele><time>2026-04-05T09:30:08.431Z</time></trkpt><trkpt lat="43.7902897" lon="11.1806344"><ele>37.83333333333333</ele><time>2026-04-05T09:30:10.431Z</time></trkpt><trkpt lat="43.7902722" lon="11.1805159"><ele>37.666666666666664</ele><time>2026-04-05T09:30:12.43Z</time></trkpt><trkpt lat="43.7902585" lon="11.1803999"><ele>37.5</ele><time>2026-04-05T09:30:14.431Z</time></trkpt><trkpt lat="43.7902416" lon="11.180283"><ele>37.333333333333336</ele><time>2026-04-05T09:30:16.432Z</time></trkpt><trkpt lat="43.7902258" lon="11.1801707"><ele>37.16666666666667</ele><time>2026-04-05T09:30:18.431Z</time></trkpt><trkpt lat="43.7902055" lon="11.1800554"><ele>37.0</ele><time>2026-04-05T09:30:20.431Z</time></trkpt><trkpt lat="43.7901816" lon="11.1799416"><ele>36.5</ele><time>2026-04-05T09:30:22.432Z</time></trkpt><trkpt lat="43.7901567" lon="11.1798248"><ele>36.0</ele><time>2026-04-05T09:30:24.431Z</time></trkpt><trkpt lat="43.7901376" lon="11.1797082"><ele>35.5</ele><time>2026-04-05T09:30:26.43Z</time></trkpt><trkpt lat="43.7901185" lon="11.1795942"><ele>35.0</ele><time>2026-04-05T09:30:28.43Z</time></trkpt><trkpt lat="43.7901024" lon="11.1794821"><ele>34.5</ele><time>2026-04-05T09:30:30.431Z</time></trkpt><trkpt lat="43.7900868" lon="11.1793584"><ele>34.0</ele><time>2026-04-05T09:30:32.431Z</time></trkpt><trkpt lat="43.7900732" lon="11.1792462"><ele>34.0</ele><time>2026-04-05T09:30:34.431Z</time></trkpt><trkpt lat="43.7900641" lon="11.1791306"><ele>34.0</ele><time>2026-04-05T09:30:36.431Z</time></trkpt><trkpt lat="43.7900545" lon="11.1790161"><ele>34.0</ele><time>2026-04-05T09:30:38.408Z</time></trkpt><trkpt lat="43.7900459" lon="11.1789025"><ele>34.0</ele><time>2026-04-05T09:30:40.432Z</time></trkpt><trkpt lat="43.7900356" lon="11.178791"><ele>34.0</ele><time>2026-04-05T09:30:42.43Z</time></trkpt><trkpt lat="43.790026" lon="11.178675"><ele>34.0</ele><time>2026-04-05T09:30:44.43Z</time></trkpt><trkpt lat="43.7900187" lon="11.1785594"><ele>34.0</ele><time>2026-04-05T09:30:46.421Z</time></trkpt><trkpt lat="43.7900103" lon="11.1784403"><ele>34.0</ele><time>2026-04-05T09:30:48.431Z</time></trkpt><trkpt lat="43.7900026" lon="11.178322"><ele>34.0</ele><time>2026-04-05T09:30:50.43Z</time></trkpt><trkpt lat="43.7899968" lon="11.1782011"><ele>34.0</ele><time>2026-04-05T09:30:52.43Z</time></trkpt><trkpt lat="43.7899889" lon="11.1780839"><ele>34.0</ele><time>2026-04-05T09:30:54.43Z</time></trkpt><trkpt lat="43.7899721" lon="11.177964"><ele>34.0</ele><time>2026-04-05T09:30:56.432Z</time></trkpt><trkpt lat="43.7899577" lon="11.1778432"><ele>34.0</ele><time>2026-04-05T09:30:58.431Z</time></trkpt><trkpt lat="43.7899427" lon="11.1777285"><ele>34.0</ele><time>2026-04-05T09:31:00.43Z</time></trkpt><trkpt lat="43.7899325" lon="11.1776157"><ele>34.0</ele><time>2026-04-05T09:31:02.381Z</time></trkpt><trkpt lat="43.7899208" lon="11.1775003"><ele>34.0</ele><time>2026-04-05T09:31:04.431Z</time></trkpt><trkpt lat="43.789906" lon="11.1773857"><ele>34.0</ele><time>2026-04-05T09:31:06.431Z</time></trkpt><trkpt lat="43.789899" lon="11.1772724"><ele>34.0</ele><time>2026-04-05T09:31:08.43Z</time></trkpt><trkpt lat="43.7898935" lon="11.1771456"><ele>34.16666666666667</ele><time>2026-04-05T09:31:10.431Z</time></trkpt><trkpt lat="43.7898829" lon="11.1770291"><ele>34.333333333333336</ele><time>2026-04-05T09:31:12.43Z</time></trkpt><trkpt lat="43.7898791" lon="11.1769042"><ele>34.5</ele><time>2026-04-05T09:31:14.431Z</time></trkpt><trkpt lat="43.7898729" lon="11.176788"><ele>34.666666666666664</ele><time>2026-04-05T09:31:16.43Z</time></trkpt><trkpt lat="43.7898707" lon="11.1766635"><ele>34.83333333333333</ele><time>2026-04-05T09:31:18.431Z</time></trkpt><trkpt lat="43.7898655" lon="11.17655"><ele>35.0</ele><time>2026-04-05T09:31:20.431Z</time></trkpt><trkpt lat="43.789856" lon="11.1764337"><ele>35.0</ele><time>2026-04-05T09:31:22.43Z</time></trkpt><trkpt lat="43.7898477" lon="11.1763169"><ele>35.0</ele><time>2026-04-05T09:31:24.43Z</time></trkpt><trkpt lat="43.7898399" lon="11.1762005"><ele>35.0</ele><time>2026-04-05T09:31:26.43Z</time></trkpt><trkpt lat="43.7898274" lon="11.1760829"><ele>35.0</ele><time>2026-04-05T09:31:28.43Z</time></trkpt><trkpt lat="43.7898075" lon="11.1759682"><ele>35.0</ele><time>2026-04-05T09:31:30.43Z</time></trkpt><trkpt lat="43.7897904" lon="11.1758522"><ele>35.0</ele><time>2026-04-05T09:31:32.43Z</time></trkpt><trkpt lat="43.7897795" lon="11.1757326"><ele>35.33333333333333</ele><time>2026-04-05T09:31:34.43Z</time></trkpt><trkpt lat="43.7897666" lon="11.1756114"><ele>35.666666666666664</ele><time>2026-04-05T09:31:36.43Z</time></trkpt><trkpt lat="43.7897625" lon="11.1754888"><ele>36.0</ele><time>2026-04-05T09:31:38.43Z</time></trkpt><trkpt lat="43.7897669" lon="11.1753608"><ele>36.333333333333336</ele><time>2026-04-05T09:31:40.431Z</time></trkpt><trkpt lat="43.7897761" lon="11.1752389"><ele>36.66666666666667</ele><time>2026-04-05T09:31:42.43Z</time></trkpt><trkpt lat="43.7897903" lon="11.1751279"><ele>37.0</ele><time>2026-04-05T09:31:44.43Z</time></trkpt><trkpt lat="43.7897975" lon="11.1750159"><ele>37.0</ele><time>2026-04-05T09:31:46.43Z</time></trkpt><trkpt lat="43.7897917" lon="11.1749115"><ele>37.0</ele><time>2026-04-05T09:31:48.43Z</time></trkpt><trkpt lat="43.7897897" lon="11.1747985"><ele>37.0</ele><time>2026-04-05T09:31:50.431Z</time></trkpt><trkpt lat="43.7897798" lon="11.1746877"><ele>37.0</ele><time>2026-04-05T09:31:52.43Z</time></trkpt><trkpt lat="43.7897716" lon="11.1745734"><ele>37.0</ele><time>2026-04-05T09:31:54.43Z</time></trkpt><trkpt lat="43.7897576" lon="11.1744598"><ele>37.0</ele><time>2026-04-05T09:31:56.431Z</time></trkpt><trkpt lat="43.7897523" lon="11.1743415"><ele>37.0</ele><time>2026-04-05T09:31:58.431Z</time></trkpt><trkpt lat="43.7897425" lon="11.1742256"><ele>37.0</ele><time>2026-04-05T09:32:00.431Z</time></trkpt><trkpt lat="43.7897312" lon="11.1741071"><ele>37.0</ele><time>2026-04-05T09:32:02.431Z</time></trkpt><trkpt lat="43.7897187" lon="11.1739858"><ele>37.0</ele><time>2026-04-05T09:32:04.43Z</time></trkpt><trkpt lat="43.7897034" lon="11.1738679"><ele>37.0</ele><time>2026-04-05T09:32:06.43Z</time></trkpt><trkpt lat="43.7896868" lon="11.1737547"><ele>37.0</ele><time>2026-04-05T09:32:08.43Z</time></trkpt><trkpt lat="43.7896776" lon="11.173645"><ele>37.0</ele><time>2026-04-05T09:32:10.431Z</time></trkpt><trkpt lat="43.7896698" lon="11.1735387"><ele>37.0</ele><time>2026-04-05T09:32:12.43Z</time></trkpt><trkpt lat="43.7896548" lon="11.1734344"><ele>37.0</ele><time>2026-04-05T09:32:14.431Z</time></trkpt><trkpt lat="43.7896323" lon="11.1733286"><ele>37.0</ele><time>2026-04-05T09:32:16.43Z</time></trkpt><trkpt lat="43.7896107" lon="11.1732218"><ele>37.0</ele><time>2026-04-05T09:32:18.43Z</time></trkpt><trkpt lat="43.7895847" lon="11.1731145"><ele>37.0</ele><time>2026-04-05T09:32:20.431Z</time></trkpt><trkpt lat="43.7895645" lon="11.1730058"><ele>37.0</ele><time>2026-04-05T09:32:22.431Z</time></trkpt><trkpt lat="43.7895514" lon="11.1729026"><ele>37.0</ele><time>2026-04-05T09:32:24.43Z</time></trkpt><trkpt lat="43.7895415" lon="11.172809"><ele>37.0</ele><time>2026-04-05T09:32:26.431Z</time></trkpt><trkpt lat="43.7895339" lon="11.1726872"><ele>37.0</ele><time>2026-04-05T09:32:29.43Z</time></trkpt><trkpt lat="43.7895367" lon="11.1725822"><ele>37.0</ele><time>2026-04-05T09:32:32.431Z</time></trkpt><trkpt lat="43.7895391" lon="11.1724919"><ele>37.0</ele><time>2026-04-05T09:32:35.431Z</time></trkpt><trkpt lat="43.7895387" lon="11.1723952"><ele>37.0</ele><time>2026-04-05T09:32:39.43Z</time></trkpt><trkpt lat="43.7895212" lon="11.1723029"><ele>37.0</ele><time>2026-04-05T09:36:01.431Z</time></trkpt><trkpt lat="43.7894947" lon="11.1721801"><ele>37.0</ele><time>2026-04-05T09:36:04.43Z</time></trkpt><trkpt lat="43.7894795" lon="11.1720853"><ele>37.0</ele><time>2026-04-05T09:36:06.431Z</time></trkpt><trkpt lat="43.7894733" lon="11.1719905"><ele>37.0</ele><time>2026-04-05T09:36:08.43Z</time></trkpt><trkpt lat="43.7894628" lon="11.1718919"><ele>37.0</ele><time>2026-04-05T09:36:10.429Z</time></trkpt><trkpt lat="43.789455" lon="11.1717938"><ele>37.0</ele><time>2026-04-05T09:36:12.431Z</time></trkpt><trkpt lat="43.7894505" lon="11.1716943"><ele>37.0</ele><time>2026-04-05T09:36:14.431Z</time></trkpt><trkpt lat="43.7894469" lon="11.1715909"><ele>37.16666666666667</ele><time>2026-04-05T09:36:16.431Z</time></trkpt><trkpt lat="43.7894438" lon="11.1714855"><ele>37.333333333333336</ele><time>2026-04-05T09:36:18.43Z</time></trkpt><trkpt lat="43.7894379" lon="11.1713732"><ele>37.5</ele><time>2026-04-05T09:36:20.429Z</time></trkpt><trkpt lat="43.7894322" lon="11.1712581"><ele>37.666666666666664</ele><time>2026-04-05T09:36:22.429Z</time></trkpt><trkpt lat="43.7894229" lon="11.1711435"><ele>37.83333333333333</ele><time>2026-04-05T09:36:24.429Z</time></trkpt><trkpt lat="43.7894087" lon="11.1710363"><ele>38.0</ele><time>2026-04-05T09:36:26.431Z</time></trkpt><trkpt lat="43.7893938" lon="11.1709302"><ele>38.0</ele><time>2026-04-05T09:36:28.429Z</time></trkpt><trkpt lat="43.7893814" lon="11.1708265"><ele>38.0</ele><time>2026-04-05T09:36:30.43Z</time></trkpt><trkpt lat="43.7893754" lon="11.170723"><ele>38.0</ele><time>2026-04-05T09:36:32.43Z</time></trkpt><trkpt lat="43.7893672" lon="11.1706191"><ele>38.0</ele><time>2026-04-05T09:36:34.429Z</time></trkpt><trkpt lat="43.7893572" lon="11.1705119"><ele>38.0</ele><time>2026-04-05T09:36:36.431Z</time></trkpt><trkpt lat="43.7893436" lon="11.1704042"><ele>38.0</ele><time>2026-04-05T09:36:38.43Z</time></trkpt><trkpt lat="43.7893326" lon="11.1702949"><ele>37.666666666666664</ele><time>2026-04-05T09:36:40.43Z</time></trkpt><trkpt lat="43.7893274" lon="11.1701864"><ele>37.33333333333333</ele><time>2026-04-05T09:36:42.43Z</time></trkpt><trkpt lat="43.7893165" lon="11.1700794"><ele>37.0</ele><time>2026-04-05T09:36:44.429Z</time></trkpt><trkpt lat="43.7893075" lon="11.1699756"><ele>36.666666666666664</ele><time>2026-04-05T09:36:46.429Z</time></trkpt><trkpt lat="43.7892987" lon="11.1698668"><ele>36.333333333333336</ele><time>2026-04-05T09:36:48.43Z</time></trkpt><trkpt lat="43.7892905" lon="11.1697556"><ele>36.0</ele><time>2026-04-05T09:36:50.429Z</time></trkpt><trkpt lat="43.7892805" lon="11.1696459"><ele>36.0</ele><time>2026-04-05T09:36:52.43Z</time></trkpt><trkpt lat="43.7892702" lon="11.1695343"><ele>36.0</ele><time>2026-04-05T09:36:54.43Z</time></trkpt><trkpt lat="43.7892571" lon="11.1694241"><ele>36.0</ele><time>2026-04-05T09:36:56.429Z</time></trkpt><trkpt lat="43.7892453" lon="11.169314"><ele>36.0</ele><time>2026-04-05T09:36:58.429Z</time></trkpt><trkpt lat="43.7892377" lon="11.1692052"><ele>36.0</ele><time>2026-04-05T09:37:00.43Z</time></trkpt><trkpt lat="43.7892282" lon="11.1690978"><ele>36.0</ele><time>2026-04-05T09:37:02.429Z</time></trkpt><trkpt lat="43.7892164" lon="11.1689892"><ele>36.166666666666664</ele><time>2026-04-05T09:37:04.428Z</time></trkpt><trkpt lat="43.7892063" lon="11.1688842"><ele>36.333333333333336</ele><time>2026-04-05T09:37:06.43Z</time></trkpt><trkpt lat="43.7891929" lon="11.1687761"><ele>36.5</ele><time>2026-04-05T09:37:08.429Z</time></trkpt><trkpt lat="43.7891844" lon="11.168667"><ele>36.66666666666667</ele><time>2026-04-05T09:37:10.429Z</time></trkpt><trkpt lat="43.7891764" lon="11.1685555"><ele>36.833333333333336</ele><time>2026-04-05T09:37:12.43Z</time></trkpt><trkpt lat="43.7891665" lon="11.1684447"><ele>37.0</ele><time>2026-04-05T09:37:14.431Z</time></trkpt><trkpt lat="43.7891609" lon="11.1683361"><ele>37.0</ele><time>2026-04-05T09:37:16.43Z</time></trkpt><trkpt lat="43.7891574" lon="11.1682303"><ele>37.0</ele><time>2026-04-05T09:37:18.428Z</time></trkpt><trkpt lat="43.7891511" lon="11.1681219"><ele>37.0</ele><time>2026-04-05T09:37:20.429Z</time></trkpt><trkpt lat="43.7891435" lon="11.1680088"><ele>37.0</ele><time>2026-04-05T09:37:22.429Z</time></trkpt><trkpt lat="43.7891312" lon="11.1678943"><ele>37.0</ele><time>2026-04-05T09:37:24.43Z</time></trkpt><trkpt lat="43.7891128" lon="11.1677783"><ele>37.0</ele><time>2026-04-05T09:37:26.43Z</time></trkpt><trkpt lat="43.7890965" lon="11.1676642"><ele>36.66666666666667</ele><time>2026-04-05T09:37:28.43Z</time></trkpt><trkpt lat="43.7890849" lon="11.1675509"><ele>36.333333333333336</ele><time>2026-04-05T09:37:30.43Z</time></trkpt><trkpt lat="43.7890771" lon="11.1674382"><ele>36.0</ele><time>2026-04-05T09:37:32.429Z</time></trkpt><trkpt lat="43.7890663" lon="11.1673254"><ele>35.666666666666664</ele><time>2026-04-05T09:37:34.43Z</time></trkpt><trkpt lat="43.7890543" lon="11.1672108"><ele>35.33333333333333</ele><time>2026-04-05T09:37:36.429Z</time></trkpt><trkpt lat="43.7890453" lon="11.167096"><ele>35.0</ele><time>2026-04-05T09:37:38.43Z</time></trkpt><trkpt lat="43.7890382" lon="11.1669803"><ele>35.0</ele><time>2026-04-05T09:37:40.428Z</time></trkpt><trkpt lat="43.7890298" lon="11.1668657"><ele>35.0</ele><time>2026-04-05T09:37:42.43Z</time></trkpt><trkpt lat="43.7890227" lon="11.1667527"><ele>35.0</ele><time>2026-04-05T09:37:44.429Z</time></trkpt><trkpt lat="43.7890151" lon="11.1666354"><ele>35.0</ele><time>2026-04-05T09:37:46.43Z</time></trkpt><trkpt lat="43.789004" lon="11.16652"><ele>35.0</ele><time>2026-04-05T09:37:48.429Z</time></trkpt><trkpt lat="43.7889898" lon="11.166405"><ele>35.0</ele><time>2026-04-05T09:37:50.43Z</time></trkpt><trkpt lat="43.7889754" lon="11.166287"><ele>35.33333333333333</ele><time>2026-04-05T09:37:52.429Z</time></trkpt><trkpt lat="43.7889668" lon="11.166175"><ele>35.666666666666664</ele><time>2026-04-05T09:37:54.429Z</time></trkpt><trkpt lat="43.7889652" lon="11.166062"><ele>36.0</ele><time>2026-04-05T09:37:56.43Z</time></trkpt><trkpt lat="43.7889661" lon="11.1659484"><ele>36.333333333333336</ele><time>2026-04-05T09:37:58.429Z</time></trkpt><trkpt lat="43.7889635" lon="11.1658443"><ele>36.66666666666667</ele><time>2026-04-05T09:38:00.43Z</time></trkpt><trkpt lat="43.7889662" lon="11.1657352"><ele>37.0</ele><time>2026-04-05T09:38:02.429Z</time></trkpt><trkpt lat="43.7889716" lon="11.1656179"><ele>37.0</ele><time>2026-04-05T09:38:04.43Z</time></trkpt><trkpt lat="43.7889738" lon="11.1654992"><ele>37.0</ele><time>2026-04-05T09:38:06.43Z</time></trkpt><trkpt lat="43.7889612" lon="11.165411"><ele>37.0</ele><time>2026-04-05T09:38:08.43Z</time></trkpt><trkpt lat="43.7889151" lon="11.1653126"><ele>37.0</ele><time>2026-04-05T09:38:30.429Z</time></trkpt><trkpt lat="43.7888678" lon="11.1652142"><ele>37.0</ele><time>2026-04-05T09:38:33.429Z</time></trkpt><trkpt lat="43.7888296" lon="11.1651173"><ele>37.0</ele><time>2026-04-05T09:38:35.429Z</time></trkpt><trkpt lat="43.788792" lon="11.1650135"><ele>37.0</ele><time>2026-04-05T09:38:37.429Z</time></trkpt><trkpt lat="43.7887625" lon="11.164913"><ele>37.0</ele><time>2026-04-05T09:38:39.429Z</time></trkpt><trkpt lat="43.7887322" lon="11.1647943"><ele>37.0</ele><time>2026-04-05T09:38:42.429Z</time></trkpt><trkpt lat="43.7887081" lon="11.1646844"><ele>37.0</ele><time>2026-04-05T09:38:45.429Z</time></trkpt><trkpt lat="43.7886857" lon="11.1645602"><ele>37.0</ele><time>2026-04-05T09:38:48.429Z</time></trkpt><trkpt lat="43.7886689" lon="11.1644533"><ele>37.0</ele><time>2026-04-05T09:38:50.43Z</time></trkpt><trkpt lat="43.7886498" lon="11.1643392"><ele>36.833333333333336</ele><time>2026-04-05T09:38:52.429Z</time></trkpt><trkpt lat="43.788624" lon="11.1642111"><ele>36.66666666666667</ele><time>2026-04-05T09:38:54.429Z</time></trkpt><trkpt lat="43.7885882" lon="11.164091"><ele>36.5</ele><time>2026-04-05T09:38:56.428Z</time></trkpt><trkpt lat="43.788562" lon="11.1639761"><ele>36.333333333333336</ele><time>2026-04-05T09:38:58.429Z</time></trkpt><trkpt lat="43.7885255" lon="11.1638793"><ele>36.166666666666664</ele><time>2026-04-05T09:39:00.429Z</time></trkpt><trkpt lat="43.7884888" lon="11.1637696"><ele>36.0</ele><time>2026-04-05T09:39:02.43Z</time></trkpt><trkpt lat="43.7884524" lon="11.163681"><ele>36.0</ele><time>2026-04-05T09:39:04.43Z</time></trkpt><trkpt lat="43.7884587" lon="11.1635797"><ele>36.0</ele><time>2026-04-05T09:39:06.429Z</time></trkpt><trkpt lat="43.7884585" lon="11.163477"><ele>36.0</ele><time>2026-04-05T09:39:08.429Z</time></trkpt><trkpt lat="43.7884494" lon="11.1633725"><ele>36.0</ele><time>2026-04-05T09:39:10.429Z</time></trkpt><trkpt lat="43.7884381" lon="11.163268"><ele>36.0</ele><time>2026-04-05T09:39:12.43Z</time></trkpt><trkpt lat="43.7884263" lon="11.1631626"><ele>36.0</ele><time>2026-04-05T09:39:14.43Z</time></trkpt><trkpt lat="43.7884176" lon="11.1630555"><ele>36.0</ele><time>2026-04-05T09:39:16.429Z</time></trkpt><trkpt lat="43.7884068" lon="11.1629476"><ele>36.0</ele><time>2026-04-05T09:39:18.428Z</time></trkpt><trkpt lat="43.7883965" lon="11.1628359"><ele>36.0</ele><time>2026-04-05T09:39:20.43Z</time></trkpt><trkpt lat="43.7883836" lon="11.1627243"><ele>36.0</ele><time>2026-04-05T09:39:22.429Z</time></trkpt><trkpt lat="43.7883699" lon="11.1626119"><ele>36.0</ele><time>2026-04-05T09:39:24.43Z</time></trkpt><trkpt lat="43.7883574" lon="11.1624954"><ele>36.0</ele><time>2026-04-05T09:39:26.43Z</time></trkpt><trkpt lat="43.7883424" lon="11.1623788"><ele>36.0</ele><time>2026-04-05T09:39:28.429Z</time></trkpt><trkpt lat="43.788325" lon="11.1622678"><ele>36.0</ele><time>2026-04-05T09:39:30.429Z</time></trkpt><trkpt lat="43.7883098" lon="11.1621578"><ele>36.0</ele><time>2026-04-05T09:39:32.428Z</time></trkpt><trkpt lat="43.788292" lon="11.1620445"><ele>36.0</ele><time>2026-04-05T09:39:34.429Z</time></trkpt><trkpt lat="43.7882733" lon="11.1619329"><ele>36.0</ele><time>2026-04-05T09:39:36.429Z</time></trkpt><trkpt lat="43.7882561" lon="11.1618262"><ele>36.0</ele><time>2026-04-05T09:39:38.429Z</time></trkpt><trkpt lat="43.7882378" lon="11.1616904"><ele>36.0</ele><time>2026-04-05T09:39:41.149Z</time></trkpt><trkpt lat="43.788216" lon="11.1615778"><ele>36.0</ele><time>2026-04-05T09:39:43.429Z</time></trkpt><trkpt lat="43.7881923" lon="11.1614839"><ele>36.0</ele><time>2026-04-05T09:39:45.429Z</time></trkpt><trkpt lat="43.7881704" lon="11.1613836"><ele>36.0</ele><time>2026-04-05T09:39:47.429Z</time></trkpt><trkpt lat="43.7881572" lon="11.161271"><ele>36.0</ele><time>2026-04-05T09:39:49.429Z</time></trkpt><trkpt lat="43.7881409" lon="11.1611569"><ele>36.0</ele><time>2026-04-05T09:39:51.429Z</time></trkpt><trkpt lat="43.7881229" lon="11.161045"><ele>36.0</ele><time>2026-04-05T09:39:53.43Z</time></trkpt><trkpt lat="43.7881059" lon="11.1609365"><ele>36.0</ele><time>2026-04-05T09:39:55.43Z</time></trkpt><trkpt lat="43.7880882" lon="11.1608287"><ele>36.0</ele><time>2026-04-05T09:39:57.429Z</time></trkpt><trkpt lat="43.7880697" lon="11.1607223"><ele>36.0</ele><time>2026-04-05T09:39:59.43Z</time></trkpt><trkpt lat="43.7880517" lon="11.1606179"><ele>36.0</ele><time>2026-04-05T09:40:01.43Z</time></trkpt><trkpt lat="43.7880366" lon="11.1605138"><ele>36.0</ele><time>2026-04-05T09:40:03.429Z</time></trkpt><trkpt lat="43.7880199" lon="11.1604124"><ele>36.0</ele><time>2026-04-05T09:40:05.429Z</time></trkpt><trkpt lat="43.788" lon="11.1603081"><ele>36.0</ele><time>2026-04-05T09:40:07.429Z</time></trkpt><trkpt lat="43.7879826" lon="11.1601996"><ele>36.0</ele><time>2026-04-05T09:40:09.429Z</time></trkpt><trkpt lat="43.787964" lon="11.1600881"><ele>36.0</ele><time>2026-04-05T09:40:11.429Z</time></trkpt><trkpt lat="43.7879451" lon="11.1599758"><ele>36.0</ele><time>2026-04-05T09:40:13.428Z</time></trkpt><trkpt lat="43.7879262" lon="11.1598653"><ele>36.0</ele><time>2026-04-05T09:40:15.429Z</time></trkpt><trkpt lat="43.7879038" lon="11.1597506"><ele>36.166666666666664</ele><time>2026-04-05T09:40:17.429Z</time></trkpt><trkpt lat="43.7878827" lon="11.1596324"><ele>36.333333333333336</ele><time>2026-04-05T09:40:19.429Z</time></trkpt><trkpt lat="43.7878606" lon="11.1595153"><ele>36.5</ele><time>2026-04-05T09:40:21.429Z</time></trkpt><trkpt lat="43.7878379" lon="11.1594006"><ele>36.66666666666667</ele><time>2026-04-05T09:40:23.428Z</time></trkpt><trkpt lat="43.7878164" lon="11.1592883"><ele>36.833333333333336</ele><time>2026-04-05T09:40:25.43Z</time></trkpt><trkpt lat="43.7877958" lon="11.1591739"><ele>37.0</ele><time>2026-04-05T09:40:27.428Z</time></trkpt><trkpt lat="43.7877745" lon="11.1590569"><ele>37.333333333333336</ele><time>2026-04-05T09:40:29.43Z</time></trkpt><trkpt lat="43.7877524" lon="11.1589417"><ele>37.66666666666667</ele><time>2026-04-05T09:40:31.428Z</time></trkpt><trkpt lat="43.7877293" lon="11.1588264"><ele>38.0</ele><time>2026-04-05T09:40:33.43Z</time></trkpt><trkpt lat="43.7877098" lon="11.1587146"><ele>38.333333333333336</ele><time>2026-04-05T09:40:35.429Z</time></trkpt><trkpt lat="43.7876888" lon="11.158588"><ele>38.666666666666664</ele><time>2026-04-05T09:40:37.429Z</time></trkpt><trkpt lat="43.7876779" lon="11.1584816"><ele>39.0</ele><time>2026-04-05T09:40:39.43Z</time></trkpt><trkpt lat="43.7876806" lon="11.1583687"><ele>38.833333333333336</ele><time>2026-04-05T09:40:41.429Z</time></trkpt><trkpt lat="43.7876543" lon="11.1582534"><ele>38.666666666666664</ele><time>2026-04-05T09:40:43.43Z</time></trkpt><trkpt lat="43.7876346" lon="11.1581485"><ele>38.5</ele><time>2026-04-05T09:40:45.429Z</time></trkpt><trkpt lat="43.7876081" lon="11.1580394"><ele>38.33333333333333</ele><time>2026-04-05T09:40:47.429Z</time></trkpt><trkpt lat="43.7875885" lon="11.1579234"><ele>38.166666666666664</ele><time>2026-04-05T09:40:49.429Z</time></trkpt><trkpt lat="43.787573" lon="11.157817"><ele>38.0</ele><time>2026-04-05T09:40:51.429Z</time></trkpt><trkpt lat="43.7875563" lon="11.1577074"><ele>37.83333333333333</ele><time>2026-04-05T09:40:53.43Z</time></trkpt><trkpt lat="43.7875363" lon="11.157601"><ele>37.666666666666664</ele><time>2026-04-05T09:40:55.429Z</time></trkpt><trkpt lat="43.7875163" lon="11.1574969"><ele>37.5</ele><time>2026-04-05T09:40:57.429Z</time></trkpt><trkpt lat="43.7874928" lon="11.1573883"><ele>37.333333333333336</ele><time>2026-04-05T09:40:59.43Z</time></trkpt><trkpt lat="43.7874669" lon="11.157275"><ele>37.16666666666667</ele><time>2026-04-05T09:41:01.43Z</time></trkpt><trkpt lat="43.78744" lon="11.1571674"><ele>37.0</ele><time>2026-04-05T09:41:03.429Z</time></trkpt><trkpt lat="43.7874202" lon="11.1570595"><ele>37.0</ele><time>2026-04-05T09:41:05.429Z</time></trkpt><trkpt lat="43.7874041" lon="11.1569434"><ele>37.0</ele><time>2026-04-05T09:41:07.428Z</time></trkpt><trkpt lat="43.7873935" lon="11.1568224"><ele>37.0</ele><time>2026-04-05T09:41:09.429Z</time></trkpt><trkpt lat="43.7873818" lon="11.1567046"><ele>37.0</ele><time>2026-04-05T09:41:11.429Z</time></trkpt><trkpt lat="43.7873685" lon="11.1565917"><ele>37.0</ele><time>2026-04-05T09:41:13.43Z</time></trkpt><trkpt lat="43.7873626" lon="11.1564803"><ele>37.0</ele><time>2026-04-05T09:41:15.428Z</time></trkpt><trkpt lat="43.7873534" lon="11.156361"><ele>36.66666666666667</ele><time>2026-04-05T09:41:17.429Z</time></trkpt><trkpt lat="43.7873431" lon="11.1562399"><ele>36.333333333333336</ele><time>2026-04-05T09:41:19.427Z</time></trkpt><trkpt lat="43.7873289" lon="11.156118"><ele>36.0</ele><time>2026-04-05T09:41:21.428Z</time></trkpt><trkpt lat="43.7873185" lon="11.1559997"><ele>35.666666666666664</ele><time>2026-04-05T09:41:23.43Z</time></trkpt><trkpt lat="43.7873036" lon="11.1558795"><ele>35.33333333333333</ele><time>2026-04-05T09:41:25.429Z</time></trkpt><trkpt lat="43.7872888" lon="11.1557629"><ele>35.0</ele><time>2026-04-05T09:41:27.428Z</time></trkpt><trkpt lat="43.7872758" lon="11.1556455"><ele>34.83333333333333</ele><time>2026-04-05T09:41:29.428Z</time></trkpt><trkpt lat="43.7872614" lon="11.1555268"><ele>34.666666666666664</ele><time>2026-04-05T09:41:31.429Z</time></trkpt><trkpt lat="43.7872482" lon="11.1554085"><ele>34.5</ele><time>2026-04-05T09:41:33.429Z</time></trkpt><trkpt lat="43.7872303" lon="11.155293"><ele>34.333333333333336</ele><time>2026-04-05T09:41:35.429Z</time></trkpt><trkpt lat="43.7872167" lon="11.1551733"><ele>34.16666666666667</ele><time>2026-04-05T09:41:37.429Z</time></trkpt><trkpt lat="43.7871954" lon="11.1550609"><ele>34.0</ele><time>2026-04-05T09:41:39.428Z</time></trkpt><trkpt lat="43.7871767" lon="11.1549391"><ele>34.16666666666667</ele><time>2026-04-05T09:41:41.429Z</time></trkpt><trkpt lat="43.7871575" lon="11.154822"><ele>34.333333333333336</ele><time>2026-04-05T09:41:43.429Z</time></trkpt><trkpt lat="43.7871366" lon="11.1547048"><ele>34.5</ele><time>2026-04-05T09:41:45.429Z</time></trkpt><trkpt lat="43.7871197" lon="11.1545948"><ele>34.666666666666664</ele><time>2026-04-05T09:41:47.429Z</time></trkpt><trkpt lat="43.7871028" lon="11.1544819"><ele>34.83333333333333</ele><time>2026-04-05T09:41:49.428Z</time></trkpt><trkpt lat="43.7870817" lon="11.1543705"><ele>35.0</ele><time>2026-04-05T09:41:51.428Z</time></trkpt><trkpt lat="43.7870634" lon="11.1542592"><ele>35.0</ele><time>2026-04-05T09:41:53.429Z</time></trkpt><trkpt lat="43.787048" lon="11.1541442"><ele>35.0</ele><time>2026-04-05T09:41:55.429Z</time></trkpt><trkpt lat="43.7870304" lon="11.1540247"><ele>35.0</ele><time>2026-04-05T09:41:57.428Z</time></trkpt><trkpt lat="43.7870135" lon="11.1539066"><ele>35.0</ele><time>2026-04-05T09:41:59.429Z</time></trkpt><trkpt lat="43.7869974" lon="11.1537873"><ele>35.0</ele><time>2026-04-05T09:42:01.428Z</time></trkpt><trkpt lat="43.78698" lon="11.1536736"><ele>35.0</ele><time>2026-04-05T09:42:03.428Z</time></trkpt><trkpt lat="43.7869624" lon="11.1535572"><ele>35.166666666666664</ele><time>2026-04-05T09:42:05.429Z</time></trkpt><trkpt lat="43.7869446" lon="11.1534403"><ele>35.33333333333333</ele><time>2026-04-05T09:42:07.429Z</time></trkpt><trkpt lat="43.786926" lon="11.1533233"><ele>35.5</ele><time>2026-04-05T09:42:09.429Z</time></trkpt><trkpt lat="43.7869074" lon="11.153207"><ele>35.666666666666664</ele><time>2026-04-05T09:42:11.428Z</time></trkpt><trkpt lat="43.7868888" lon="11.1530863"><ele>35.833333333333336</ele><time>2026-04-05T09:42:13.428Z</time></trkpt><trkpt lat="43.7868898" lon="11.1529576"><ele>36.0</ele><time>2026-04-05T09:42:15.428Z</time></trkpt><trkpt lat="43.7868765" lon="11.1528476"><ele>36.0</ele><time>2026-04-05T09:42:17.43Z</time></trkpt><trkpt lat="43.7868604" lon="11.1527296"><ele>36.0</ele><time>2026-04-05T09:42:19.428Z</time></trkpt><trkpt lat="43.7868331" lon="11.1526069"><ele>36.0</ele><time>2026-04-05T09:42:21.428Z</time></trkpt><trkpt lat="43.786805" lon="11.1524904"><ele>36.0</ele><time>2026-04-05T09:42:23.43Z</time></trkpt><trkpt lat="43.7867845" lon="11.1523773"><ele>36.0</ele><time>2026-04-05T09:42:25.428Z</time></trkpt><trkpt lat="43.7867686" lon="11.1522589"><ele>36.0</ele><time>2026-04-05T09:42:27.429Z</time></trkpt><trkpt lat="43.7867421" lon="11.1521431"><ele>35.833333333333336</ele><time>2026-04-05T09:42:29.429Z</time></trkpt><trkpt lat="43.7867229" lon="11.1520276"><ele>35.666666666666664</ele><time>2026-04-05T09:42:31.429Z</time></trkpt><trkpt lat="43.7867055" lon="11.1519126"><ele>35.5</ele><time>2026-04-05T09:42:33.428Z</time></trkpt><trkpt lat="43.7866856" lon="11.1518"><ele>35.33333333333333</ele><time>2026-04-05T09:42:35.429Z</time></trkpt><trkpt lat="43.7866648" lon="11.1516888"><ele>35.166666666666664</ele><time>2026-04-05T09:42:37.429Z</time></trkpt><trkpt lat="43.7866451" lon="11.1515727"><ele>35.0</ele><time>2026-04-05T09:42:39.427Z</time></trkpt><trkpt lat="43.7866292" lon="11.1514497"><ele>35.0</ele><time>2026-04-05T09:42:41.428Z</time></trkpt><trkpt lat="43.7866114" lon="11.1513277"><ele>35.0</ele><time>2026-04-05T09:42:43.429Z</time></trkpt><trkpt lat="43.7865917" lon="11.15121"><ele>35.0</ele><time>2026-04-05T09:42:45.428Z</time></trkpt><trkpt lat="43.7865704" lon="11.1510958"><ele>35.0</ele><time>2026-04-05T09:42:47.429Z</time></trkpt><trkpt lat="43.7865516" lon="11.1509796"><ele>35.0</ele><time>2026-04-05T09:42:49.429Z</time></trkpt><trkpt lat="43.7865343" lon="11.1508637"><ele>35.0</ele><time>2026-04-05T09:42:51.428Z</time></trkpt><trkpt lat="43.7865139" lon="11.1507468"><ele>34.83333333333333</ele><time>2026-04-05T09:42:53.429Z</time></trkpt><trkpt lat="43.7864979" lon="11.1506301"><ele>34.666666666666664</ele><time>2026-04-05T09:42:55.428Z</time></trkpt><trkpt lat="43.7864932" lon="11.1505173"><ele>34.5</ele><time>2026-04-05T09:42:57.428Z</time></trkpt><trkpt lat="43.7864879" lon="11.1504017"><ele>34.333333333333336</ele><time>2026-04-05T09:42:59.428Z</time></trkpt><trkpt lat="43.7864767" lon="11.150289"><ele>34.16666666666667</ele><time>2026-04-05T09:43:01.428Z</time></trkpt><trkpt lat="43.7864615" lon="11.1501739"><ele>34.0</ele><time>2026-04-05T09:43:03.429Z</time></trkpt><trkpt lat="43.7864449" lon="11.1500578"><ele>34.0</ele><time>2026-04-05T09:43:05.428Z</time></trkpt><trkpt lat="43.7864252" lon="11.1499418"><ele>34.0</ele><time>2026-04-05T09:43:07.428Z</time></trkpt><trkpt lat="43.7864118" lon="11.1498219"><ele>34.0</ele><time>2026-04-05T09:43:09.428Z</time></trkpt><trkpt lat="43.7863874" lon="11.1496981"><ele>34.0</ele><time>2026-04-05T09:43:11.429Z</time></trkpt><trkpt lat="43.7863668" lon="11.14958"><ele>34.0</ele><time>2026-04-05T09:43:13.428Z</time></trkpt><trkpt lat="43.7863486" lon="11.149463"><ele>34.0</ele><time>2026-04-05T09:43:15.429Z</time></trkpt><trkpt lat="43.7863237" lon="11.1493418"><ele>34.2</ele><time>2026-04-05T09:43:17.429Z</time></trkpt><trkpt lat="43.7863018" lon="11.1492198"><ele>34.4</ele><time>2026-04-05T09:43:19.428Z</time></trkpt><trkpt lat="43.7862785" lon="11.1490995"><ele>34.6</ele><time>2026-04-05T09:43:21.429Z</time></trkpt><trkpt lat="43.7862538" lon="11.1489675"><ele>34.8</ele><time>2026-04-05T09:43:23.429Z</time></trkpt><trkpt lat="43.7862363" lon="11.1488439"><ele>35.0</ele><time>2026-04-05T09:43:25.429Z</time></trkpt><trkpt lat="43.7862142" lon="11.1487184"><ele>35.2</ele><time>2026-04-05T09:43:27.428Z</time></trkpt><trkpt lat="43.7861844" lon="11.1485974"><ele>35.4</ele><time>2026-04-05T09:43:29.428Z</time></trkpt><trkpt lat="43.7861563" lon="11.1484758"><ele>35.6</ele><time>2026-04-05T09:43:31.429Z</time></trkpt><trkpt lat="43.7861371" lon="11.1483501"><ele>35.8</ele><time>2026-04-05T09:43:33.428Z</time></trkpt><trkpt lat="43.7861159" lon="11.1482349"><ele>36.0</ele><time>2026-04-05T09:43:35.428Z</time></trkpt><trkpt lat="43.7860982" lon="11.1481137"><ele>36.0</ele><time>2026-04-05T09:43:37.429Z</time></trkpt><trkpt lat="43.7860823" lon="11.1479939"><ele>36.0</ele><time>2026-04-05T09:43:39.428Z</time></trkpt><trkpt lat="43.786077" lon="11.1478648"><ele>36.0</ele><time>2026-04-05T09:43:41.428Z</time></trkpt><trkpt lat="43.7860616" lon="11.1477397"><ele>36.0</ele><time>2026-04-05T09:43:43.428Z</time></trkpt><trkpt lat="43.7860431" lon="11.1476263"><ele>36.0</ele><time>2026-04-05T09:43:45.428Z</time></trkpt><trkpt lat="43.7860303" lon="11.1475103"><ele>36.0</ele><time>2026-04-05T09:43:47.428Z</time></trkpt><trkpt lat="43.7860158" lon="11.1473992"><ele>35.666666666666664</ele><time>2026-04-05T09:43:49.429Z</time></trkpt><trkpt lat="43.7860014" lon="11.1472823"><ele>35.333333333333336</ele><time>2026-04-05T09:43:51.429Z</time></trkpt><trkpt lat="43.7859848" lon="11.1471662"><ele>35.0</ele><time>2026-04-05T09:43:53.428Z</time></trkpt><trkpt lat="43.7859644" lon="11.1470482"><ele>34.66666666666667</ele><time>2026-04-05T09:43:55.428Z</time></trkpt><trkpt lat="43.7859503" lon="11.1469345"><ele>34.333333333333336</ele><time>2026-04-05T09:43:57.428Z</time></trkpt><trkpt lat="43.7859373" lon="11.146818"><ele>34.0</ele><time>2026-04-05T09:43:59.429Z</time></trkpt><trkpt lat="43.7859205" lon="11.1467001"><ele>34.0</ele><time>2026-04-05T09:44:01.429Z</time></trkpt><trkpt lat="43.7859028" lon="11.1465822"><ele>34.0</ele><time>2026-04-05T09:44:03.428Z</time></trkpt><trkpt lat="43.7858833" lon="11.1464666"><ele>34.0</ele><time>2026-04-05T09:44:05.428Z</time></trkpt><trkpt lat="43.7858652" lon="11.1463517"><ele>34.0</ele><time>2026-04-05T09:44:07.429Z</time></trkpt><trkpt lat="43.785844" lon="11.1462345"><ele>34.0</ele><time>2026-04-05T09:44:09.428Z</time></trkpt><trkpt lat="43.7858252" lon="11.1461148"><ele>34.0</ele><time>2026-04-05T09:44:11.429Z</time></trkpt><trkpt lat="43.7858067" lon="11.1460021"><ele>34.0</ele><time>2026-04-05T09:44:13.427Z</time></trkpt><trkpt lat="43.7857929" lon="11.1458858"><ele>34.0</ele><time>2026-04-05T09:44:15.428Z</time></trkpt><trkpt lat="43.7857757" lon="11.1457677"><ele>34.0</ele><time>2026-04-05T09:44:17.429Z</time></trkpt><trkpt lat="43.7857499" lon="11.1456474"><ele>34.0</ele><time>2026-04-05T09:44:19.428Z</time></trkpt><trkpt lat="43.7857314" lon="11.1455421"><ele>34.0</ele><time>2026-04-05T09:44:21.428Z</time></trkpt><trkpt lat="43.785712" lon="11.1454222"><ele>34.0</ele><time>2026-04-05T09:44:23.428Z</time></trkpt><trkpt lat="43.7856962" lon="11.1453105"><ele>34.16666666666667</ele><time>2026-04-05T09:44:25.428Z</time></trkpt><trkpt lat="43.7856792" lon="11.1452034"><ele>34.333333333333336</ele><time>2026-04-05T09:44:27.429Z</time></trkpt><trkpt lat="43.785666" lon="11.1450881"><ele>34.5</ele><time>2026-04-05T09:44:29.428Z</time></trkpt><trkpt lat="43.7856508" lon="11.144972"><ele>34.666666666666664</ele><time>2026-04-05T09:44:31.428Z</time></trkpt><trkpt lat="43.7856329" lon="11.1448533"><ele>34.83333333333333</ele><time>2026-04-05T09:44:33.428Z</time></trkpt><trkpt lat="43.7856153" lon="11.1447379"><ele>35.0</ele><time>2026-04-05T09:44:35.427Z</time></trkpt><trkpt lat="43.7855971" lon="11.1446195"><ele>35.33333333333333</ele><time>2026-04-05T09:44:37.427Z</time></trkpt><trkpt lat="43.7855855" lon="11.144505"><ele>35.666666666666664</ele><time>2026-04-05T09:44:39.428Z</time></trkpt><trkpt lat="43.785579" lon="11.1443869"><ele>36.0</ele><time>2026-04-05T09:44:41.428Z</time></trkpt><trkpt lat="43.7855769" lon="11.1442645"><ele>36.333333333333336</ele><time>2026-04-05T09:44:43.428Z</time></trkpt><trkpt lat="43.7855881" lon="11.1441461"><ele>36.66666666666667</ele><time>2026-04-05T09:44:45.428Z</time></trkpt><trkpt lat="43.7856" lon="11.1440189"><ele>37.0</ele><time>2026-04-05T09:44:47.429Z</time></trkpt><trkpt lat="43.7855936" lon="11.1439006"><ele>37.16666666666667</ele><time>2026-04-05T09:44:49.428Z</time></trkpt><trkpt lat="43.7855675" lon="11.1437924"><ele>37.333333333333336</ele><time>2026-04-05T09:44:51.428Z</time></trkpt><trkpt lat="43.7855314" lon="11.1436885"><ele>37.5</ele><time>2026-04-05T09:44:53.427Z</time></trkpt><trkpt lat="43.7854936" lon="11.1435916"><ele>37.666666666666664</ele><time>2026-04-05T09:44:55.428Z</time></trkpt><trkpt lat="43.7854565" lon="11.1434871"><ele>37.83333333333333</ele><time>2026-04-05T09:44:57.427Z</time></trkpt><trkpt lat="43.7854346" lon="11.1433796"><ele>38.0</ele><time>2026-04-05T09:44:59.427Z</time></trkpt><trkpt lat="43.7854302" lon="11.143274"><ele>38.0</ele><time>2026-04-05T09:45:01.429Z</time></trkpt><trkpt lat="43.7854317" lon="11.1431681"><ele>38.0</ele><time>2026-04-05T09:45:03.428Z</time></trkpt><trkpt lat="43.785426" lon="11.1430626"><ele>38.0</ele><time>2026-04-05T09:45:05.428Z</time></trkpt><trkpt lat="43.7854086" lon="11.1429526"><ele>38.0</ele><time>2026-04-05T09:45:07.427Z</time></trkpt><trkpt lat="43.7853875" lon="11.1428405"><ele>38.0</ele><time>2026-04-05T09:45:09.428Z</time></trkpt><trkpt lat="43.7853662" lon="11.1427229"><ele>38.0</ele><time>2026-04-05T09:45:11.429Z</time></trkpt><trkpt lat="43.785342" lon="11.1426108"><ele>38.0</ele><time>2026-04-05T09:45:13.428Z</time></trkpt><trkpt lat="43.7853232" lon="11.1425072"><ele>38.0</ele><time>2026-04-05T09:45:15.427Z</time></trkpt><trkpt lat="43.7853048" lon="11.1424041"><ele>38.0</ele><time>2026-04-05T09:45:17.429Z</time></trkpt><trkpt lat="43.7852862" lon="11.1422977"><ele>38.0</ele><time>2026-04-05T09:45:19.427Z</time></trkpt><trkpt lat="43.785273" lon="11.142187"><ele>38.0</ele><time>2026-04-05T09:45:21.428Z</time></trkpt><trkpt lat="43.7852656" lon="11.142067"><ele>38.0</ele><time>2026-04-05T09:45:23.429Z</time></trkpt><trkpt lat="43.7852684" lon="11.1419456"><ele>38.0</ele><time>2026-04-05T09:45:25.429Z</time></trkpt><trkpt lat="43.7852318" lon="11.1418635"><ele>38.0</ele><time>2026-04-05T09:45:27.428Z</time></trkpt><trkpt lat="43.7852196" lon="11.1417678"><ele>38.0</ele><time>2026-04-05T09:45:29.428Z</time></trkpt><trkpt lat="43.7852068" lon="11.1416653"><ele>38.0</ele><time>2026-04-05T09:45:31.427Z</time></trkpt><trkpt lat="43.7852007" lon="11.141534"><ele>38.0</ele><time>2026-04-05T09:45:34.428Z</time></trkpt><trkpt lat="43.7852228" lon="11.141441"><ele>38.0</ele><time>2026-04-05T09:45:36.429Z</time></trkpt><trkpt lat="43.7852356" lon="11.1413532"><ele>38.0</ele><time>2026-04-05T09:45:38.428Z</time></trkpt><trkpt lat="43.7852319" lon="11.1412574"><ele>37.857142857142854</ele><time>2026-04-05T09:45:40.427Z</time></trkpt><trkpt lat="43.7852161" lon="11.1411637"><ele>37.714285714285715</ele><time>2026-04-05T09:45:42.429Z</time></trkpt><trkpt lat="43.7851988" lon="11.1410725"><ele>37.57142857142857</ele><time>2026-04-05T09:45:44.429Z</time></trkpt><trkpt lat="43.7851795" lon="11.1409804"><ele>37.42857142857143</ele><time>2026-04-05T09:45:46.428Z</time></trkpt><trkpt lat="43.7851673" lon="11.1408936"><ele>37.285714285714285</ele><time>2026-04-05T09:45:48.428Z</time></trkpt><trkpt lat="43.785153" lon="11.1407801"><ele>37.142857142857146</ele><time>2026-04-05T09:45:51.427Z</time></trkpt><trkpt lat="43.7851234" lon="11.140887"><ele>37.0</ele><time>2026-04-05T09:45:56.428Z</time></trkpt><trkpt lat="43.785139" lon="11.1409757"><ele>37.0</ele><time>2026-04-05T09:45:58.429Z</time></trkpt><trkpt lat="43.7851617" lon="11.1410595"><ele>37.0</ele><time>2026-04-05T09:46:00.428Z</time></trkpt><trkpt lat="43.7851961" lon="11.141176"><ele>37.0</ele><time>2026-04-05T09:46:03.428Z</time></trkpt><trkpt lat="43.7852065" lon="11.1412898"><ele>37.0</ele><time>2026-04-05T09:46:06.427Z</time></trkpt><trkpt lat="43.7851532" lon="11.1413374"><ele>37.0</ele><time>2026-04-05T09:46:08.429Z</time></trkpt><trkpt lat="43.7850856" lon="11.1413447"><ele>37.0</ele><time>2026-04-05T09:46:10.429Z</time></trkpt><trkpt lat="43.7850204" lon="11.1413516"><ele>37.0</ele><time>2026-04-05T09:46:12.428Z</time></trkpt><trkpt lat="43.7849553" lon="11.1413661"><ele>36.833333333333336</ele><time>2026-04-05T09:46:14.428Z</time></trkpt><trkpt lat="43.7848656" lon="11.1413928"><ele>36.66666666666667</ele><time>2026-04-05T09:46:17.429Z</time></trkpt><trkpt lat="43.784773" lon="11.1414225"><ele>36.5</ele><time>2026-04-05T09:46:20.428Z</time></trkpt><trkpt lat="43.7847086" lon="11.1414446"><ele>36.333333333333336</ele><time>2026-04-05T09:46:22.427Z</time></trkpt><trkpt lat="43.7846167" lon="11.141469"><ele>36.166666666666664</ele><time>2026-04-05T09:46:25.427Z</time></trkpt><trkpt lat="43.7845396" lon="11.1414912"><ele>36.0</ele><time>2026-04-05T09:46:28.428Z</time></trkpt><trkpt lat="43.7844749" lon="11.1415113"><ele>36.0</ele><time>2026-04-05T09:46:31.429Z</time></trkpt><trkpt lat="43.7843912" lon="11.1415293"><ele>36.0</ele><time>2026-04-05T09:46:35.428Z</time></trkpt><trkpt lat="43.784311" lon="11.1415577"><ele>36.0</ele><time>2026-04-05T09:46:39.428Z</time></trkpt><trkpt lat="43.7842289" lon="11.1415853"><ele>36.0</ele><time>2026-04-05T09:46:42.427Z</time></trkpt><trkpt lat="43.7841449" lon="11.1416133"><ele>36.0</ele><time>2026-04-05T09:46:45.429Z</time></trkpt><trkpt lat="43.7840547" lon="11.1416442"><ele>36.0</ele><time>2026-04-05T09:46:48.429Z</time></trkpt><trkpt lat="43.7839854" lon="11.1416632"><ele>36.0</ele><time>2026-04-05T09:46:50.427Z</time></trkpt><trkpt lat="43.7839123" lon="11.1416829"><ele>36.0</ele><time>2026-04-05T09:46:52.428Z</time></trkpt><trkpt lat="43.7838334" lon="11.1417106"><ele>36.0</ele><time>2026-04-05T09:46:54.428Z</time></trkpt><trkpt lat="43.7837412" lon="11.1417426"><ele>36.0</ele><time>2026-04-05T09:46:56.429Z</time></trkpt><trkpt lat="43.7836536" lon="11.1417661"><ele>36.0</ele><time>2026-04-05T09:46:58.427Z</time></trkpt><trkpt lat="43.7835821" lon="11.1417378"><ele>36.0</ele><time>2026-04-05T09:47:00.427Z</time></trkpt><trkpt lat="43.783562" lon="11.1416272"><ele>36.0</ele><time>2026-04-05T09:47:02.427Z</time></trkpt><trkpt lat="43.783549" lon="11.1415072"><ele>36.0</ele><time>2026-04-05T09:47:04.428Z</time></trkpt><trkpt lat="43.7835201" lon="11.1413674"><ele>36.0</ele><time>2026-04-05T09:47:06.427Z</time></trkpt><trkpt lat="43.7834843" lon="11.1412036"><ele>36.0</ele><time>2026-04-05T09:47:08.428Z</time></trkpt><trkpt lat="43.7834589" lon="11.1410567"><ele>36.0</ele><time>2026-04-05T09:47:10.428Z</time></trkpt><trkpt lat="43.7834408" lon="11.1409233"><ele>36.0</ele><time>2026-04-05T09:47:12.429Z</time></trkpt><trkpt lat="43.7834089" lon="11.1407908"><ele>36.0</ele><time>2026-04-05T09:47:14.428Z</time></trkpt><trkpt lat="43.783391" lon="11.1406639"><ele>36.0</ele><time>2026-04-05T09:47:16.428Z</time></trkpt><trkpt lat="43.7833746" lon="11.1405429"><ele>36.0</ele><time>2026-04-05T09:47:18.427Z</time></trkpt><trkpt lat="43.7833623" lon="11.1404222"><ele>36.0</ele><time>2026-04-05T09:47:20.428Z</time></trkpt><trkpt lat="43.783342" lon="11.1403032"><ele>36.0</ele><time>2026-04-05T09:47:22.428Z</time></trkpt><trkpt lat="43.7833257" lon="11.1401971"><ele>36.0</ele><time>2026-04-05T09:47:24.428Z</time></trkpt><trkpt lat="43.7833069" lon="11.1400825"><ele>36.0</ele><time>2026-04-05T09:47:26.428Z</time></trkpt><trkpt lat="43.7832859" lon="11.1399653"><ele>36.0</ele><time>2026-04-05T09:47:28.428Z</time></trkpt><trkpt lat="43.7832641" lon="11.1398489"><ele>36.0</ele><time>2026-04-05T09:47:30.427Z</time></trkpt><trkpt lat="43.783246" lon="11.1397322"><ele>36.0</ele><time>2026-04-05T09:47:32.428Z</time></trkpt><trkpt lat="43.7832299" lon="11.1396116"><ele>36.0</ele><time>2026-04-05T09:47:34.428Z</time></trkpt><trkpt lat="43.7832069" lon="11.1394939"><ele>36.0</ele><time>2026-04-05T09:47:36.428Z</time></trkpt><trkpt lat="43.7831847" lon="11.1393747"><ele>36.0</ele><time>2026-04-05T09:47:38.428Z</time></trkpt><trkpt lat="43.7831612" lon="11.1392564"><ele>36.0</ele><time>2026-04-05T09:47:40.428Z</time></trkpt><trkpt lat="43.7831415" lon="11.1391406"><ele>36.0</ele><time>2026-04-05T09:47:42.428Z</time></trkpt><trkpt lat="43.7831249" lon="11.1390248"><ele>36.0</ele><time>2026-04-05T09:47:44.427Z</time></trkpt><trkpt lat="43.7831099" lon="11.1389102"><ele>36.0</ele><time>2026-04-05T09:47:46.427Z</time></trkpt><trkpt lat="43.7830938" lon="11.138795"><ele>36.0</ele><time>2026-04-05T09:47:48.427Z</time></trkpt><trkpt lat="43.7830769" lon="11.1386762"><ele>36.0</ele><time>2026-04-05T09:47:50.428Z</time></trkpt><trkpt lat="43.7830583" lon="11.1385557"><ele>36.0</ele><time>2026-04-05T09:47:52.427Z</time></trkpt><trkpt lat="43.7830377" lon="11.1384442"><ele>36.0</ele><time>2026-04-05T09:47:54.427Z</time></trkpt><trkpt lat="43.7830192" lon="11.1383289"><ele>36.0</ele><time>2026-04-05T09:47:56.427Z</time></trkpt><trkpt lat="43.7829989" lon="11.1382138"><ele>35.666666666666664</ele><time>2026-04-05T09:47:58.428Z</time></trkpt><trkpt lat="43.7829798" lon="11.138102"><ele>35.333333333333336</ele><time>2026-04-05T09:48:00.428Z</time></trkpt><trkpt lat="43.7829619" lon="11.1379873"><ele>35.0</ele><time>2026-04-05T09:48:02.428Z</time></trkpt><trkpt lat="43.7829458" lon="11.137877"><ele>34.66666666666667</ele><time>2026-04-05T09:48:04.428Z</time></trkpt><trkpt lat="43.7829259" lon="11.1377665"><ele>34.333333333333336</ele><time>2026-04-05T09:48:06.428Z</time></trkpt><trkpt lat="43.7829044" lon="11.1376548"><ele>34.0</ele><time>2026-04-05T09:48:08.428Z</time></trkpt><trkpt lat="43.7828862" lon="11.1375477"><ele>33.99999999999999</ele><time>2026-04-05T09:48:10.428Z</time></trkpt><trkpt lat="43.7828668" lon="11.1374508"><ele>34.0</ele><time>2026-04-05T09:48:12.427Z</time></trkpt><trkpt lat="43.7828551" lon="11.137365"><ele>34.0</ele><time>2026-04-05T09:48:14.428Z</time></trkpt><trkpt lat="43.7828408" lon="11.1372479"><ele>34.0</ele><time>2026-04-05T09:48:17.427Z</time></trkpt><trkpt lat="43.7828287" lon="11.1371615"><ele>34.0</ele><time>2026-04-05T09:48:19.427Z</time></trkpt><trkpt lat="43.7828154" lon="11.137072"><ele>33.99999999999999</ele><time>2026-04-05T09:48:21.427Z</time></trkpt><trkpt lat="43.7827992" lon="11.1369843"><ele>34.0</ele><time>2026-04-05T09:48:23.427Z</time></trkpt><trkpt lat="43.782779" lon="11.1368962"><ele>33.99999999999999</ele><time>2026-04-05T09:48:25.427Z</time></trkpt><trkpt lat="43.7827669" lon="11.1368041"><ele>34.0</ele><time>2026-04-05T09:48:27.427Z</time></trkpt><trkpt lat="43.7827559" lon="11.1367102"><ele>34.0</ele><time>2026-04-05T09:48:29.428Z</time></trkpt><trkpt lat="43.7827425" lon="11.136607"><ele>34.0</ele><time>2026-04-05T09:48:31.428Z</time></trkpt><trkpt lat="43.7827276" lon="11.1365015"><ele>34.0</ele><time>2026-04-05T09:48:33.428Z</time></trkpt><trkpt lat="43.7827124" lon="11.136393"><ele>33.99999999999999</ele><time>2026-04-05T09:48:35.428Z</time></trkpt><trkpt lat="43.7826979" lon="11.1362932"><ele>34.0</ele><time>2026-04-05T09:48:37.427Z</time></trkpt><trkpt lat="43.7826803" lon="11.1361865"><ele>34.0</ele><time>2026-04-05T09:48:39.427Z</time></trkpt><trkpt lat="43.782663" lon="11.1360797"><ele>34.0</ele><time>2026-04-05T09:48:41.428Z</time></trkpt><trkpt lat="43.782646" lon="11.1359756"><ele>34.0</ele><time>2026-04-05T09:48:43.428Z</time></trkpt><trkpt lat="43.7826264" lon="11.1358685"><ele>34.0</ele><time>2026-04-05T09:48:45.427Z</time></trkpt><trkpt lat="43.7826049" lon="11.1357592"><ele>34.0</ele><time>2026-04-05T09:48:47.427Z</time></trkpt><trkpt lat="43.7825849" lon="11.1356557"><ele>34.0</ele><time>2026-04-05T09:48:49.427Z</time></trkpt><trkpt lat="43.782567" lon="11.1355519"><ele>34.0</ele><time>2026-04-05T09:48:51.427Z</time></trkpt><trkpt lat="43.782549" lon="11.135446"><ele>34.0</ele><time>2026-04-05T09:48:53.427Z</time></trkpt><trkpt lat="43.7825337" lon="11.1353357"><ele>34.0</ele><time>2026-04-05T09:48:55.428Z</time></trkpt><trkpt lat="43.7825188" lon="11.1352276"><ele>34.0</ele><time>2026-04-05T09:48:57.428Z</time></trkpt><trkpt lat="43.7825005" lon="11.1351234"><ele>34.0</ele><time>2026-04-05T09:48:59.427Z</time></trkpt><trkpt lat="43.7824796" lon="11.1350214"><ele>34.0</ele><time>2026-04-05T09:49:01.427Z</time></trkpt><trkpt lat="43.7824621" lon="11.1349186"><ele>34.0</ele><time>2026-04-05T09:49:03.427Z</time></trkpt><trkpt lat="43.7824438" lon="11.1348166"><ele>34.0</ele><time>2026-04-05T09:49:05.427Z</time></trkpt><trkpt lat="43.7824258" lon="11.1347062"><ele>34.0</ele><time>2026-04-05T09:49:07.427Z</time></trkpt><trkpt lat="43.7824043" lon="11.1345924"><ele>34.0</ele><time>2026-04-05T09:49:09.427Z</time></trkpt><trkpt lat="43.782386" lon="11.1344873"><ele>34.0</ele><time>2026-04-05T09:49:11.427Z</time></trkpt><trkpt lat="43.7823682" lon="11.1343824"><ele>34.0</ele><time>2026-04-05T09:49:13.428Z</time></trkpt><trkpt lat="43.7823486" lon="11.1342716"><ele>34.0</ele><time>2026-04-05T09:49:15.427Z</time></trkpt><trkpt lat="43.7823256" lon="11.1341602"><ele>34.0</ele><time>2026-04-05T09:49:17.428Z</time></trkpt><trkpt lat="43.7823072" lon="11.1340486"><ele>34.0</ele><time>2026-04-05T09:49:19.427Z</time></trkpt><trkpt lat="43.7822946" lon="11.1339405"><ele>34.0</ele><time>2026-04-05T09:49:21.426Z</time></trkpt><trkpt lat="43.7822818" lon="11.1338357"><ele>34.0</ele><time>2026-04-05T09:49:23.427Z</time></trkpt><trkpt lat="43.7822621" lon="11.1337354"><ele>34.0</ele><time>2026-04-05T09:49:25.426Z</time></trkpt><trkpt lat="43.7822417" lon="11.1336358"><ele>34.0</ele><time>2026-04-05T09:49:27.427Z</time></trkpt><trkpt lat="43.7822236" lon="11.1335413"><ele>34.0</ele><time>2026-04-05T09:49:29.428Z</time></trkpt><trkpt lat="43.7822024" lon="11.1334207"><ele>34.0</ele><time>2026-04-05T09:49:32.426Z</time></trkpt><trkpt lat="43.7821913" lon="11.1333184"><ele>34.0</ele><time>2026-04-05T09:49:35.427Z</time></trkpt><trkpt lat="43.7821806" lon="11.1332243"><ele>34.0</ele><time>2026-04-05T09:49:37.426Z</time></trkpt><trkpt lat="43.7821681" lon="11.1331215"><ele>34.0</ele><time>2026-04-05T09:49:39.428Z</time></trkpt><trkpt lat="43.7821508" lon="11.1330181"><ele>33.66666666666667</ele><time>2026-04-05T09:49:41.428Z</time></trkpt><trkpt lat="43.7821336" lon="11.1329095"><ele>33.333333333333336</ele><time>2026-04-05T09:49:43.427Z</time></trkpt><trkpt lat="43.7821163" lon="11.1327954"><ele>33.0</ele><time>2026-04-05T09:49:45.427Z</time></trkpt><trkpt lat="43.7820997" lon="11.1326789"><ele>32.666666666666664</ele><time>2026-04-05T09:49:47.428Z</time></trkpt><trkpt lat="43.7820804" lon="11.1325663"><ele>32.33333333333333</ele><time>2026-04-05T09:49:49.427Z</time></trkpt><trkpt lat="43.7820677" lon="11.1324525"><ele>32.0</ele><time>2026-04-05T09:49:51.427Z</time></trkpt><trkpt lat="43.7820564" lon="11.1323396"><ele>31.999999999999996</ele><time>2026-04-05T09:49:53.426Z</time></trkpt><trkpt lat="43.782042" lon="11.1322305"><ele>32.0</ele><time>2026-04-05T09:49:55.427Z</time></trkpt><trkpt lat="43.7820219" lon="11.1321248"><ele>32.0</ele><time>2026-04-05T09:49:57.428Z</time></trkpt><trkpt lat="43.782002" lon="11.1320175"><ele>32.0</ele><time>2026-04-05T09:49:59.427Z</time></trkpt><trkpt lat="43.7819796" lon="11.1319114"><ele>31.999999999999996</ele><time>2026-04-05T09:50:01.427Z</time></trkpt><trkpt lat="43.7819627" lon="11.1318042"><ele>32.0</ele><time>2026-04-05T09:50:03.426Z</time></trkpt><trkpt lat="43.7819465" lon="11.1316971"><ele>31.999999999999996</ele><time>2026-04-05T09:50:05.427Z</time></trkpt><trkpt lat="43.7819343" lon="11.1315911"><ele>32.0</ele><time>2026-04-05T09:50:07.427Z</time></trkpt><trkpt lat="43.7819182" lon="11.1314829"><ele>32.0</ele><time>2026-04-05T09:50:09.425Z</time></trkpt><trkpt lat="43.7819026" lon="11.131372"><ele>32.0</ele><time>2026-04-05T09:50:11.428Z</time></trkpt><trkpt lat="43.7818857" lon="11.1312632"><ele>31.999999999999996</ele><time>2026-04-05T09:50:13.427Z</time></trkpt><trkpt lat="43.7818691" lon="11.1311554"><ele>32.0</ele><time>2026-04-05T09:50:15.427Z</time></trkpt><trkpt lat="43.7818522" lon="11.131048"><ele>32.5</ele><time>2026-04-05T09:50:17.428Z</time></trkpt><trkpt lat="43.7818343" lon="11.1309372"><ele>33.0</ele><time>2026-04-05T09:50:19.428Z</time></trkpt><trkpt lat="43.781817" lon="11.1308257"><ele>33.5</ele><time>2026-04-05T09:50:21.428Z</time></trkpt><trkpt lat="43.7818009" lon="11.1307171"><ele>34.0</ele><time>2026-04-05T09:50:23.427Z</time></trkpt><trkpt lat="43.7817859" lon="11.1306073"><ele>34.5</ele><time>2026-04-05T09:50:25.428Z</time></trkpt><trkpt lat="43.7817701" lon="11.1304944"><ele>35.0</ele><time>2026-04-05T09:50:27.428Z</time></trkpt><trkpt lat="43.7817512" lon="11.1303835"><ele>35.0</ele><time>2026-04-05T09:50:29.427Z</time></trkpt><trkpt lat="43.7817325" lon="11.1302708"><ele>35.0</ele><time>2026-04-05T09:50:31.426Z</time></trkpt><trkpt lat="43.7817147" lon="11.1301565"><ele>35.0</ele><time>2026-04-05T09:50:33.427Z</time></trkpt><trkpt lat="43.7816987" lon="11.1300407"><ele>35.0</ele><time>2026-04-05T09:50:35.426Z</time></trkpt><trkpt lat="43.7816887" lon="11.1299285"><ele>35.0</ele><time>2026-04-05T09:50:37.427Z</time></trkpt><trkpt lat="43.7816722" lon="11.1298223"><ele>35.0</ele><time>2026-04-05T09:50:39.426Z</time></trkpt><trkpt lat="43.7816467" lon="11.1297155"><ele>35.0</ele><time>2026-04-05T09:50:41.427Z</time></trkpt><trkpt lat="43.781631" lon="11.1296103"><ele>35.0</ele><time>2026-04-05T09:50:43.427Z</time></trkpt><trkpt lat="43.7816174" lon="11.1295036"><ele>35.0</ele><time>2026-04-05T09:50:45.427Z</time></trkpt><trkpt lat="43.7816012" lon="11.1294"><ele>35.0</ele><time>2026-04-05T09:50:47.427Z</time></trkpt><trkpt lat="43.7815854" lon="11.1292958"><ele>35.0</ele><time>2026-04-05T09:50:49.427Z</time></trkpt><trkpt lat="43.7815683" lon="11.1291895"><ele>35.0</ele><time>2026-04-05T09:50:51.426Z</time></trkpt><trkpt lat="43.7815488" lon="11.1290847"><ele>34.83333333333333</ele><time>2026-04-05T09:50:53.427Z</time></trkpt><trkpt lat="43.7815351" lon="11.1289967"><ele>34.666666666666664</ele><time>2026-04-05T09:50:55.426Z</time></trkpt><trkpt lat="43.7815194" lon="11.1288934"><ele>34.5</ele><time>2026-04-05T09:50:57.428Z</time></trkpt><trkpt lat="43.781506" lon="11.1287872"><ele>34.333333333333336</ele><time>2026-04-05T09:50:59.427Z</time></trkpt><trkpt lat="43.7814893" lon="11.1286793"><ele>34.16666666666667</ele><time>2026-04-05T09:51:01.427Z</time></trkpt><trkpt lat="43.7814719" lon="11.1285654"><ele>34.0</ele><time>2026-04-05T09:51:03.427Z</time></trkpt><trkpt lat="43.7814543" lon="11.1284574"><ele>34.0</ele><time>2026-04-05T09:51:05.426Z</time></trkpt><trkpt lat="43.7814403" lon="11.1283497"><ele>34.0</ele><time>2026-04-05T09:51:07.425Z</time></trkpt><trkpt lat="43.7814257" lon="11.1282409"><ele>34.0</ele><time>2026-04-05T09:51:09.427Z</time></trkpt><trkpt lat="43.7814084" lon="11.1281277"><ele>34.0</ele><time>2026-04-05T09:51:11.428Z</time></trkpt><trkpt lat="43.7813937" lon="11.1280118"><ele>34.0</ele><time>2026-04-05T09:51:13.426Z</time></trkpt><trkpt lat="43.7813709" lon="11.1279001"><ele>34.0</ele><time>2026-04-05T09:51:15.428Z</time></trkpt><trkpt lat="43.7813538" lon="11.1277928"><ele>33.833333333333336</ele><time>2026-04-05T09:51:17.428Z</time></trkpt><trkpt lat="43.78134" lon="11.127684"><ele>33.66666666666667</ele><time>2026-04-05T09:51:19.427Z</time></trkpt><trkpt lat="43.7813209" lon="11.1275843"><ele>33.5</ele><time>2026-04-05T09:51:21.426Z</time></trkpt><trkpt lat="43.7813064" lon="11.1274835"><ele>33.333333333333336</ele><time>2026-04-05T09:51:23.426Z</time></trkpt><trkpt lat="43.7812885" lon="11.1273669"><ele>33.166666666666664</ele><time>2026-04-05T09:51:25.426Z</time></trkpt><trkpt lat="43.7812713" lon="11.127262"><ele>33.0</ele><time>2026-04-05T09:51:27.427Z</time></trkpt><trkpt lat="43.7812522" lon="11.1271541"><ele>32.8</ele><time>2026-04-05T09:51:29.427Z</time></trkpt><trkpt lat="43.7812338" lon="11.1270425"><ele>32.599999999999994</ele><time>2026-04-05T09:51:31.427Z</time></trkpt><trkpt lat="43.7812151" lon="11.1269238"><ele>32.400000000000006</ele><time>2026-04-05T09:51:33.427Z</time></trkpt><trkpt lat="43.7811927" lon="11.126788"><ele>32.2</ele><time>2026-04-05T09:51:35.427Z</time></trkpt><trkpt lat="43.781175" lon="11.1266545"><ele>32.0</ele><time>2026-04-05T09:51:37.426Z</time></trkpt><trkpt lat="43.7811586" lon="11.1265398"><ele>31.999999999999996</ele><time>2026-04-05T09:51:39.425Z</time></trkpt><trkpt lat="43.781145" lon="11.126423"><ele>32.0</ele><time>2026-04-05T09:51:41.427Z</time></trkpt><trkpt lat="43.781123" lon="11.1262927"><ele>32.0</ele><time>2026-04-05T09:51:43.426Z</time></trkpt><trkpt lat="43.7811119" lon="11.1261821"><ele>32.0</ele><time>2026-04-05T09:51:45.426Z</time></trkpt><trkpt lat="43.781116" lon="11.1260715"><ele>31.999999999999996</ele><time>2026-04-05T09:51:47.428Z</time></trkpt><trkpt lat="43.7810962" lon="11.1259534"><ele>32.0</ele><time>2026-04-05T09:51:49.426Z</time></trkpt><trkpt lat="43.7810724" lon="11.1258368"><ele>31.999999999999996</ele><time>2026-04-05T09:51:51.427Z</time></trkpt><trkpt lat="43.7810522" lon="11.1257177"><ele>32.0</ele><time>2026-04-05T09:51:53.426Z</time></trkpt><trkpt lat="43.7810322" lon="11.1255999"><ele>32.0</ele><time>2026-04-05T09:51:55.426Z</time></trkpt><trkpt lat="43.7810167" lon="11.1254883"><ele>32.0</ele><time>2026-04-05T09:51:57.427Z</time></trkpt><trkpt lat="43.7809999" lon="11.1253797"><ele>31.999999999999996</ele><time>2026-04-05T09:51:59.427Z</time></trkpt><trkpt lat="43.7809863" lon="11.1252777"><ele>32.0</ele><time>2026-04-05T09:52:01.426Z</time></trkpt><trkpt lat="43.7809661" lon="11.1251757"><ele>32.166666666666664</ele><time>2026-04-05T09:52:03.426Z</time></trkpt><trkpt lat="43.7809407" lon="11.1250684"><ele>32.33333333333333</ele><time>2026-04-05T09:52:05.427Z</time></trkpt><trkpt lat="43.7809147" lon="11.1249588"><ele>32.5</ele><time>2026-04-05T09:52:07.427Z</time></trkpt><trkpt lat="43.7808809" lon="11.124844"><ele>32.666666666666664</ele><time>2026-04-05T09:52:09.428Z</time></trkpt><trkpt lat="43.7808494" lon="11.12474"><ele>32.833333333333336</ele><time>2026-04-05T09:52:11.426Z</time></trkpt><trkpt lat="43.7808186" lon="11.1246252"><ele>33.0</ele><time>2026-04-05T09:52:13.428Z</time></trkpt><trkpt lat="43.7807739" lon="11.1245304"><ele>33.0</ele><time>2026-04-05T09:52:15.426Z</time></trkpt><trkpt lat="43.7807372" lon="11.1244272"><ele>33.0</ele><time>2026-04-05T09:52:17.428Z</time></trkpt><trkpt lat="43.7807051" lon="11.1243266"><ele>33.0</ele><time>2026-04-05T09:52:19.426Z</time></trkpt><trkpt lat="43.7806655" lon="11.1242377"><ele>33.0</ele><time>2026-04-05T09:52:21.426Z</time></trkpt><trkpt lat="43.7806266" lon="11.1241611"><ele>33.0</ele><time>2026-04-05T09:52:23.427Z</time></trkpt><trkpt lat="43.7805785" lon="11.1240805"><ele>33.0</ele><time>2026-04-05T09:52:26.17Z</time></trkpt><trkpt lat="43.7805239" lon="11.1239921"><ele>32.833333333333336</ele><time>2026-04-05T09:52:29.428Z</time></trkpt><trkpt lat="43.7804819" lon="11.1239118"><ele>32.666666666666664</ele><time>2026-04-05T09:52:31.427Z</time></trkpt><trkpt lat="43.7804365" lon="11.1238179"><ele>32.5</ele><time>2026-04-05T09:52:33.428Z</time></trkpt><trkpt lat="43.7803966" lon="11.1237169"><ele>32.33333333333333</ele><time>2026-04-05T09:52:35.427Z</time></trkpt><trkpt lat="43.7803648" lon="11.1236112"><ele>32.166666666666664</ele><time>2026-04-05T09:52:37.426Z</time></trkpt><trkpt lat="43.7803405" lon="11.1235009"><ele>32.0</ele><time>2026-04-05T09:52:39.427Z</time></trkpt><trkpt lat="43.7803172" lon="11.1233913"><ele>31.999999999999996</ele><time>2026-04-05T09:52:41.427Z</time></trkpt><trkpt lat="43.7802954" lon="11.1232809"><ele>32.0</ele><time>2026-04-05T09:52:43.427Z</time></trkpt><trkpt lat="43.7802778" lon="11.1231692"><ele>32.0</ele><time>2026-04-05T09:52:45.426Z</time></trkpt><trkpt lat="43.7802618" lon="11.1230599"><ele>32.0</ele><time>2026-04-05T09:52:47.426Z</time></trkpt><trkpt lat="43.7802465" lon="11.122947"><ele>31.999999999999996</ele><time>2026-04-05T09:52:49.427Z</time></trkpt><trkpt lat="43.7802305" lon="11.1228371"><ele>32.0</ele><time>2026-04-05T09:52:51.426Z</time></trkpt><trkpt lat="43.780215" lon="11.1227257"><ele>31.833333333333332</ele><time>2026-04-05T09:52:53.426Z</time></trkpt><trkpt lat="43.7801961" lon="11.1226136"><ele>31.666666666666664</ele><time>2026-04-05T09:52:55.427Z</time></trkpt><trkpt lat="43.7801758" lon="11.122499"><ele>31.5</ele><time>2026-04-05T09:52:57.426Z</time></trkpt><trkpt lat="43.7801589" lon="11.1223835"><ele>31.333333333333336</ele><time>2026-04-05T09:52:59.427Z</time></trkpt><trkpt lat="43.7801431" lon="11.1222684"><ele>31.166666666666668</ele><time>2026-04-05T09:53:01.426Z</time></trkpt><trkpt lat="43.780126" lon="11.1221504"><ele>31.0</ele><time>2026-04-05T09:53:03.426Z</time></trkpt><trkpt lat="43.7801062" lon="11.1220336"><ele>31.833333333333336</ele><time>2026-04-05T09:53:05.426Z</time></trkpt><trkpt lat="43.7800871" lon="11.1219129"><ele>32.66666666666667</ele><time>2026-04-05T09:53:07.426Z</time></trkpt><trkpt lat="43.7800676" lon="11.1217964"><ele>33.5</ele><time>2026-04-05T09:53:09.426Z</time></trkpt><trkpt lat="43.7800505" lon="11.1216782"><ele>34.333333333333336</ele><time>2026-04-05T09:53:11.427Z</time></trkpt><trkpt lat="43.7800321" lon="11.1215598"><ele>35.166666666666664</ele><time>2026-04-05T09:53:13.427Z</time></trkpt><trkpt lat="43.7800138" lon="11.1214481"><ele>36.0</ele><time>2026-04-05T09:53:15.427Z</time></trkpt><trkpt lat="43.7799964" lon="11.1213317"><ele>36.166666666666664</ele><time>2026-04-05T09:53:17.427Z</time></trkpt><trkpt lat="43.7799759" lon="11.121218"><ele>36.333333333333336</ele><time>2026-04-05T09:53:19.427Z</time></trkpt><trkpt lat="43.7799567" lon="11.1211019"><ele>36.5</ele><time>2026-04-05T09:53:21.427Z</time></trkpt><trkpt lat="43.7799369" lon="11.1209835"><ele>36.66666666666667</ele><time>2026-04-05T09:53:23.427Z</time></trkpt><trkpt lat="43.7799183" lon="11.1208694"><ele>36.833333333333336</ele><time>2026-04-05T09:53:25.426Z</time></trkpt><trkpt lat="43.7799019" lon="11.1207571"><ele>37.0</ele><time>2026-04-05T09:53:27.427Z</time></trkpt><trkpt lat="43.7798855" lon="11.1206489"><ele>37.0</ele><time>2026-04-05T09:53:29.427Z</time></trkpt><trkpt lat="43.7798673" lon="11.1205439"><ele>37.0</ele><time>2026-04-05T09:53:31.427Z</time></trkpt><trkpt lat="43.7798497" lon="11.1204316"><ele>37.0</ele><time>2026-04-05T09:53:33.426Z</time></trkpt><trkpt lat="43.7798324" lon="11.1203193"><ele>37.0</ele><time>2026-04-05T09:53:35.426Z</time></trkpt><trkpt lat="43.7798154" lon="11.1202023"><ele>37.0</ele><time>2026-04-05T09:53:37.426Z</time></trkpt><trkpt lat="43.779796" lon="11.1200823"><ele>37.0</ele><time>2026-04-05T09:53:39.426Z</time></trkpt><trkpt lat="43.7797709" lon="11.1199537"><ele>36.833333333333336</ele><time>2026-04-05T09:53:41.427Z</time></trkpt><trkpt lat="43.7797524" lon="11.1198436"><ele>36.66666666666667</ele><time>2026-04-05T09:53:43.426Z</time></trkpt><trkpt lat="43.7797419" lon="11.1197127"><ele>36.5</ele><time>2026-04-05T09:53:45.425Z</time></trkpt><trkpt lat="43.7797236" lon="11.119594"><ele>36.333333333333336</ele><time>2026-04-05T09:53:47.426Z</time></trkpt><trkpt lat="43.7797089" lon="11.1194638"><ele>36.166666666666664</ele><time>2026-04-05T09:53:49.426Z</time></trkpt><trkpt lat="43.7796877" lon="11.1193463"><ele>36.0</ele><time>2026-04-05T09:53:51.426Z</time></trkpt><trkpt lat="43.7796666" lon="11.1192253"><ele>36.0</ele><time>2026-04-05T09:53:53.427Z</time></trkpt><trkpt lat="43.7796566" lon="11.1191043"><ele>36.0</ele><time>2026-04-05T09:53:55.426Z</time></trkpt><trkpt lat="43.7796354" lon="11.1189933"><ele>36.0</ele><time>2026-04-05T09:53:57.426Z</time></trkpt><trkpt lat="43.7796149" lon="11.1188748"><ele>36.0</ele><time>2026-04-05T09:53:59.427Z</time></trkpt><trkpt lat="43.7795919" lon="11.118758"><ele>36.0</ele><time>2026-04-05T09:54:01.427Z</time></trkpt><trkpt lat="43.7795719" lon="11.1186357"><ele>36.0</ele><time>2026-04-05T09:54:03.426Z</time></trkpt><trkpt lat="43.7795532" lon="11.1185239"><ele>36.166666666666664</ele><time>2026-04-05T09:54:05.427Z</time></trkpt><trkpt lat="43.7795345" lon="11.1184055"><ele>36.333333333333336</ele><time>2026-04-05T09:54:07.426Z</time></trkpt><trkpt lat="43.7795184" lon="11.1182966"><ele>36.5</ele><time>2026-04-05T09:54:09.427Z</time></trkpt><trkpt lat="43.7794971" lon="11.1181783"><ele>36.66666666666667</ele><time>2026-04-05T09:54:11.427Z</time></trkpt><trkpt lat="43.7794805" lon="11.1180528"><ele>36.833333333333336</ele><time>2026-04-05T09:54:13.426Z</time></trkpt><trkpt lat="43.7794725" lon="11.1179319"><ele>37.0</ele><time>2026-04-05T09:54:15.426Z</time></trkpt><trkpt lat="43.7794528" lon="11.1178107"><ele>37.0</ele><time>2026-04-05T09:54:17.426Z</time></trkpt><trkpt lat="43.7794299" lon="11.117698"><ele>37.0</ele><time>2026-04-05T09:54:19.426Z</time></trkpt><trkpt lat="43.7794032" lon="11.1175779"><ele>37.0</ele><time>2026-04-05T09:54:21.426Z</time></trkpt><trkpt lat="43.7793912" lon="11.11747"><ele>37.0</ele><time>2026-04-05T09:54:23.427Z</time></trkpt><trkpt lat="43.7793729" lon="11.1173559"><ele>37.0</ele><time>2026-04-05T09:54:25.427Z</time></trkpt><trkpt lat="43.7793533" lon="11.1172453"><ele>37.0</ele><time>2026-04-05T09:54:27.425Z</time></trkpt><trkpt lat="43.7793397" lon="11.1171396"><ele>37.16666666666667</ele><time>2026-04-05T09:54:29.425Z</time></trkpt><trkpt lat="43.7793224" lon="11.1170426"><ele>37.333333333333336</ele><time>2026-04-05T09:54:31.427Z</time></trkpt><trkpt lat="43.7792841" lon="11.1169392"><ele>37.5</ele><time>2026-04-05T09:54:34.426Z</time></trkpt><trkpt lat="43.7792269" lon="11.1168894"><ele>37.666666666666664</ele><time>2026-04-05T09:54:38.426Z</time></trkpt><trkpt lat="43.7791677" lon="11.1169493"><ele>37.83333333333333</ele><time>2026-04-05T09:54:41.426Z</time></trkpt><trkpt lat="43.7791155" lon="11.1170532"><ele>38.0</ele><time>2026-04-05T09:54:43.427Z</time></trkpt><trkpt lat="43.7790488" lon="11.117146"><ele>38.0</ele><time>2026-04-05T09:54:45.426Z</time></trkpt><trkpt lat="43.7789881" lon="11.1172163"><ele>38.0</ele><time>2026-04-05T09:54:47.425Z</time></trkpt><trkpt lat="43.7788955" lon="11.117243"><ele>38.0</ele><time>2026-04-05T09:54:49.425Z</time></trkpt><trkpt lat="43.7788126" lon="11.1172922"><ele>38.0</ele><time>2026-04-05T09:54:51.425Z</time></trkpt><trkpt lat="43.7787536" lon="11.1173683"><ele>38.0</ele><time>2026-04-05T09:54:53.426Z</time></trkpt><trkpt lat="43.7786989" lon="11.1174418"><ele>38.0</ele><time>2026-04-05T09:54:55.426Z</time></trkpt><trkpt lat="43.7786637" lon="11.1175309"><ele>37.714285714285715</ele><time>2026-04-05T09:54:57.426Z</time></trkpt><trkpt lat="43.778614" lon="11.1176371"><ele>37.42857142857143</ele><time>2026-04-05T09:55:00.426Z</time></trkpt><trkpt lat="43.7785515" lon="11.1177033"><ele>37.142857142857146</ele><time>2026-04-05T09:55:02.427Z</time></trkpt><trkpt lat="43.7785057" lon="11.1177678"><ele>36.85714285714286</ele><time>2026-04-05T09:55:04.427Z</time></trkpt><trkpt lat="43.7784618" lon="11.1178363"><ele>36.57142857142857</ele><time>2026-04-05T09:55:06.426Z</time></trkpt><trkpt lat="43.7784169" lon="11.1179067"><ele>36.28571428571429</ele><time>2026-04-05T09:55:08.426Z</time></trkpt><trkpt lat="43.7783742" lon="11.1179756"><ele>36.0</ele><time>2026-04-05T09:55:10.427Z</time></trkpt><trkpt lat="43.7783302" lon="11.1180482"><ele>35.57142857142858</ele><time>2026-04-05T09:55:12.426Z</time></trkpt><trkpt lat="43.7782882" lon="11.1181199"><ele>35.142857142857146</ele><time>2026-04-05T09:55:14.425Z</time></trkpt><trkpt lat="43.7782403" lon="11.1181898"><ele>34.714285714285715</ele><time>2026-04-05T09:55:16.427Z</time></trkpt><trkpt lat="43.7781923" lon="11.11826"><ele>34.28571428571429</ele><time>2026-04-05T09:55:18.426Z</time></trkpt><trkpt lat="43.7781441" lon="11.1183297"><ele>33.85714285714286</ele><time>2026-04-05T09:55:20.426Z</time></trkpt><trkpt lat="43.778096" lon="11.1184003"><ele>33.42857142857143</ele><time>2026-04-05T09:55:22.426Z</time></trkpt><trkpt lat="43.7780547" lon="11.1184753"><ele>33.0</ele><time>2026-04-05T09:55:24.427Z</time></trkpt><trkpt lat="43.7780079" lon="11.1185465"><ele>32.714285714285715</ele><time>2026-04-05T09:55:26.427Z</time></trkpt><trkpt lat="43.7779596" lon="11.1186215"><ele>32.42857142857143</ele><time>2026-04-05T09:55:28.425Z</time></trkpt><trkpt lat="43.7779037" lon="11.1186944"><ele>32.142857142857146</ele><time>2026-04-05T09:55:30.426Z</time></trkpt><trkpt lat="43.777855" lon="11.1187684"><ele>31.857142857142858</ele><time>2026-04-05T09:55:32.427Z</time></trkpt><trkpt lat="43.7778105" lon="11.1188471"><ele>31.571428571428577</ele><time>2026-04-05T09:55:34.425Z</time></trkpt><trkpt lat="43.7777628" lon="11.1189219"><ele>31.28571428571429</ele><time>2026-04-05T09:55:36.426Z</time></trkpt><trkpt lat="43.7777171" lon="11.1189888"><ele>31.0</ele><time>2026-04-05T09:55:38.426Z</time></trkpt><trkpt lat="43.7776724" lon="11.119063"><ele>31.142857142857146</ele><time>2026-04-05T09:55:40.426Z</time></trkpt><trkpt lat="43.7776301" lon="11.1191396"><ele>31.28571428571429</ele><time>2026-04-05T09:55:42.426Z</time></trkpt><trkpt lat="43.7775851" lon="11.1192148"><ele>31.42857142857143</ele><time>2026-04-05T09:55:44.427Z</time></trkpt><trkpt lat="43.7775329" lon="11.1192853"><ele>31.57142857142857</ele><time>2026-04-05T09:55:46.425Z</time></trkpt><trkpt lat="43.7774842" lon="11.1193537"><ele>31.71428571428571</ele><time>2026-04-05T09:55:48.425Z</time></trkpt><trkpt lat="43.7774369" lon="11.1194184"><ele>31.857142857142854</ele><time>2026-04-05T09:55:50.425Z</time></trkpt><trkpt lat="43.7773872" lon="11.1194857"><ele>32.0</ele><time>2026-04-05T09:55:52.426Z</time></trkpt><trkpt lat="43.7773381" lon="11.1195556"><ele>32.0</ele><time>2026-04-05T09:55:54.426Z</time></trkpt><trkpt lat="43.7772943" lon="11.1196278"><ele>31.999999999999996</ele><time>2026-04-05T09:55:56.427Z</time></trkpt><trkpt lat="43.7772386" lon="11.1196705"><ele>32.0</ele><time>2026-04-05T09:55:58.426Z</time></trkpt><trkpt lat="43.7771523" lon="11.1196202"><ele>32.0</ele><time>2026-04-05T09:56:01.425Z</time></trkpt><trkpt lat="43.7770938" lon="11.1195594"><ele>31.999999999999996</ele><time>2026-04-05T09:56:03.425Z</time></trkpt><trkpt lat="43.7770299" lon="11.1195066"><ele>32.0</ele><time>2026-04-05T09:56:05.426Z</time></trkpt><trkpt lat="43.776966" lon="11.1194523"><ele>32.0</ele><time>2026-04-05T09:56:07.425Z</time></trkpt><trkpt lat="43.7769084" lon="11.1193877"><ele>32.166666666666664</ele><time>2026-04-05T09:56:09.426Z</time></trkpt><trkpt lat="43.7768502" lon="11.1193195"><ele>32.33333333333333</ele><time>2026-04-05T09:56:11.426Z</time></trkpt><trkpt lat="43.7767851" lon="11.1192536"><ele>32.5</ele><time>2026-04-05T09:56:13.427Z</time></trkpt><trkpt lat="43.7767231" lon="11.1191943"><ele>32.666666666666664</ele><time>2026-04-05T09:56:15.427Z</time></trkpt><trkpt lat="43.7766594" lon="11.1191346"><ele>32.833333333333336</ele><time>2026-04-05T09:56:17.426Z</time></trkpt><trkpt lat="43.7765907" lon="11.119091"><ele>33.0</ele><time>2026-04-05T09:56:19.427Z</time></trkpt><trkpt lat="43.7765174" lon="11.1190601"><ele>33.0</ele><time>2026-04-05T09:56:21.425Z</time></trkpt><trkpt lat="43.776444" lon="11.1190556"><ele>33.0</ele><time>2026-04-05T09:56:23.425Z</time></trkpt><trkpt lat="43.7763724" lon="11.1190656"><ele>33.0</ele><time>2026-04-05T09:56:25.425Z</time></trkpt><trkpt lat="43.7762988" lon="11.1190779"><ele>33.0</ele><time>2026-04-05T09:56:27.425Z</time></trkpt><trkpt lat="43.7762249" lon="11.1190832"><ele>33.0</ele><time>2026-04-05T09:56:29.425Z</time></trkpt><trkpt lat="43.7761511" lon="11.1190853"><ele>33.0</ele><time>2026-04-05T09:56:31.426Z</time></trkpt><trkpt lat="43.7760853" lon="11.1190844"><ele>33.0</ele><time>2026-04-05T09:56:33.427Z</time></trkpt><trkpt lat="43.7759902" lon="11.1190919"><ele>33.14285714285714</ele><time>2026-04-05T09:56:36.425Z</time></trkpt><trkpt lat="43.775929" lon="11.1191125"><ele>33.285714285714285</ele><time>2026-04-05T09:56:38.426Z</time></trkpt><trkpt lat="43.7758671" lon="11.1191302"><ele>33.42857142857143</ele><time>2026-04-05T09:56:40.426Z</time></trkpt><trkpt lat="43.7757899" lon="11.1191204"><ele>33.57142857142857</ele><time>2026-04-05T09:56:42.427Z</time></trkpt><trkpt lat="43.7757064" lon="11.1191179"><ele>33.714285714285715</ele><time>2026-04-05T09:56:44.427Z</time></trkpt><trkpt lat="43.775627" lon="11.1191098"><ele>33.857142857142854</ele><time>2026-04-05T09:56:46.425Z</time></trkpt><trkpt lat="43.7755537" lon="11.1191075"><ele>34.0</ele><time>2026-04-05T09:56:48.426Z</time></trkpt><trkpt lat="43.7754908" lon="11.1191194"><ele>34.0</ele><time>2026-04-05T09:56:50.425Z</time></trkpt><trkpt lat="43.7754102" lon="11.1191839"><ele>34.0</ele><time>2026-04-05T09:56:53.426Z</time></trkpt><trkpt lat="43.7753614" lon="11.1192456"><ele>34.0</ele><time>2026-04-05T09:56:55.426Z</time></trkpt><trkpt lat="43.7753118" lon="11.1193139"><ele>34.0</ele><time>2026-04-05T09:56:57.426Z</time></trkpt><trkpt lat="43.7752619" lon="11.1193815"><ele>34.0</ele><time>2026-04-05T09:56:59.426Z</time></trkpt><trkpt lat="43.7752146" lon="11.1194493"><ele>34.0</ele><time>2026-04-05T09:57:01.426Z</time></trkpt><trkpt lat="43.7751463" lon="11.1195263"><ele>33.99999999999999</ele><time>2026-04-05T09:57:04.426Z</time></trkpt><trkpt lat="43.7750748" lon="11.1195291"><ele>34.0</ele><time>2026-04-05T09:57:07.427Z</time></trkpt><trkpt lat="43.7750064" lon="11.1194704"><ele>34.0</ele><time>2026-04-05T09:57:11.427Z</time></trkpt><trkpt lat="43.7749574" lon="11.1194145"><ele>34.0</ele><time>2026-04-05T09:57:14.426Z</time></trkpt><trkpt lat="43.7749017" lon="11.1193619"><ele>34.0</ele><time>2026-04-05T09:57:17.425Z</time></trkpt><trkpt lat="43.7748445" lon="11.1192994"><ele>33.99999999999999</ele><time>2026-04-05T09:57:22.426Z</time></trkpt><trkpt lat="43.7748912" lon="11.1193752"><ele>34.0</ele><time>2026-04-05T09:57:35.425Z</time></trkpt><trkpt lat="43.774856" lon="11.1194564"><ele>34.0</ele><time>2026-04-05T09:57:39.426Z</time></trkpt><trkpt lat="43.7747866" lon="11.1194681"><ele>34.0</ele><time>2026-04-05T09:57:44.425Z</time></trkpt><trkpt lat="43.7747099" lon="11.1194411"><ele>34.0</ele><time>2026-04-05T09:58:41.426Z</time></trkpt><trkpt lat="43.7746411" lon="11.1193745"><ele>34.0</ele><time>2026-04-05T09:58:44.426Z</time></trkpt><trkpt lat="43.7745769" lon="11.1193112"><ele>34.0</ele><time>2026-04-05T09:58:47.426Z</time></trkpt><trkpt lat="43.7745299" lon="11.1192385"><ele>34.0</ele><time>2026-04-05T09:58:50.425Z</time></trkpt><trkpt lat="43.7745683" lon="11.1191324"><ele>34.0</ele><time>2026-04-05T09:58:54.425Z</time></trkpt><trkpt lat="43.7746234" lon="11.1190687"><ele>34.0</ele><time>2026-04-05T09:58:57.425Z</time></trkpt><trkpt lat="43.7746916" lon="11.1191282"><ele>34.0</ele><time>2026-04-05T09:59:00.424Z</time></trkpt><trkpt lat="43.7747341" lon="11.1191985"><ele>34.0</ele><time>2026-04-05T09:59:02.425Z</time></trkpt><trkpt lat="43.7747909" lon="11.1192679"><ele>34.0</ele><time>2026-04-05T09:59:04.425Z</time></trkpt><trkpt lat="43.7748556" lon="11.1193336"><ele>34.0</ele><time>2026-04-05T09:59:06.425Z</time></trkpt><trkpt lat="43.7749191" lon="11.119395"><ele>34.0</ele><time>2026-04-05T09:59:08.425Z</time></trkpt><trkpt lat="43.7749918" lon="11.1194701"><ele>34.0</ele><time>2026-04-05T09:59:11.426Z</time></trkpt><trkpt lat="43.7750595" lon="11.1195342"><ele>34.0</ele><time>2026-04-05T09:59:14.425Z</time></trkpt><trkpt lat="43.7751156" lon="11.1195903"><ele>34.0</ele><time>2026-04-05T09:59:19.426Z</time></trkpt><trkpt lat="43.7750383" lon="11.119587"><ele>34.0</ele><time>2026-04-05T10:05:24.423Z</time></trkpt><trkpt lat="43.7749761" lon="11.1196519"><ele>34.0</ele><time>2026-04-05T10:05:27.424Z</time></trkpt><trkpt lat="43.7749174" lon="11.119711"><ele>33.99999999999999</ele><time>2026-04-05T10:05:31.424Z</time></trkpt><trkpt lat="43.7748709" lon="11.1197766"><ele>34.0</ele><time>2026-04-05T10:05:35.423Z</time></trkpt><trkpt lat="43.7748091" lon="11.1198142"><ele>34.0</ele><time>2026-04-05T10:06:00.423Z</time></trkpt><trkpt lat="43.7748737" lon="11.1197633"><ele>34.0</ele><time>2026-04-05T10:24:10.42Z</time></trkpt><trkpt lat="43.774933" lon="11.1197339"><ele>34.0</ele><time>2026-04-05T10:24:14.42Z</time></trkpt><trkpt lat="43.7749913" lon="11.1196648"><ele>33.99999999999999</ele><time>2026-04-05T10:24:19.42Z</time></trkpt><trkpt lat="43.7750579" lon="11.1195997"><ele>34.0</ele><time>2026-04-05T10:24:24.42Z</time></trkpt><trkpt lat="43.7751231" lon="11.1195625"><ele>34.0</ele><time>2026-04-05T10:24:27.421Z</time></trkpt><trkpt lat="43.77518" lon="11.1195248"><ele>34.0</ele><time>2026-04-05T10:24:30.42Z</time></trkpt><trkpt lat="43.7752374" lon="11.1194562"><ele>34.0</ele><time>2026-04-05T10:24:34.42Z</time></trkpt><trkpt lat="43.7753023" lon="11.1193867"><ele>34.0</ele><time>2026-04-05T10:24:37.42Z</time></trkpt><trkpt lat="43.7753718" lon="11.1193085"><ele>34.0</ele><time>2026-04-05T10:24:40.42Z</time></trkpt><trkpt lat="43.7754258" lon="11.1192191"><ele>34.0</ele><time>2026-04-05T10:24:43.42Z</time></trkpt><trkpt lat="43.775484" lon="11.119141"><ele>34.0</ele><time>2026-04-05T10:24:46.42Z</time></trkpt><trkpt lat="43.7755691" lon="11.1191015"><ele>34.0</ele><time>2026-04-05T10:24:49.42Z</time></trkpt><trkpt lat="43.7756574" lon="11.1191041"><ele>34.0</ele><time>2026-04-05T10:24:52.42Z</time></trkpt><trkpt lat="43.7757429" lon="11.1191066"><ele>34.0</ele><time>2026-04-05T10:24:55.419Z</time></trkpt><trkpt lat="43.7758068" lon="11.1191073"><ele>34.0</ele><time>2026-04-05T10:24:57.42Z</time></trkpt><trkpt lat="43.7758737" lon="11.1191109"><ele>34.0</ele><time>2026-04-05T10:24:59.421Z</time></trkpt><trkpt lat="43.7759442" lon="11.1191191"><ele>34.0</ele><time>2026-04-05T10:25:01.42Z</time></trkpt><trkpt lat="43.7760136" lon="11.1191278"><ele>34.0</ele><time>2026-04-05T10:25:03.421Z</time></trkpt><trkpt lat="43.7760851" lon="11.1191382"><ele>34.0</ele><time>2026-04-05T10:25:05.421Z</time></trkpt><trkpt lat="43.7761486" lon="11.1191477"><ele>34.0</ele><time>2026-04-05T10:25:07.421Z</time></trkpt><trkpt lat="43.7762408" lon="11.1191391"><ele>34.0</ele><time>2026-04-05T10:25:10.421Z</time></trkpt><trkpt lat="43.7763217" lon="11.1191208"><ele>34.0</ele><time>2026-04-05T10:25:13.42Z</time></trkpt><trkpt lat="43.7764087" lon="11.119108"><ele>33.833333333333336</ele><time>2026-04-05T10:25:16.421Z</time></trkpt><trkpt lat="43.7764845" lon="11.1191042"><ele>33.66666666666667</ele><time>2026-04-05T10:25:19.42Z</time></trkpt><trkpt lat="43.7765557" lon="11.1191069"><ele>33.5</ele><time>2026-04-05T10:25:22.419Z</time></trkpt><trkpt lat="43.7766361" lon="11.1191223"><ele>33.333333333333336</ele><time>2026-04-05T10:25:25.419Z</time></trkpt><trkpt lat="43.7767131" lon="11.1191797"><ele>33.166666666666664</ele><time>2026-04-05T10:25:28.421Z</time></trkpt><trkpt lat="43.7767801" lon="11.1192507"><ele>33.0</ele><time>2026-04-05T10:25:31.42Z</time></trkpt><trkpt lat="43.7768367" lon="11.1193145"><ele>32.833333333333336</ele><time>2026-04-05T10:25:34.42Z</time></trkpt><trkpt lat="43.7769034" lon="11.1193873"><ele>32.666666666666664</ele><time>2026-04-05T10:25:37.421Z</time></trkpt><trkpt lat="43.7769712" lon="11.1194519"><ele>32.5</ele><time>2026-04-05T10:25:40.419Z</time></trkpt><trkpt lat="43.7770432" lon="11.1195194"><ele>32.33333333333333</ele><time>2026-04-05T10:25:43.42Z</time></trkpt><trkpt lat="43.7771136" lon="11.119581"><ele>32.166666666666664</ele><time>2026-04-05T10:25:46.421Z</time></trkpt><trkpt lat="43.7771715" lon="11.1196331"><ele>32.0</ele><time>2026-04-05T10:25:49.421Z</time></trkpt><trkpt lat="43.7772287" lon="11.1196714"><ele>31.999999999999996</ele><time>2026-04-05T10:25:52.421Z</time></trkpt><trkpt lat="43.7773038" lon="11.1196489"><ele>32.0</ele><time>2026-04-05T10:25:55.42Z</time></trkpt><trkpt lat="43.7773683" lon="11.1195537"><ele>32.0</ele><time>2026-04-05T10:25:58.421Z</time></trkpt><trkpt lat="43.7774094" lon="11.1194817"><ele>32.0</ele><time>2026-04-05T10:26:00.42Z</time></trkpt><trkpt lat="43.7774539" lon="11.1194082"><ele>31.999999999999996</ele><time>2026-04-05T10:26:02.42Z</time></trkpt><trkpt lat="43.7775155" lon="11.1193132"><ele>32.0</ele><time>2026-04-05T10:26:05.42Z</time></trkpt><trkpt lat="43.7775746" lon="11.1192229"><ele>32.0</ele><time>2026-04-05T10:26:08.42Z</time></trkpt><trkpt lat="43.7776302" lon="11.1191402"><ele>31.999999999999996</ele><time>2026-04-05T10:26:11.421Z</time></trkpt><trkpt lat="43.7776818" lon="11.1190705"><ele>32.0</ele><time>2026-04-05T10:26:14.421Z</time></trkpt><trkpt lat="43.7777246" lon="11.1190065"><ele>32.0</ele><time>2026-04-05T10:26:17.421Z</time></trkpt><trkpt lat="43.7777642" lon="11.1189172"><ele>31.999999999999996</ele><time>2026-04-05T10:26:22.42Z</time></trkpt><trkpt lat="43.7778009" lon="11.1188408"><ele>32.0</ele><time>2026-04-05T10:26:26.42Z</time></trkpt><trkpt lat="43.7778631" lon="11.1187577"><ele>32.0</ele><time>2026-04-05T10:26:29.419Z</time></trkpt><trkpt lat="43.7779094" lon="11.1186607"><ele>31.833333333333332</ele><time>2026-04-05T10:26:32.419Z</time></trkpt><trkpt lat="43.7779709" lon="11.1185806"><ele>31.666666666666664</ele><time>2026-04-05T10:26:35.42Z</time></trkpt><trkpt lat="43.7780202" lon="11.1184844"><ele>31.5</ele><time>2026-04-05T10:26:38.42Z</time></trkpt><trkpt lat="43.7780774" lon="11.1183988"><ele>31.333333333333336</ele><time>2026-04-05T10:26:41.419Z</time></trkpt><trkpt lat="43.7781284" lon="11.1183072"><ele>31.166666666666668</ele><time>2026-04-05T10:26:44.421Z</time></trkpt><trkpt lat="43.7781908" lon="11.1182225"><ele>31.0</ele><time>2026-04-05T10:26:47.419Z</time></trkpt><trkpt lat="43.7782532" lon="11.1181467"><ele>31.333333333333336</ele><time>2026-04-05T10:26:50.421Z</time></trkpt><trkpt lat="43.7783089" lon="11.1180605"><ele>31.666666666666668</ele><time>2026-04-05T10:26:53.42Z</time></trkpt><trkpt lat="43.7783648" lon="11.117982"><ele>32.0</ele><time>2026-04-05T10:26:56.419Z</time></trkpt><trkpt lat="43.7784218" lon="11.1179059"><ele>32.333333333333336</ele><time>2026-04-05T10:26:59.42Z</time></trkpt><trkpt lat="43.778485" lon="11.1178156"><ele>32.666666666666664</ele><time>2026-04-05T10:27:02.42Z</time></trkpt><trkpt lat="43.7785438" lon="11.1177256"><ele>33.0</ele><time>2026-04-05T10:27:05.419Z</time></trkpt><trkpt lat="43.7785994" lon="11.117632"><ele>33.5</ele><time>2026-04-05T10:27:08.419Z</time></trkpt><trkpt lat="43.7786609" lon="11.1175328"><ele>34.0</ele><time>2026-04-05T10:27:11.42Z</time></trkpt><trkpt lat="43.7787117" lon="11.1174418"><ele>34.5</ele><time>2026-04-05T10:27:14.42Z</time></trkpt><trkpt lat="43.7787574" lon="11.1173682"><ele>35.0</ele><time>2026-04-05T10:27:17.42Z</time></trkpt><trkpt lat="43.7788073" lon="11.1172918"><ele>35.5</ele><time>2026-04-05T10:27:20.419Z</time></trkpt><trkpt lat="43.7788691" lon="11.1172236"><ele>36.0</ele><time>2026-04-05T10:27:23.42Z</time></trkpt><trkpt lat="43.7789489" lon="11.1172314"><ele>36.333333333333336</ele><time>2026-04-05T10:27:26.42Z</time></trkpt><trkpt lat="43.7790204" lon="11.1171921"><ele>36.666666666666664</ele><time>2026-04-05T10:27:29.421Z</time></trkpt><trkpt lat="43.7790824" lon="11.1170934"><ele>37.0</ele><time>2026-04-05T10:27:32.421Z</time></trkpt><trkpt lat="43.7791426" lon="11.117007"><ele>37.33333333333333</ele><time>2026-04-05T10:27:35.42Z</time></trkpt><trkpt lat="43.7791895" lon="11.1169218"><ele>37.666666666666664</ele><time>2026-04-05T10:27:38.419Z</time></trkpt><trkpt lat="43.7792353" lon="11.1168588"><ele>38.0</ele><time>2026-04-05T10:27:43.42Z</time></trkpt><trkpt lat="43.7792676" lon="11.1167816"><ele>38.0</ele><time>2026-04-05T10:27:46.42Z</time></trkpt><trkpt lat="43.7793085" lon="11.1167056"><ele>38.0</ele><time>2026-04-05T10:27:48.419Z</time></trkpt><trkpt lat="43.779374" lon="11.1166341"><ele>38.0</ele><time>2026-04-05T10:27:51.42Z</time></trkpt><trkpt lat="43.7794591" lon="11.116665"><ele>38.0</ele><time>2026-04-05T10:27:54.42Z</time></trkpt><trkpt lat="43.7794764" lon="11.1167622"><ele>38.0</ele><time>2026-04-05T10:27:56.42Z</time></trkpt><trkpt lat="43.7794347" lon="11.1168425"><ele>38.0</ele><time>2026-04-05T10:27:58.42Z</time></trkpt><trkpt lat="43.7793778" lon="11.1169234"><ele>37.83333333333333</ele><time>2026-04-05T10:28:00.419Z</time></trkpt><trkpt lat="43.7793612" lon="11.1170227"><ele>37.666666666666664</ele><time>2026-04-05T10:28:02.421Z</time></trkpt><trkpt lat="43.779385" lon="11.1171218"><ele>37.5</ele><time>2026-04-05T10:28:04.419Z</time></trkpt><trkpt lat="43.7794062" lon="11.1172217"><ele>37.333333333333336</ele><time>2026-04-05T10:28:06.419Z</time></trkpt><trkpt lat="43.7794247" lon="11.117326"><ele>37.16666666666667</ele><time>2026-04-05T10:28:08.42Z</time></trkpt><trkpt lat="43.7794431" lon="11.1174294"><ele>37.0</ele><time>2026-04-05T10:28:10.42Z</time></trkpt><trkpt lat="43.7794649" lon="11.1175249"><ele>37.0</ele><time>2026-04-05T10:28:12.419Z</time></trkpt><trkpt lat="43.7794925" lon="11.1176174"><ele>37.0</ele><time>2026-04-05T10:28:14.421Z</time></trkpt><trkpt lat="43.7795122" lon="11.1177127"><ele>37.0</ele><time>2026-04-05T10:28:16.42Z</time></trkpt><trkpt lat="43.7795119" lon="11.1178284"><ele>37.0</ele><time>2026-04-05T10:28:18.42Z</time></trkpt><trkpt lat="43.7795018" lon="11.1179201"><ele>37.0</ele><time>2026-04-05T10:28:20.419Z</time></trkpt><trkpt lat="43.779494" lon="11.1180317"><ele>37.0</ele><time>2026-04-05T10:28:23.42Z</time></trkpt><trkpt lat="43.7795105" lon="11.1181228"><ele>37.0</ele><time>2026-04-05T10:28:25.419Z</time></trkpt><trkpt lat="43.7795317" lon="11.1182195"><ele>37.0</ele><time>2026-04-05T10:28:27.419Z</time></trkpt><trkpt lat="43.7795496" lon="11.1183233"><ele>37.0</ele><time>2026-04-05T10:28:29.421Z</time></trkpt><trkpt lat="43.7795652" lon="11.1184287"><ele>37.0</ele><time>2026-04-05T10:28:31.42Z</time></trkpt><trkpt lat="43.7795802" lon="11.1185315"><ele>37.0</ele><time>2026-04-05T10:28:33.419Z</time></trkpt><trkpt lat="43.7795959" lon="11.1186277"><ele>37.0</ele><time>2026-04-05T10:28:35.419Z</time></trkpt><trkpt lat="43.7796122" lon="11.1187222"><ele>37.0</ele><time>2026-04-05T10:28:37.421Z</time></trkpt><trkpt lat="43.7796257" lon="11.1188166"><ele>37.0</ele><time>2026-04-05T10:28:39.42Z</time></trkpt><trkpt lat="43.7796397" lon="11.1189136"><ele>37.0</ele><time>2026-04-05T10:28:41.419Z</time></trkpt><trkpt lat="43.7796561" lon="11.1190119"><ele>37.0</ele><time>2026-04-05T10:28:43.42Z</time></trkpt><trkpt lat="43.7796754" lon="11.1191123"><ele>37.0</ele><time>2026-04-05T10:28:45.42Z</time></trkpt><trkpt lat="43.779695" lon="11.1192144"><ele>37.0</ele><time>2026-04-05T10:28:47.42Z</time></trkpt><trkpt lat="43.7797118" lon="11.1193173"><ele>37.0</ele><time>2026-04-05T10:28:49.42Z</time></trkpt><trkpt lat="43.7797251" lon="11.1194214"><ele>37.0</ele><time>2026-04-05T10:28:51.42Z</time></trkpt><trkpt lat="43.7797412" lon="11.1195283"><ele>37.0</ele><time>2026-04-05T10:28:53.419Z</time></trkpt><trkpt lat="43.7797598" lon="11.1196298"><ele>37.0</ele><time>2026-04-05T10:28:55.421Z</time></trkpt><trkpt lat="43.7797752" lon="11.1197372"><ele>37.0</ele><time>2026-04-05T10:28:57.419Z</time></trkpt><trkpt lat="43.7797868" lon="11.1198403"><ele>37.0</ele><time>2026-04-05T10:28:59.419Z</time></trkpt><trkpt lat="43.7798014" lon="11.1199433"><ele>37.0</ele><time>2026-04-05T10:29:01.418Z</time></trkpt><trkpt lat="43.7798148" lon="11.1200482"><ele>37.0</ele><time>2026-04-05T10:29:03.421Z</time></trkpt><trkpt lat="43.7798299" lon="11.1201476"><ele>37.0</ele><time>2026-04-05T10:29:05.42Z</time></trkpt><trkpt lat="43.7798455" lon="11.1202458"><ele>37.0</ele><time>2026-04-05T10:29:07.42Z</time></trkpt><trkpt lat="43.7798632" lon="11.120346"><ele>37.0</ele><time>2026-04-05T10:29:09.419Z</time></trkpt><trkpt lat="43.7798806" lon="11.1204472"><ele>37.0</ele><time>2026-04-05T10:29:11.42Z</time></trkpt><trkpt lat="43.7798978" lon="11.1205467"><ele>37.0</ele><time>2026-04-05T10:29:13.419Z</time></trkpt><trkpt lat="43.7799163" lon="11.1206484"><ele>37.0</ele><time>2026-04-05T10:29:15.419Z</time></trkpt><trkpt lat="43.7799371" lon="11.1207549"><ele>37.16666666666667</ele><time>2026-04-05T10:29:17.42Z</time></trkpt><trkpt lat="43.7799617" lon="11.1208648"><ele>37.333333333333336</ele><time>2026-04-05T10:29:19.42Z</time></trkpt><trkpt lat="43.7799836" lon="11.120973"><ele>37.5</ele><time>2026-04-05T10:29:21.42Z</time></trkpt><trkpt lat="43.7800031" lon="11.1210783"><ele>37.666666666666664</ele><time>2026-04-05T10:29:23.419Z</time></trkpt><trkpt lat="43.7800216" lon="11.1211831"><ele>37.83333333333333</ele><time>2026-04-05T10:29:25.42Z</time></trkpt><trkpt lat="43.7800401" lon="11.1212848"><ele>38.0</ele><time>2026-04-05T10:29:27.419Z</time></trkpt><trkpt lat="43.7800551" lon="11.1213846"><ele>38.0</ele><time>2026-04-05T10:29:29.419Z</time></trkpt><trkpt lat="43.7800717" lon="11.1214839"><ele>38.0</ele><time>2026-04-05T10:29:31.42Z</time></trkpt><trkpt lat="43.7800928" lon="11.1215902"><ele>38.0</ele><time>2026-04-05T10:29:33.42Z</time></trkpt><trkpt lat="43.780111" lon="11.1216953"><ele>38.0</ele><time>2026-04-05T10:29:35.419Z</time></trkpt><trkpt lat="43.780126" lon="11.1217999"><ele>38.0</ele><time>2026-04-05T10:29:37.419Z</time></trkpt><trkpt lat="43.7801433" lon="11.1219085"><ele>38.0</ele><time>2026-04-05T10:29:39.42Z</time></trkpt><trkpt lat="43.7801647" lon="11.1220175"><ele>37.666666666666664</ele><time>2026-04-05T10:29:41.419Z</time></trkpt><trkpt lat="43.7801805" lon="11.1221253"><ele>37.33333333333333</ele><time>2026-04-05T10:29:43.42Z</time></trkpt><trkpt lat="43.7801969" lon="11.1222387"><ele>37.0</ele><time>2026-04-05T10:29:45.419Z</time></trkpt><trkpt lat="43.7802143" lon="11.1223489"><ele>36.666666666666664</ele><time>2026-04-05T10:29:47.42Z</time></trkpt><trkpt lat="43.7802293" lon="11.1224622"><ele>36.333333333333336</ele><time>2026-04-05T10:29:49.42Z</time></trkpt><trkpt lat="43.7802467" lon="11.1225753"><ele>36.0</ele><time>2026-04-05T10:29:51.42Z</time></trkpt><trkpt lat="43.7802669" lon="11.1226867"><ele>35.333333333333336</ele><time>2026-04-05T10:29:53.42Z</time></trkpt><trkpt lat="43.7802817" lon="11.1227942"><ele>34.666666666666664</ele><time>2026-04-05T10:29:55.419Z</time></trkpt><trkpt lat="43.7802964" lon="11.1229031"><ele>34.0</ele><time>2026-04-05T10:29:57.419Z</time></trkpt><trkpt lat="43.7803119" lon="11.1230148"><ele>33.33333333333333</ele><time>2026-04-05T10:29:59.419Z</time></trkpt><trkpt lat="43.7803276" lon="11.123121"><ele>32.666666666666664</ele><time>2026-04-05T10:30:01.419Z</time></trkpt><trkpt lat="43.7803429" lon="11.1232307"><ele>32.0</ele><time>2026-04-05T10:30:03.419Z</time></trkpt><trkpt lat="43.7803657" lon="11.1233463"><ele>31.999999999999996</ele><time>2026-04-05T10:30:05.42Z</time></trkpt><trkpt lat="43.7803918" lon="11.1234582"><ele>32.0</ele><time>2026-04-05T10:30:07.419Z</time></trkpt><trkpt lat="43.780412" lon="11.1235713"><ele>32.0</ele><time>2026-04-05T10:30:09.42Z</time></trkpt><trkpt lat="43.7804335" lon="11.123681"><ele>32.0</ele><time>2026-04-05T10:30:11.42Z</time></trkpt><trkpt lat="43.7804603" lon="11.1237904"><ele>31.999999999999996</ele><time>2026-04-05T10:30:13.42Z</time></trkpt><trkpt lat="43.7804977" lon="11.1238871"><ele>32.0</ele><time>2026-04-05T10:30:15.419Z</time></trkpt><trkpt lat="43.7805415" lon="11.1239768"><ele>32.0</ele><time>2026-04-05T10:30:17.419Z</time></trkpt><trkpt lat="43.7805849" lon="11.1240531"><ele>31.999999999999996</ele><time>2026-04-05T10:30:19.419Z</time></trkpt><trkpt lat="43.7806334" lon="11.1241292"><ele>32.0</ele><time>2026-04-05T10:30:21.42Z</time></trkpt><trkpt lat="43.7806821" lon="11.1242061"><ele>32.0</ele><time>2026-04-05T10:30:23.42Z</time></trkpt><trkpt lat="43.7807249" lon="11.1242932"><ele>31.999999999999996</ele><time>2026-04-05T10:30:25.42Z</time></trkpt><trkpt lat="43.78076" lon="11.1243818"><ele>32.0</ele><time>2026-04-05T10:30:27.42Z</time></trkpt><trkpt lat="43.7807959" lon="11.1244735"><ele>32.0</ele><time>2026-04-05T10:30:29.419Z</time></trkpt><trkpt lat="43.780827" lon="11.1245666"><ele>32.14285714285714</ele><time>2026-04-05T10:30:31.419Z</time></trkpt><trkpt lat="43.7808526" lon="11.1246579"><ele>32.285714285714285</ele><time>2026-04-05T10:30:33.42Z</time></trkpt><trkpt lat="43.7808788" lon="11.124748"><ele>32.42857142857143</ele><time>2026-04-05T10:30:35.42Z</time></trkpt><trkpt lat="43.7809064" lon="11.1248411"><ele>32.57142857142857</ele><time>2026-04-05T10:30:37.421Z</time></trkpt><trkpt lat="43.7809253" lon="11.1249387"><ele>32.714285714285715</ele><time>2026-04-05T10:30:39.42Z</time></trkpt><trkpt lat="43.780937" lon="11.12503"><ele>32.857142857142854</ele><time>2026-04-05T10:30:41.42Z</time></trkpt><trkpt lat="43.7809495" lon="11.1251312"><ele>33.0</ele><time>2026-04-05T10:30:43.419Z</time></trkpt><trkpt lat="43.7809712" lon="11.1252408"><ele>33.14285714285714</ele><time>2026-04-05T10:30:45.419Z</time></trkpt><trkpt lat="43.780992" lon="11.1253449"><ele>33.285714285714285</ele><time>2026-04-05T10:30:47.418Z</time></trkpt><trkpt lat="43.7810113" lon="11.1254471"><ele>33.42857142857143</ele><time>2026-04-05T10:30:49.419Z</time></trkpt><trkpt lat="43.7810238" lon="11.1255452"><ele>33.57142857142857</ele><time>2026-04-05T10:30:51.419Z</time></trkpt><trkpt lat="43.7810354" lon="11.1256423"><ele>33.714285714285715</ele><time>2026-04-05T10:30:53.419Z</time></trkpt><trkpt lat="43.7810486" lon="11.1257378"><ele>33.857142857142854</ele><time>2026-04-05T10:30:55.418Z</time></trkpt><trkpt lat="43.7810646" lon="11.1258363"><ele>34.0</ele><time>2026-04-05T10:30:57.419Z</time></trkpt><trkpt lat="43.7810809" lon="11.1259436"><ele>33.66666666666667</ele><time>2026-04-05T10:30:59.419Z</time></trkpt><trkpt lat="43.7810941" lon="11.1260529"><ele>33.333333333333336</ele><time>2026-04-05T10:31:01.419Z</time></trkpt><trkpt lat="43.7811065" lon="11.1261581"><ele>33.0</ele><time>2026-04-05T10:31:03.419Z</time></trkpt><trkpt lat="43.7811218" lon="11.1262632"><ele>32.666666666666664</ele><time>2026-04-05T10:31:05.42Z</time></trkpt><trkpt lat="43.7811369" lon="11.1263652"><ele>32.33333333333333</ele><time>2026-04-05T10:31:07.418Z</time></trkpt><trkpt lat="43.7811553" lon="11.1264692"><ele>32.0</ele><time>2026-04-05T10:31:09.418Z</time></trkpt><trkpt lat="43.7811762" lon="11.1265715"><ele>31.666666666666664</ele><time>2026-04-05T10:31:11.42Z</time></trkpt><trkpt lat="43.781194" lon="11.1266724"><ele>31.333333333333332</ele><time>2026-04-05T10:31:13.419Z</time></trkpt><trkpt lat="43.7812139" lon="11.1267781"><ele>31.0</ele><time>2026-04-05T10:31:15.419Z</time></trkpt><trkpt lat="43.7812339" lon="11.1268844"><ele>30.666666666666664</ele><time>2026-04-05T10:31:17.42Z</time></trkpt><trkpt lat="43.7812538" lon="11.1269853"><ele>30.333333333333332</ele><time>2026-04-05T10:31:19.419Z</time></trkpt><trkpt lat="43.7812706" lon="11.1270824"><ele>30.0</ele><time>2026-04-05T10:31:21.418Z</time></trkpt><trkpt lat="43.7812878" lon="11.1271824"><ele>30.0</ele><time>2026-04-05T10:31:23.42Z</time></trkpt><trkpt lat="43.7813049" lon="11.1272845"><ele>30.0</ele><time>2026-04-05T10:31:25.419Z</time></trkpt><trkpt lat="43.781323" lon="11.1273853"><ele>30.0</ele><time>2026-04-05T10:31:27.42Z</time></trkpt><trkpt lat="43.7813406" lon="11.1274906"><ele>30.0</ele><time>2026-04-05T10:31:29.42Z</time></trkpt><trkpt lat="43.7813561" lon="11.1275938"><ele>30.0</ele><time>2026-04-05T10:31:31.418Z</time></trkpt><trkpt lat="43.7813731" lon="11.1276981"><ele>30.0</ele><time>2026-04-05T10:31:33.419Z</time></trkpt><trkpt lat="43.7813906" lon="11.1278"><ele>30.5</ele><time>2026-04-05T10:31:35.42Z</time></trkpt><trkpt lat="43.781409" lon="11.1279021"><ele>31.0</ele><time>2026-04-05T10:31:37.42Z</time></trkpt><trkpt lat="43.7814261" lon="11.128012"><ele>31.5</ele><time>2026-04-05T10:31:39.419Z</time></trkpt><trkpt lat="43.7814448" lon="11.1281119"><ele>32.0</ele><time>2026-04-05T10:31:41.42Z</time></trkpt><trkpt lat="43.7814601" lon="11.128211"><ele>32.5</ele><time>2026-04-05T10:31:43.419Z</time></trkpt><trkpt lat="43.7814715" lon="11.1283119"><ele>33.0</ele><time>2026-04-05T10:31:45.419Z</time></trkpt><trkpt lat="43.781485" lon="11.128412"><ele>33.14285714285714</ele><time>2026-04-05T10:31:47.418Z</time></trkpt><trkpt lat="43.7815007" lon="11.1285142"><ele>33.285714285714285</ele><time>2026-04-05T10:31:49.42Z</time></trkpt><trkpt lat="43.7815168" lon="11.1286203"><ele>33.42857142857143</ele><time>2026-04-05T10:31:51.419Z</time></trkpt><trkpt lat="43.7815326" lon="11.1287187"><ele>33.57142857142857</ele><time>2026-04-05T10:31:53.419Z</time></trkpt><trkpt lat="43.7815442" lon="11.1288165"><ele>33.714285714285715</ele><time>2026-04-05T10:31:55.418Z</time></trkpt><trkpt lat="43.7815575" lon="11.128914"><ele>33.857142857142854</ele><time>2026-04-05T10:31:57.418Z</time></trkpt><trkpt lat="43.7815716" lon="11.1290147"><ele>34.0</ele><time>2026-04-05T10:31:59.418Z</time></trkpt><trkpt lat="43.7815862" lon="11.1291201"><ele>34.16666666666667</ele><time>2026-04-05T10:32:01.42Z</time></trkpt><trkpt lat="43.7816003" lon="11.1292285"><ele>34.333333333333336</ele><time>2026-04-05T10:32:03.42Z</time></trkpt><trkpt lat="43.7816171" lon="11.1293326"><ele>34.5</ele><time>2026-04-05T10:32:05.419Z</time></trkpt><trkpt lat="43.7816314" lon="11.1294381"><ele>34.666666666666664</ele><time>2026-04-05T10:32:07.42Z</time></trkpt><trkpt lat="43.7816486" lon="11.1295424"><ele>34.83333333333333</ele><time>2026-04-05T10:32:09.418Z</time></trkpt><trkpt lat="43.781663" lon="11.1296488"><ele>35.0</ele><time>2026-04-05T10:32:11.419Z</time></trkpt><trkpt lat="43.7816828" lon="11.1297564"><ele>35.0</ele><time>2026-04-05T10:32:13.418Z</time></trkpt><trkpt lat="43.7817059" lon="11.1298625"><ele>35.0</ele><time>2026-04-05T10:32:15.418Z</time></trkpt><trkpt lat="43.7817226" lon="11.1299673"><ele>35.0</ele><time>2026-04-05T10:32:17.42Z</time></trkpt><trkpt lat="43.7817339" lon="11.1300735"><ele>35.0</ele><time>2026-04-05T10:32:19.42Z</time></trkpt><trkpt lat="43.7817436" lon="11.1301802"><ele>35.0</ele><time>2026-04-05T10:32:21.419Z</time></trkpt><trkpt lat="43.781758" lon="11.1302832"><ele>35.0</ele><time>2026-04-05T10:32:23.418Z</time></trkpt><trkpt lat="43.781774" lon="11.1303837"><ele>35.0</ele><time>2026-04-05T10:32:25.418Z</time></trkpt><trkpt lat="43.7817891" lon="11.130486"><ele>35.0</ele><time>2026-04-05T10:32:27.42Z</time></trkpt><trkpt lat="43.7818024" lon="11.1305854"><ele>35.0</ele><time>2026-04-05T10:32:29.419Z</time></trkpt><trkpt lat="43.7818143" lon="11.1306809"><ele>35.0</ele><time>2026-04-05T10:32:31.42Z</time></trkpt><trkpt lat="43.7818286" lon="11.1307766"><ele>35.0</ele><time>2026-04-05T10:32:33.418Z</time></trkpt><trkpt lat="43.7818479" lon="11.1308788"><ele>35.0</ele><time>2026-04-05T10:32:35.419Z</time></trkpt><trkpt lat="43.7818664" lon="11.1309827"><ele>35.0</ele><time>2026-04-05T10:32:37.42Z</time></trkpt><trkpt lat="43.7818836" lon="11.1310873"><ele>34.57142857142857</ele><time>2026-04-05T10:32:39.418Z</time></trkpt><trkpt lat="43.7818998" lon="11.1311869"><ele>34.14285714285714</ele><time>2026-04-05T10:32:41.419Z</time></trkpt><trkpt lat="43.7819176" lon="11.1312834"><ele>33.714285714285715</ele><time>2026-04-05T10:32:43.42Z</time></trkpt><trkpt lat="43.7819359" lon="11.1313741"><ele>33.285714285714285</ele><time>2026-04-05T10:32:45.419Z</time></trkpt><trkpt lat="43.7819525" lon="11.1314678"><ele>32.857142857142854</ele><time>2026-04-05T10:32:47.42Z</time></trkpt><trkpt lat="43.7819649" lon="11.1315657"><ele>32.42857142857143</ele><time>2026-04-05T10:32:49.418Z</time></trkpt><trkpt lat="43.781979" lon="11.1316708"><ele>32.0</ele><time>2026-04-05T10:32:51.419Z</time></trkpt><trkpt lat="43.7819928" lon="11.1317754"><ele>32.0</ele><time>2026-04-05T10:32:53.419Z</time></trkpt><trkpt lat="43.7820058" lon="11.1318841"><ele>31.999999999999996</ele><time>2026-04-05T10:32:55.419Z</time></trkpt><trkpt lat="43.782018" lon="11.131986"><ele>32.0</ele><time>2026-04-05T10:32:57.42Z</time></trkpt><trkpt lat="43.7820315" lon="11.1320842"><ele>32.0</ele><time>2026-04-05T10:32:59.419Z</time></trkpt><trkpt lat="43.7820444" lon="11.1321803"><ele>31.999999999999996</ele><time>2026-04-05T10:33:01.419Z</time></trkpt><trkpt lat="43.7820572" lon="11.1322784"><ele>32.0</ele><time>2026-04-05T10:33:03.419Z</time></trkpt><trkpt lat="43.7820682" lon="11.1323814"><ele>32.0</ele><time>2026-04-05T10:33:05.418Z</time></trkpt><trkpt lat="43.7820815" lon="11.1324823"><ele>31.999999999999996</ele><time>2026-04-05T10:33:07.42Z</time></trkpt><trkpt lat="43.782097" lon="11.1325831"><ele>32.0</ele><time>2026-04-05T10:33:09.419Z</time></trkpt><trkpt lat="43.7821148" lon="11.1326822"><ele>32.0</ele><time>2026-04-05T10:33:11.419Z</time></trkpt><trkpt lat="43.7821323" lon="11.132786"><ele>32.0</ele><time>2026-04-05T10:33:13.419Z</time></trkpt><trkpt lat="43.7821496" lon="11.1328948"><ele>31.999999999999996</ele><time>2026-04-05T10:33:15.419Z</time></trkpt><trkpt lat="43.7821686" lon="11.1330016"><ele>32.0</ele><time>2026-04-05T10:33:17.419Z</time></trkpt><trkpt lat="43.7821872" lon="11.1331003"><ele>31.999999999999996</ele><time>2026-04-05T10:33:19.419Z</time></trkpt><trkpt lat="43.7822031" lon="11.1332025"><ele>32.0</ele><time>2026-04-05T10:33:21.418Z</time></trkpt><trkpt lat="43.7822199" lon="11.1333063"><ele>32.0</ele><time>2026-04-05T10:33:23.419Z</time></trkpt><trkpt lat="43.7822389" lon="11.1334125"><ele>32.0</ele><time>2026-04-05T10:33:25.419Z</time></trkpt><trkpt lat="43.7822594" lon="11.1335177"><ele>31.999999999999996</ele><time>2026-04-05T10:33:27.419Z</time></trkpt><trkpt lat="43.7822785" lon="11.1336225"><ele>32.0</ele><time>2026-04-05T10:33:29.42Z</time></trkpt><trkpt lat="43.7822988" lon="11.1337297"><ele>32.33333333333333</ele><time>2026-04-05T10:33:31.418Z</time></trkpt><trkpt lat="43.7823228" lon="11.1338363"><ele>32.666666666666664</ele><time>2026-04-05T10:33:33.418Z</time></trkpt><trkpt lat="43.7823441" lon="11.1339432"><ele>33.0</ele><time>2026-04-05T10:33:35.418Z</time></trkpt><trkpt lat="43.7823572" lon="11.1340515"><ele>33.333333333333336</ele><time>2026-04-05T10:33:37.418Z</time></trkpt><trkpt lat="43.7823693" lon="11.13416"><ele>33.66666666666667</ele><time>2026-04-05T10:33:39.418Z</time></trkpt><trkpt lat="43.7823844" lon="11.1342669"><ele>34.0</ele><time>2026-04-05T10:33:41.42Z</time></trkpt><trkpt lat="43.7824043" lon="11.1343708"><ele>33.99999999999999</ele><time>2026-04-05T10:33:43.419Z</time></trkpt><trkpt lat="43.7824216" lon="11.1344706"><ele>34.0</ele><time>2026-04-05T10:33:45.419Z</time></trkpt><trkpt lat="43.7824344" lon="11.1345716"><ele>34.0</ele><time>2026-04-05T10:33:47.419Z</time></trkpt><trkpt lat="43.7824483" lon="11.1346733"><ele>34.0</ele><time>2026-04-05T10:33:49.419Z</time></trkpt><trkpt lat="43.7824626" lon="11.1347714"><ele>34.0</ele><time>2026-04-05T10:33:51.419Z</time></trkpt><trkpt lat="43.7824811" lon="11.1348659"><ele>33.99999999999999</ele><time>2026-04-05T10:33:53.418Z</time></trkpt><trkpt lat="43.7824996" lon="11.1349666"><ele>34.0</ele><time>2026-04-05T10:33:55.419Z</time></trkpt><trkpt lat="43.7825141" lon="11.1350672"><ele>34.0</ele><time>2026-04-05T10:33:57.419Z</time></trkpt><trkpt lat="43.7825289" lon="11.135166"><ele>34.0</ele><time>2026-04-05T10:33:59.419Z</time></trkpt><trkpt lat="43.782548" lon="11.1352663"><ele>34.0</ele><time>2026-04-05T10:34:01.418Z</time></trkpt><trkpt lat="43.7825662" lon="11.1353686"><ele>34.0</ele><time>2026-04-05T10:34:03.419Z</time></trkpt><trkpt lat="43.782583" lon="11.1354726"><ele>34.0</ele><time>2026-04-05T10:34:05.418Z</time></trkpt><trkpt lat="43.7825985" lon="11.1355744"><ele>34.0</ele><time>2026-04-05T10:34:07.418Z</time></trkpt><trkpt lat="43.7826153" lon="11.1356771"><ele>34.0</ele><time>2026-04-05T10:34:09.42Z</time></trkpt><trkpt lat="43.7826291" lon="11.1357709"><ele>34.0</ele><time>2026-04-05T10:34:11.418Z</time></trkpt><trkpt lat="43.7826438" lon="11.1358988"><ele>34.0</ele><time>2026-04-05T10:34:14.418Z</time></trkpt><trkpt lat="43.7826521" lon="11.1359997"><ele>34.0</ele><time>2026-04-05T10:34:16.42Z</time></trkpt><trkpt lat="43.7826693" lon="11.1361049"><ele>34.0</ele><time>2026-04-05T10:34:18.419Z</time></trkpt><trkpt lat="43.7826898" lon="11.13621"><ele>34.0</ele><time>2026-04-05T10:34:20.419Z</time></trkpt><trkpt lat="43.7827071" lon="11.1363107"><ele>34.0</ele><time>2026-04-05T10:34:22.418Z</time></trkpt><trkpt lat="43.782724" lon="11.1364231"><ele>34.0</ele><time>2026-04-05T10:34:24.397Z</time></trkpt><trkpt lat="43.7827434" lon="11.1365244"><ele>34.0</ele><time>2026-04-05T10:34:26.416Z</time></trkpt><trkpt lat="43.7827628" lon="11.136627"><ele>34.0</ele><time>2026-04-05T10:34:28.418Z</time></trkpt><trkpt lat="43.7827802" lon="11.1367257"><ele>34.0</ele><time>2026-04-05T10:34:30.418Z</time></trkpt><trkpt lat="43.7827968" lon="11.1368286"><ele>34.0</ele><time>2026-04-05T10:34:32.419Z</time></trkpt><trkpt lat="43.7828121" lon="11.1369286"><ele>34.0</ele><time>2026-04-05T10:34:34.418Z</time></trkpt><trkpt lat="43.782826" lon="11.1370296"><ele>34.0</ele><time>2026-04-05T10:34:36.418Z</time></trkpt><trkpt lat="43.7828412" lon="11.1371281"><ele>34.0</ele><time>2026-04-05T10:34:38.418Z</time></trkpt><trkpt lat="43.7828616" lon="11.1372367"><ele>34.0</ele><time>2026-04-05T10:34:40.419Z</time></trkpt><trkpt lat="43.7828823" lon="11.1373442"><ele>34.0</ele><time>2026-04-05T10:34:42.418Z</time></trkpt><trkpt lat="43.7828982" lon="11.1374489"><ele>34.0</ele><time>2026-04-05T10:34:44.419Z</time></trkpt><trkpt lat="43.7829175" lon="11.1375494"><ele>33.99999999999999</ele><time>2026-04-05T10:34:46.419Z</time></trkpt><trkpt lat="43.7829403" lon="11.1376484"><ele>34.0</ele><time>2026-04-05T10:34:48.419Z</time></trkpt><trkpt lat="43.7829606" lon="11.1377436"><ele>34.0</ele><time>2026-04-05T10:34:50.419Z</time></trkpt><trkpt lat="43.7829806" lon="11.1378405"><ele>34.0</ele><time>2026-04-05T10:34:52.42Z</time></trkpt><trkpt lat="43.7829945" lon="11.137938"><ele>34.0</ele><time>2026-04-05T10:34:54.418Z</time></trkpt><trkpt lat="43.7830092" lon="11.1380408"><ele>33.99999999999999</ele><time>2026-04-05T10:34:56.418Z</time></trkpt><trkpt lat="43.7830252" lon="11.1381461"><ele>34.0</ele><time>2026-04-05T10:34:58.418Z</time></trkpt><trkpt lat="43.7830411" lon="11.1382502"><ele>34.285714285714285</ele><time>2026-04-05T10:35:00.418Z</time></trkpt><trkpt lat="43.7830542" lon="11.1383475"><ele>34.57142857142857</ele><time>2026-04-05T10:35:02.418Z</time></trkpt><trkpt lat="43.783067" lon="11.1384389"><ele>34.85714285714286</ele><time>2026-04-05T10:35:04.419Z</time></trkpt><trkpt lat="43.7830822" lon="11.1385281"><ele>35.14285714285714</ele><time>2026-04-05T10:35:06.418Z</time></trkpt><trkpt lat="43.783094" lon="11.1386162"><ele>35.42857142857143</ele><time>2026-04-05T10:35:08.419Z</time></trkpt><trkpt lat="43.7831098" lon="11.1387047"><ele>35.714285714285715</ele><time>2026-04-05T10:35:10.418Z</time></trkpt><trkpt lat="43.783123" lon="11.1387964"><ele>36.0</ele><time>2026-04-05T10:35:12.418Z</time></trkpt><trkpt lat="43.7831367" lon="11.1388921"><ele>36.00000000000001</ele><time>2026-04-05T10:35:14.418Z</time></trkpt><trkpt lat="43.7831532" lon="11.1389895"><ele>36.0</ele><time>2026-04-05T10:35:16.419Z</time></trkpt><trkpt lat="43.783173" lon="11.1390865"><ele>36.0</ele><time>2026-04-05T10:35:18.418Z</time></trkpt><trkpt lat="43.7831904" lon="11.1391855"><ele>36.0</ele><time>2026-04-05T10:35:20.418Z</time></trkpt><trkpt lat="43.7832089" lon="11.1392865"><ele>36.0</ele><time>2026-04-05T10:35:22.419Z</time></trkpt><trkpt lat="43.7832248" lon="11.1393877"><ele>36.00000000000001</ele><time>2026-04-05T10:35:24.419Z</time></trkpt><trkpt lat="43.7832448" lon="11.1394883"><ele>36.0</ele><time>2026-04-05T10:35:26.418Z</time></trkpt><trkpt lat="43.783264" lon="11.1395885"><ele>36.0</ele><time>2026-04-05T10:35:28.418Z</time></trkpt><trkpt lat="43.7832798" lon="11.1396881"><ele>36.0</ele><time>2026-04-05T10:35:30.418Z</time></trkpt><trkpt lat="43.7832973" lon="11.1397903"><ele>36.0</ele><time>2026-04-05T10:35:32.418Z</time></trkpt><trkpt lat="43.7833121" lon="11.1398925"><ele>36.0</ele><time>2026-04-05T10:35:34.417Z</time></trkpt><trkpt lat="43.783325" lon="11.1399929"><ele>36.0</ele><time>2026-04-05T10:35:36.419Z</time></trkpt><trkpt lat="43.7833422" lon="11.1400928"><ele>36.0</ele><time>2026-04-05T10:35:38.419Z</time></trkpt><trkpt lat="43.7833624" lon="11.1401984"><ele>36.0</ele><time>2026-04-05T10:35:40.419Z</time></trkpt><trkpt lat="43.7833809" lon="11.1403057"><ele>36.0</ele><time>2026-04-05T10:35:42.419Z</time></trkpt><trkpt lat="43.7833977" lon="11.1404189"><ele>36.0</ele><time>2026-04-05T10:35:44.418Z</time></trkpt><trkpt lat="43.7834106" lon="11.140524"><ele>36.0</ele><time>2026-04-05T10:35:46.419Z</time></trkpt><trkpt lat="43.7834276" lon="11.1406362"><ele>36.0</ele><time>2026-04-05T10:35:48.417Z</time></trkpt><trkpt lat="43.7834479" lon="11.1407393"><ele>36.0</ele><time>2026-04-05T10:35:50.418Z</time></trkpt><trkpt lat="43.7834621" lon="11.1408394"><ele>36.0</ele><time>2026-04-05T10:35:52.419Z</time></trkpt><trkpt lat="43.7834703" lon="11.140939"><ele>36.0</ele><time>2026-04-05T10:35:54.418Z</time></trkpt><trkpt lat="43.7834817" lon="11.1410506"><ele>36.0</ele><time>2026-04-05T10:35:56.419Z</time></trkpt><trkpt lat="43.7834937" lon="11.1411558"><ele>36.0</ele><time>2026-04-05T10:35:58.418Z</time></trkpt><trkpt lat="43.783512" lon="11.1412677"><ele>36.0</ele><time>2026-04-05T10:36:00.418Z</time></trkpt><trkpt lat="43.7835112" lon="11.141397"><ele>36.0</ele><time>2026-04-05T10:36:02.419Z</time></trkpt><trkpt lat="43.7835316" lon="11.141494"><ele>36.0</ele><time>2026-04-05T10:36:04.418Z</time></trkpt><trkpt lat="43.7835625" lon="11.1415771"><ele>36.0</ele><time>2026-04-05T10:36:06.419Z</time></trkpt><trkpt lat="43.7835759" lon="11.1416993"><ele>36.0</ele><time>2026-04-05T10:36:09.418Z</time></trkpt><trkpt lat="43.7836015" lon="11.1417892"><ele>36.0</ele><time>2026-04-05T10:36:12.418Z</time></trkpt><trkpt lat="43.7836865" lon="11.1418132"><ele>36.0</ele><time>2026-04-05T10:36:15.417Z</time></trkpt><trkpt lat="43.7837685" lon="11.1417772"><ele>36.0</ele><time>2026-04-05T10:36:18.418Z</time></trkpt><trkpt lat="43.7838482" lon="11.1417474"><ele>36.0</ele><time>2026-04-05T10:36:21.418Z</time></trkpt><trkpt lat="43.7839235" lon="11.1417093"><ele>36.0</ele><time>2026-04-05T10:36:24.418Z</time></trkpt><trkpt lat="43.7839998" lon="11.1416806"><ele>36.0</ele><time>2026-04-05T10:36:27.418Z</time></trkpt><trkpt lat="43.7840782" lon="11.141655"><ele>36.0</ele><time>2026-04-05T10:36:30.418Z</time></trkpt><trkpt lat="43.7841583" lon="11.1416311"><ele>36.0</ele><time>2026-04-05T10:36:33.418Z</time></trkpt><trkpt lat="43.7842416" lon="11.1416004"><ele>36.0</ele><time>2026-04-05T10:36:36.418Z</time></trkpt><trkpt lat="43.784323" lon="11.1415649"><ele>36.0</ele><time>2026-04-05T10:36:39.419Z</time></trkpt><trkpt lat="43.784393" lon="11.1415322"><ele>36.0</ele><time>2026-04-05T10:36:42.418Z</time></trkpt><trkpt lat="43.7844672" lon="11.141496"><ele>36.0</ele><time>2026-04-05T10:36:45.418Z</time></trkpt><trkpt lat="43.7845454" lon="11.1414691"><ele>36.0</ele><time>2026-04-05T10:36:48.418Z</time></trkpt><trkpt lat="43.7846262" lon="11.1414404"><ele>36.0</ele><time>2026-04-05T10:36:51.419Z</time></trkpt><trkpt lat="43.7847142" lon="11.1414111"><ele>36.0</ele><time>2026-04-05T10:36:54.419Z</time></trkpt><trkpt lat="43.7847797" lon="11.1413871"><ele>36.0</ele><time>2026-04-05T10:36:56.419Z</time></trkpt><trkpt lat="43.7848507" lon="11.1413637"><ele>36.0</ele><time>2026-04-05T10:36:58.418Z</time></trkpt><trkpt lat="43.7849288" lon="11.1413512"><ele>36.0</ele><time>2026-04-05T10:37:00.417Z</time></trkpt><trkpt lat="43.7850149" lon="11.1413398"><ele>36.0</ele><time>2026-04-05T10:37:02.418Z</time></trkpt><trkpt lat="43.7851027" lon="11.141319"><ele>36.0</ele><time>2026-04-05T10:37:04.418Z</time></trkpt><trkpt lat="43.785178" lon="11.141273"><ele>36.0</ele><time>2026-04-05T10:37:06.417Z</time></trkpt><trkpt lat="43.7851769" lon="11.1411384"><ele>36.0</ele><time>2026-04-05T10:37:09.418Z</time></trkpt><trkpt lat="43.7851527" lon="11.1410264"><ele>36.0</ele><time>2026-04-05T10:37:11.417Z</time></trkpt><trkpt lat="43.7851311" lon="11.1409113"><ele>36.0</ele><time>2026-04-05T10:37:13.418Z</time></trkpt><trkpt lat="43.7851414" lon="11.1408217"><ele>36.0</ele><time>2026-04-05T10:37:16.417Z</time></trkpt><trkpt lat="43.7851743" lon="11.1409056"><ele>36.0</ele><time>2026-04-05T10:37:20.418Z</time></trkpt><trkpt lat="43.7851998" lon="11.1410157"><ele>36.0</ele><time>2026-04-05T10:37:22.418Z</time></trkpt><trkpt lat="43.7852175" lon="11.1411124"><ele>36.166666666666664</ele><time>2026-04-05T10:37:24.418Z</time></trkpt><trkpt lat="43.7852343" lon="11.1412046"><ele>36.333333333333336</ele><time>2026-04-05T10:37:26.419Z</time></trkpt><trkpt lat="43.7852575" lon="11.1413035"><ele>36.5</ele><time>2026-04-05T10:37:28.419Z</time></trkpt><trkpt lat="43.7852689" lon="11.1414103"><ele>36.66666666666667</ele><time>2026-04-05T10:37:30.419Z</time></trkpt><trkpt lat="43.7852609" lon="11.1415179"><ele>36.833333333333336</ele><time>2026-04-05T10:37:32.417Z</time></trkpt><trkpt lat="43.7852345" lon="11.1416158"><ele>37.0</ele><time>2026-04-05T10:37:34.419Z</time></trkpt><trkpt lat="43.7852453" lon="11.1417459"><ele>37.2</ele><time>2026-04-05T10:37:36.417Z</time></trkpt><trkpt lat="43.7852677" lon="11.1418804"><ele>37.400000000000006</ele><time>2026-04-05T10:37:38.418Z</time></trkpt><trkpt lat="43.785287" lon="11.1419905"><ele>37.599999999999994</ele><time>2026-04-05T10:37:40.419Z</time></trkpt><trkpt lat="43.7852853" lon="11.1421275"><ele>37.8</ele><time>2026-04-05T10:37:42.419Z</time></trkpt><trkpt lat="43.785297" lon="11.1422595"><ele>38.0</ele><time>2026-04-05T10:37:44.418Z</time></trkpt><trkpt lat="43.7853159" lon="11.1423663"><ele>38.0</ele><time>2026-04-05T10:37:46.417Z</time></trkpt><trkpt lat="43.7853492" lon="11.1424593"><ele>38.0</ele><time>2026-04-05T10:37:48.419Z</time></trkpt><trkpt lat="43.7853789" lon="11.1425764"><ele>38.0</ele><time>2026-04-05T10:37:50.418Z</time></trkpt><trkpt lat="43.7854036" lon="11.1427196"><ele>38.0</ele><time>2026-04-05T10:37:52.417Z</time></trkpt><trkpt lat="43.7854255" lon="11.1428406"><ele>38.0</ele><time>2026-04-05T10:37:54.418Z</time></trkpt><trkpt lat="43.7854438" lon="11.1429514"><ele>38.0</ele><time>2026-04-05T10:37:56.418Z</time></trkpt><trkpt lat="43.7854741" lon="11.1430535"><ele>38.0</ele><time>2026-04-05T10:37:58.418Z</time></trkpt><trkpt lat="43.7854815" lon="11.143143"><ele>38.0</ele><time>2026-04-05T10:38:00.418Z</time></trkpt><trkpt lat="43.7854875" lon="11.1432469"><ele>38.0</ele><time>2026-04-05T10:38:02.419Z</time></trkpt><trkpt lat="43.7854973" lon="11.1433566"><ele>38.0</ele><time>2026-04-05T10:38:04.417Z</time></trkpt><trkpt lat="43.7855123" lon="11.1434723"><ele>38.0</ele><time>2026-04-05T10:38:06.419Z</time></trkpt><trkpt lat="43.7855326" lon="11.1435788"><ele>38.0</ele><time>2026-04-05T10:38:08.417Z</time></trkpt><trkpt lat="43.7855614" lon="11.1436971"><ele>38.0</ele><time>2026-04-05T10:38:11.417Z</time></trkpt><trkpt lat="43.7855932" lon="11.1437987"><ele>38.0</ele><time>2026-04-05T10:38:14.418Z</time></trkpt><trkpt lat="43.7856168" lon="11.1438855"><ele>38.0</ele><time>2026-04-05T10:38:16.419Z</time></trkpt><trkpt lat="43.7856249" lon="11.1439868"><ele>38.0</ele><time>2026-04-05T10:38:18.418Z</time></trkpt><trkpt lat="43.7856252" lon="11.1440866"><ele>38.0</ele><time>2026-04-05T10:38:20.418Z</time></trkpt><trkpt lat="43.7856203" lon="11.1441857"><ele>38.0</ele><time>2026-04-05T10:38:22.417Z</time></trkpt><trkpt lat="43.7856143" lon="11.1442904"><ele>38.0</ele><time>2026-04-05T10:38:24.417Z</time></trkpt><trkpt lat="43.7856126" lon="11.1443987"><ele>37.83333333333333</ele><time>2026-04-05T10:38:26.418Z</time></trkpt><trkpt lat="43.7856165" lon="11.1445122"><ele>37.666666666666664</ele><time>2026-04-05T10:38:28.418Z</time></trkpt><trkpt lat="43.7856298" lon="11.1446291"><ele>37.5</ele><time>2026-04-05T10:38:30.419Z</time></trkpt><trkpt lat="43.785653" lon="11.1447425"><ele>37.333333333333336</ele><time>2026-04-05T10:38:32.419Z</time></trkpt><trkpt lat="43.7856697" lon="11.1448611"><ele>37.16666666666667</ele><time>2026-04-05T10:38:34.418Z</time></trkpt><trkpt lat="43.7856882" lon="11.1449751"><ele>37.0</ele><time>2026-04-05T10:38:36.419Z</time></trkpt><trkpt lat="43.7857081" lon="11.1450968"><ele>36.66666666666667</ele><time>2026-04-05T10:38:38.417Z</time></trkpt><trkpt lat="43.7857251" lon="11.1452046"><ele>36.333333333333336</ele><time>2026-04-05T10:38:40.342Z</time></trkpt><trkpt lat="43.7857383" lon="11.1453226"><ele>36.0</ele><time>2026-04-05T10:38:42.418Z</time></trkpt><trkpt lat="43.7857503" lon="11.1454358"><ele>35.666666666666664</ele><time>2026-04-05T10:38:44.417Z</time></trkpt><trkpt lat="43.7857652" lon="11.1455512"><ele>35.33333333333333</ele><time>2026-04-05T10:38:46.418Z</time></trkpt><trkpt lat="43.785784" lon="11.145668"><ele>35.0</ele><time>2026-04-05T10:38:48.418Z</time></trkpt><trkpt lat="43.7858039" lon="11.145781"><ele>34.83333333333333</ele><time>2026-04-05T10:38:50.417Z</time></trkpt><trkpt lat="43.7858276" lon="11.1458937"><ele>34.666666666666664</ele><time>2026-04-05T10:38:52.417Z</time></trkpt><trkpt lat="43.7858503" lon="11.1460019"><ele>34.5</ele><time>2026-04-05T10:38:54.35Z</time></trkpt><trkpt lat="43.7858685" lon="11.1461125"><ele>34.333333333333336</ele><time>2026-04-05T10:38:56.319Z</time></trkpt><trkpt lat="43.7858842" lon="11.1462321"><ele>34.16666666666667</ele><time>2026-04-05T10:38:58.418Z</time></trkpt><trkpt lat="43.7858994" lon="11.1463412"><ele>34.0</ele><time>2026-04-05T10:39:00.356Z</time></trkpt><trkpt lat="43.7859195" lon="11.1464562"><ele>34.0</ele><time>2026-04-05T10:39:02.417Z</time></trkpt><trkpt lat="43.7859302" lon="11.1465674"><ele>34.0</ele><time>2026-04-05T10:39:04.417Z</time></trkpt><trkpt lat="43.7859465" lon="11.1466836"><ele>34.0</ele><time>2026-04-05T10:39:06.417Z</time></trkpt><trkpt lat="43.7859633" lon="11.1467994"><ele>34.0</ele><time>2026-04-05T10:39:08.417Z</time></trkpt><trkpt lat="43.7859804" lon="11.1469176"><ele>34.0</ele><time>2026-04-05T10:39:10.417Z</time></trkpt><trkpt lat="43.785997" lon="11.1470332"><ele>34.0</ele><time>2026-04-05T10:39:12.417Z</time></trkpt><trkpt lat="43.7860154" lon="11.1471459"><ele>34.333333333333336</ele><time>2026-04-05T10:39:14.417Z</time></trkpt><trkpt lat="43.7860387" lon="11.1472594"><ele>34.66666666666667</ele><time>2026-04-05T10:39:16.417Z</time></trkpt><trkpt lat="43.7860553" lon="11.1473718"><ele>35.0</ele><time>2026-04-05T10:39:18.418Z</time></trkpt><trkpt lat="43.786068" lon="11.1474807"><ele>35.333333333333336</ele><time>2026-04-05T10:39:20.417Z</time></trkpt><trkpt lat="43.7860785" lon="11.1475909"><ele>35.666666666666664</ele><time>2026-04-05T10:39:22.418Z</time></trkpt><trkpt lat="43.7860881" lon="11.1476997"><ele>36.0</ele><time>2026-04-05T10:39:24.417Z</time></trkpt><trkpt lat="43.786095" lon="11.1478093"><ele>36.0</ele><time>2026-04-05T10:39:26.417Z</time></trkpt><trkpt lat="43.7861043" lon="11.1479211"><ele>36.0</ele><time>2026-04-05T10:39:28.417Z</time></trkpt><trkpt lat="43.7861194" lon="11.1480368"><ele>36.0</ele><time>2026-04-05T10:39:30.417Z</time></trkpt><trkpt lat="43.786141" lon="11.1481506"><ele>36.0</ele><time>2026-04-05T10:39:32.416Z</time></trkpt><trkpt lat="43.7861675" lon="11.1482608"><ele>36.0</ele><time>2026-04-05T10:39:34.417Z</time></trkpt><trkpt lat="43.7861958" lon="11.1483705"><ele>36.0</ele><time>2026-04-05T10:39:36.418Z</time></trkpt><trkpt lat="43.7862203" lon="11.148485"><ele>35.833333333333336</ele><time>2026-04-05T10:39:38.418Z</time></trkpt><trkpt lat="43.786245" lon="11.1485951"><ele>35.666666666666664</ele><time>2026-04-05T10:39:40.418Z</time></trkpt><trkpt lat="43.7862622" lon="11.1487053"><ele>35.5</ele><time>2026-04-05T10:39:42.417Z</time></trkpt><trkpt lat="43.7862768" lon="11.1488132"><ele>35.33333333333333</ele><time>2026-04-05T10:39:44.417Z</time></trkpt><trkpt lat="43.7862941" lon="11.14892"><ele>35.166666666666664</ele><time>2026-04-05T10:39:46.417Z</time></trkpt><trkpt lat="43.7863061" lon="11.149029"><ele>35.0</ele><time>2026-04-05T10:39:48.417Z</time></trkpt><trkpt lat="43.7863177" lon="11.1491365"><ele>35.0</ele><time>2026-04-05T10:39:50.418Z</time></trkpt><trkpt lat="43.7863292" lon="11.1492447"><ele>35.0</ele><time>2026-04-05T10:39:52.418Z</time></trkpt><trkpt lat="43.7863428" lon="11.149357"><ele>35.0</ele><time>2026-04-05T10:39:54.417Z</time></trkpt><trkpt lat="43.7863626" lon="11.1494663"><ele>35.0</ele><time>2026-04-05T10:39:56.417Z</time></trkpt><trkpt lat="43.7863759" lon="11.1495737"><ele>35.0</ele><time>2026-04-05T10:39:58.416Z</time></trkpt><trkpt lat="43.7863885" lon="11.1496821"><ele>35.0</ele><time>2026-04-05T10:40:00.418Z</time></trkpt><trkpt lat="43.7863988" lon="11.1497906"><ele>34.83333333333333</ele><time>2026-04-05T10:40:02.417Z</time></trkpt><trkpt lat="43.7864146" lon="11.1498985"><ele>34.666666666666664</ele><time>2026-04-05T10:40:04.417Z</time></trkpt><trkpt lat="43.7864364" lon="11.1500029"><ele>34.5</ele><time>2026-04-05T10:40:06.417Z</time></trkpt><trkpt lat="43.7864582" lon="11.1501086"><ele>34.333333333333336</ele><time>2026-04-05T10:40:08.416Z</time></trkpt><trkpt lat="43.7864775" lon="11.150216"><ele>34.16666666666667</ele><time>2026-04-05T10:40:10.417Z</time></trkpt><trkpt lat="43.7864942" lon="11.1503221"><ele>34.0</ele><time>2026-04-05T10:40:12.418Z</time></trkpt><trkpt lat="43.786506" lon="11.1504309"><ele>34.0</ele><time>2026-04-05T10:40:14.416Z</time></trkpt><trkpt lat="43.7865122" lon="11.150538"><ele>34.0</ele><time>2026-04-05T10:40:16.417Z</time></trkpt><trkpt lat="43.7865222" lon="11.1506469"><ele>34.0</ele><time>2026-04-05T10:40:18.416Z</time></trkpt><trkpt lat="43.7865385" lon="11.1507551"><ele>34.0</ele><time>2026-04-05T10:40:20.417Z</time></trkpt><trkpt lat="43.7865568" lon="11.150863"><ele>34.0</ele><time>2026-04-05T10:40:22.417Z</time></trkpt><trkpt lat="43.7865747" lon="11.150973"><ele>34.0</ele><time>2026-04-05T10:40:24.417Z</time></trkpt><trkpt lat="43.7865927" lon="11.1510862"><ele>34.16666666666667</ele><time>2026-04-05T10:40:26.417Z</time></trkpt><trkpt lat="43.7866138" lon="11.1511999"><ele>34.333333333333336</ele><time>2026-04-05T10:40:28.418Z</time></trkpt><trkpt lat="43.7866343" lon="11.1513177"><ele>34.5</ele><time>2026-04-05T10:40:30.417Z</time></trkpt><trkpt lat="43.7866512" lon="11.1514319"><ele>34.666666666666664</ele><time>2026-04-05T10:40:32.417Z</time></trkpt><trkpt lat="43.7866696" lon="11.1515455"><ele>34.83333333333333</ele><time>2026-04-05T10:40:34.418Z</time></trkpt><trkpt lat="43.7866876" lon="11.1516655"><ele>35.0</ele><time>2026-04-05T10:40:36.418Z</time></trkpt><trkpt lat="43.7867083" lon="11.1517772"><ele>34.666666666666664</ele><time>2026-04-05T10:40:38.417Z</time></trkpt><trkpt lat="43.7867277" lon="11.1518841"><ele>34.33333333333333</ele><time>2026-04-05T10:40:40.417Z</time></trkpt><trkpt lat="43.7867459" lon="11.1519943"><ele>34.0</ele><time>2026-04-05T10:40:42.417Z</time></trkpt><trkpt lat="43.7867595" lon="11.1521033"><ele>33.666666666666664</ele><time>2026-04-05T10:40:44.417Z</time></trkpt><trkpt lat="43.7867721" lon="11.1522124"><ele>33.333333333333336</ele><time>2026-04-05T10:40:46.416Z</time></trkpt><trkpt lat="43.7867874" lon="11.1523181"><ele>33.0</ele><time>2026-04-05T10:40:48.417Z</time></trkpt><trkpt lat="43.7868036" lon="11.1524252"><ele>33.0</ele><time>2026-04-05T10:40:50.417Z</time></trkpt><trkpt lat="43.7868208" lon="11.1525387"><ele>33.0</ele><time>2026-04-05T10:40:52.417Z</time></trkpt><trkpt lat="43.7868399" lon="11.1526517"><ele>33.0</ele><time>2026-04-05T10:40:54.417Z</time></trkpt><trkpt lat="43.7868593" lon="11.1527671"><ele>33.0</ele><time>2026-04-05T10:40:56.416Z</time></trkpt><trkpt lat="43.786876" lon="11.1528808"><ele>33.0</ele><time>2026-04-05T10:40:58.417Z</time></trkpt><trkpt lat="43.7868999" lon="11.1529923"><ele>33.0</ele><time>2026-04-05T10:41:00.418Z</time></trkpt><trkpt lat="43.7869202" lon="11.1531034"><ele>33.833333333333336</ele><time>2026-04-05T10:41:02.416Z</time></trkpt><trkpt lat="43.7869392" lon="11.1532094"><ele>34.666666666666664</ele><time>2026-04-05T10:41:04.416Z</time></trkpt><trkpt lat="43.7869567" lon="11.1533161"><ele>35.5</ele><time>2026-04-05T10:41:06.417Z</time></trkpt><trkpt lat="43.7869789" lon="11.1534261"><ele>36.33333333333333</ele><time>2026-04-05T10:41:08.418Z</time></trkpt><trkpt lat="43.7869946" lon="11.1535366"><ele>37.166666666666664</ele><time>2026-04-05T10:41:10.417Z</time></trkpt><trkpt lat="43.7870126" lon="11.1536456"><ele>38.0</ele><time>2026-04-05T10:41:12.417Z</time></trkpt><trkpt lat="43.7870247" lon="11.1537481"><ele>38.0</ele><time>2026-04-05T10:41:14.417Z</time></trkpt><trkpt lat="43.7870372" lon="11.153852"><ele>38.0</ele><time>2026-04-05T10:41:16.417Z</time></trkpt><trkpt lat="43.7870542" lon="11.1539576"><ele>38.0</ele><time>2026-04-05T10:41:18.417Z</time></trkpt><trkpt lat="43.7870674" lon="11.1540632"><ele>38.0</ele><time>2026-04-05T10:41:20.417Z</time></trkpt><trkpt lat="43.7870846" lon="11.1541837"><ele>38.0</ele><time>2026-04-05T10:41:22.417Z</time></trkpt><trkpt lat="43.7870998" lon="11.1542871"><ele>38.0</ele><time>2026-04-05T10:41:24.417Z</time></trkpt><trkpt lat="43.7871172" lon="11.1543911"><ele>37.5</ele><time>2026-04-05T10:41:26.377Z</time></trkpt><trkpt lat="43.787137" lon="11.1544978"><ele>37.0</ele><time>2026-04-05T10:41:28.335Z</time></trkpt><trkpt lat="43.7871544" lon="11.1546114"><ele>36.5</ele><time>2026-04-05T10:41:30.416Z</time></trkpt><trkpt lat="43.7871682" lon="11.154712"><ele>36.0</ele><time>2026-04-05T10:41:32.417Z</time></trkpt><trkpt lat="43.7871808" lon="11.1548176"><ele>35.5</ele><time>2026-04-05T10:41:34.418Z</time></trkpt><trkpt lat="43.7871991" lon="11.1549228"><ele>35.0</ele><time>2026-04-05T10:41:36.418Z</time></trkpt><trkpt lat="43.7872141" lon="11.1550272"><ele>34.83333333333333</ele><time>2026-04-05T10:41:38.417Z</time></trkpt><trkpt lat="43.7872337" lon="11.1551307"><ele>34.666666666666664</ele><time>2026-04-05T10:41:40.418Z</time></trkpt><trkpt lat="43.7872488" lon="11.1552347"><ele>34.5</ele><time>2026-04-05T10:41:42.417Z</time></trkpt><trkpt lat="43.7872602" lon="11.1553426"><ele>34.333333333333336</ele><time>2026-04-05T10:41:44.418Z</time></trkpt><trkpt lat="43.7872754" lon="11.1554564"><ele>34.16666666666667</ele><time>2026-04-05T10:41:46.418Z</time></trkpt><trkpt lat="43.787288" lon="11.1555732"><ele>34.0</ele><time>2026-04-05T10:41:48.418Z</time></trkpt><trkpt lat="43.7872963" lon="11.1556869"><ele>34.16666666666667</ele><time>2026-04-05T10:41:50.416Z</time></trkpt><trkpt lat="43.787314" lon="11.1557951"><ele>34.333333333333336</ele><time>2026-04-05T10:41:52.417Z</time></trkpt><trkpt lat="43.7873301" lon="11.1559007"><ele>34.5</ele><time>2026-04-05T10:41:54.418Z</time></trkpt><trkpt lat="43.7873399" lon="11.1560113"><ele>34.666666666666664</ele><time>2026-04-05T10:41:56.416Z</time></trkpt><trkpt lat="43.7873478" lon="11.1561228"><ele>34.83333333333333</ele><time>2026-04-05T10:41:58.417Z</time></trkpt><trkpt lat="43.7873564" lon="11.1562328"><ele>35.0</ele><time>2026-04-05T10:42:00.417Z</time></trkpt><trkpt lat="43.7873662" lon="11.156338"><ele>35.0</ele><time>2026-04-05T10:42:02.417Z</time></trkpt><trkpt lat="43.7873724" lon="11.1564452"><ele>35.0</ele><time>2026-04-05T10:42:04.418Z</time></trkpt><trkpt lat="43.7873855" lon="11.1565548"><ele>35.0</ele><time>2026-04-05T10:42:06.418Z</time></trkpt><trkpt lat="43.7873953" lon="11.1566612"><ele>35.0</ele><time>2026-04-05T10:42:08.417Z</time></trkpt><trkpt lat="43.7874014" lon="11.1567697"><ele>35.0</ele><time>2026-04-05T10:42:10.417Z</time></trkpt><trkpt lat="43.7874154" lon="11.1568768"><ele>35.0</ele><time>2026-04-05T10:42:12.418Z</time></trkpt><trkpt lat="43.7874335" lon="11.156985"><ele>35.166666666666664</ele><time>2026-04-05T10:42:14.417Z</time></trkpt><trkpt lat="43.7874517" lon="11.1570934"><ele>35.33333333333333</ele><time>2026-04-05T10:42:16.417Z</time></trkpt><trkpt lat="43.7874704" lon="11.157201"><ele>35.5</ele><time>2026-04-05T10:42:18.417Z</time></trkpt><trkpt lat="43.7874905" lon="11.1573103"><ele>35.666666666666664</ele><time>2026-04-05T10:42:20.416Z</time></trkpt><trkpt lat="43.7875099" lon="11.1574211"><ele>35.833333333333336</ele><time>2026-04-05T10:42:22.416Z</time></trkpt><trkpt lat="43.7875272" lon="11.1575321"><ele>36.0</ele><time>2026-04-05T10:42:24.416Z</time></trkpt><trkpt lat="43.787543" lon="11.1576446"><ele>36.0</ele><time>2026-04-05T10:42:26.417Z</time></trkpt><trkpt lat="43.7875593" lon="11.1577539"><ele>36.0</ele><time>2026-04-05T10:42:28.417Z</time></trkpt><trkpt lat="43.7875755" lon="11.1578653"><ele>36.0</ele><time>2026-04-05T10:42:30.416Z</time></trkpt><trkpt lat="43.7875953" lon="11.1579787"><ele>36.0</ele><time>2026-04-05T10:42:32.418Z</time></trkpt><trkpt lat="43.787615" lon="11.1580895"><ele>36.0</ele><time>2026-04-05T10:42:34.417Z</time></trkpt><trkpt lat="43.7876363" lon="11.1581968"><ele>36.0</ele><time>2026-04-05T10:42:36.416Z</time></trkpt><trkpt lat="43.7876553" lon="11.1583036"><ele>36.333333333333336</ele><time>2026-04-05T10:42:38.416Z</time></trkpt><trkpt lat="43.787672" lon="11.1584078"><ele>36.666666666666664</ele><time>2026-04-05T10:42:40.417Z</time></trkpt><trkpt lat="43.78769" lon="11.1585129"><ele>37.0</ele><time>2026-04-05T10:42:42.417Z</time></trkpt><trkpt lat="43.7877051" lon="11.1586209"><ele>37.33333333333333</ele><time>2026-04-05T10:42:44.417Z</time></trkpt><trkpt lat="43.7877262" lon="11.1587326"><ele>37.666666666666664</ele><time>2026-04-05T10:42:46.418Z</time></trkpt><trkpt lat="43.7877477" lon="11.1588391"><ele>38.0</ele><time>2026-04-05T10:42:48.416Z</time></trkpt><trkpt lat="43.7877697" lon="11.1589445"><ele>37.83333333333333</ele><time>2026-04-05T10:42:50.418Z</time></trkpt><trkpt lat="43.7877943" lon="11.1590525"><ele>37.666666666666664</ele><time>2026-04-05T10:42:52.417Z</time></trkpt><trkpt lat="43.7878146" lon="11.1591607"><ele>37.5</ele><time>2026-04-05T10:42:54.417Z</time></trkpt><trkpt lat="43.7878325" lon="11.1592657"><ele>37.333333333333336</ele><time>2026-04-05T10:42:56.418Z</time></trkpt><trkpt lat="43.7878547" lon="11.159372"><ele>37.16666666666667</ele><time>2026-04-05T10:42:58.417Z</time></trkpt><trkpt lat="43.787879" lon="11.1594811"><ele>37.0</ele><time>2026-04-05T10:43:00.417Z</time></trkpt><trkpt lat="43.7879027" lon="11.1595917"><ele>37.0</ele><time>2026-04-05T10:43:02.417Z</time></trkpt><trkpt lat="43.7879233" lon="11.1597013"><ele>37.0</ele><time>2026-04-05T10:43:04.417Z</time></trkpt><trkpt lat="43.7879406" lon="11.1598085"><ele>37.0</ele><time>2026-04-05T10:43:06.417Z</time></trkpt><trkpt lat="43.7879554" lon="11.1599161"><ele>37.0</ele><time>2026-04-05T10:43:08.415Z</time></trkpt><trkpt lat="43.7879753" lon="11.1600239"><ele>37.0</ele><time>2026-04-05T10:43:10.416Z</time></trkpt><trkpt lat="43.7879966" lon="11.1601349"><ele>37.0</ele><time>2026-04-05T10:43:12.417Z</time></trkpt><trkpt lat="43.7880148" lon="11.1602478"><ele>36.833333333333336</ele><time>2026-04-05T10:43:14.417Z</time></trkpt><trkpt lat="43.7880346" lon="11.160363"><ele>36.66666666666667</ele><time>2026-04-05T10:43:16.415Z</time></trkpt><trkpt lat="43.7880525" lon="11.1604785"><ele>36.5</ele><time>2026-04-05T10:43:18.416Z</time></trkpt><trkpt lat="43.7880651" lon="11.1605908"><ele>36.333333333333336</ele><time>2026-04-05T10:43:20.417Z</time></trkpt><trkpt lat="43.7880815" lon="11.1607015"><ele>36.166666666666664</ele><time>2026-04-05T10:43:22.417Z</time></trkpt><trkpt lat="43.7881038" lon="11.1608122"><ele>36.0</ele><time>2026-04-05T10:43:24.418Z</time></trkpt><trkpt lat="43.7881224" lon="11.1609235"><ele>36.0</ele><time>2026-04-05T10:43:26.418Z</time></trkpt><trkpt lat="43.7881437" lon="11.1610318"><ele>36.0</ele><time>2026-04-05T10:43:28.417Z</time></trkpt><trkpt lat="43.788165" lon="11.1611391"><ele>36.0</ele><time>2026-04-05T10:43:30.416Z</time></trkpt><trkpt lat="43.7881867" lon="11.1612491"><ele>36.0</ele><time>2026-04-05T10:43:32.418Z</time></trkpt><trkpt lat="43.7882112" lon="11.1613586"><ele>36.0</ele><time>2026-04-05T10:43:34.416Z</time></trkpt><trkpt lat="43.7882358" lon="11.1614649"><ele>36.0</ele><time>2026-04-05T10:43:36.416Z</time></trkpt><trkpt lat="43.7882544" lon="11.1615713"><ele>36.0</ele><time>2026-04-05T10:43:38.417Z</time></trkpt><trkpt lat="43.7882714" lon="11.1616794"><ele>36.0</ele><time>2026-04-05T10:43:40.417Z</time></trkpt><trkpt lat="43.7882854" lon="11.1617868"><ele>36.0</ele><time>2026-04-05T10:43:42.416Z</time></trkpt><trkpt lat="43.7882993" lon="11.161896"><ele>36.0</ele><time>2026-04-05T10:43:44.417Z</time></trkpt><trkpt lat="43.788314" lon="11.1620029"><ele>36.0</ele><time>2026-04-05T10:43:46.416Z</time></trkpt><trkpt lat="43.7883307" lon="11.1621118"><ele>36.0</ele><time>2026-04-05T10:43:48.418Z</time></trkpt><trkpt lat="43.7883445" lon="11.162222"><ele>36.0</ele><time>2026-04-05T10:43:50.417Z</time></trkpt><trkpt lat="43.7883597" lon="11.1623276"><ele>36.0</ele><time>2026-04-05T10:43:52.417Z</time></trkpt><trkpt lat="43.7883721" lon="11.1624344"><ele>36.0</ele><time>2026-04-05T10:43:54.417Z</time></trkpt><trkpt lat="43.7883831" lon="11.162543"><ele>36.0</ele><time>2026-04-05T10:43:56.417Z</time></trkpt><trkpt lat="43.7883934" lon="11.16265"><ele>36.0</ele><time>2026-04-05T10:43:58.416Z</time></trkpt><trkpt lat="43.7884066" lon="11.162759"><ele>36.0</ele><time>2026-04-05T10:44:00.417Z</time></trkpt><trkpt lat="43.78842" lon="11.1628695"><ele>36.0</ele><time>2026-04-05T10:44:02.416Z</time></trkpt><trkpt lat="43.7884343" lon="11.1629816"><ele>36.0</ele><time>2026-04-05T10:44:04.416Z</time></trkpt><trkpt lat="43.7884441" lon="11.1630949"><ele>36.0</ele><time>2026-04-05T10:44:06.416Z</time></trkpt><trkpt lat="43.7884526" lon="11.1632008"><ele>36.0</ele><time>2026-04-05T10:44:08.416Z</time></trkpt><trkpt lat="43.7884636" lon="11.1633083"><ele>36.0</ele><time>2026-04-05T10:44:10.416Z</time></trkpt><trkpt lat="43.788474" lon="11.1634103"><ele>36.0</ele><time>2026-04-05T10:44:12.416Z</time></trkpt><trkpt lat="43.7884829" lon="11.163507"><ele>36.0</ele><time>2026-04-05T10:44:14.416Z</time></trkpt><trkpt lat="43.7884753" lon="11.1636055"><ele>36.0</ele><time>2026-04-05T10:44:16.416Z</time></trkpt><trkpt lat="43.7884874" lon="11.1637047"><ele>36.0</ele><time>2026-04-05T10:44:18.417Z</time></trkpt><trkpt lat="43.7885297" lon="11.1637899"><ele>36.0</ele><time>2026-04-05T10:44:20.416Z</time></trkpt><trkpt lat="43.7885642" lon="11.163882"><ele>36.0</ele><time>2026-04-05T10:44:22.416Z</time></trkpt><trkpt lat="43.7885933" lon="11.1639876"><ele>36.0</ele><time>2026-04-05T10:44:24.416Z</time></trkpt><trkpt lat="43.7886242" lon="11.1640933"><ele>36.0</ele><time>2026-04-05T10:44:26.415Z</time></trkpt><trkpt lat="43.7886509" lon="11.164197"><ele>36.0</ele><time>2026-04-05T10:44:28.416Z</time></trkpt><trkpt lat="43.7886673" lon="11.1642986"><ele>36.0</ele><time>2026-04-05T10:44:30.417Z</time></trkpt><trkpt lat="43.7886812" lon="11.1643985"><ele>36.0</ele><time>2026-04-05T10:44:32.416Z</time></trkpt><trkpt lat="43.7886968" lon="11.1644983"><ele>36.0</ele><time>2026-04-05T10:44:34.416Z</time></trkpt><trkpt lat="43.7887115" lon="11.1646033"><ele>36.0</ele><time>2026-04-05T10:44:36.417Z</time></trkpt><trkpt lat="43.7887282" lon="11.1647126"><ele>36.0</ele><time>2026-04-05T10:44:38.416Z</time></trkpt><trkpt lat="43.7887534" lon="11.1648254"><ele>36.0</ele><time>2026-04-05T10:44:40.416Z</time></trkpt><trkpt lat="43.7887794" lon="11.1649406"><ele>36.0</ele><time>2026-04-05T10:44:42.416Z</time></trkpt><trkpt lat="43.7888159" lon="11.1650508"><ele>36.0</ele><time>2026-04-05T10:44:44.417Z</time></trkpt><trkpt lat="43.7888582" lon="11.165147"><ele>36.0</ele><time>2026-04-05T10:44:46.417Z</time></trkpt><trkpt lat="43.7888667" lon="11.1652543"><ele>36.0</ele><time>2026-04-05T10:44:49.416Z</time></trkpt><trkpt lat="43.7888406" lon="11.1653745"><ele>36.166666666666664</ele><time>2026-04-05T10:44:52.416Z</time></trkpt><trkpt lat="43.7888814" lon="11.1654648"><ele>36.333333333333336</ele><time>2026-04-05T10:44:54.417Z</time></trkpt><trkpt lat="43.788949" lon="11.165526"><ele>36.5</ele><time>2026-04-05T10:44:56.416Z</time></trkpt><trkpt lat="43.7889961" lon="11.1656082"><ele>36.66666666666667</ele><time>2026-04-05T10:44:58.416Z</time></trkpt><trkpt lat="43.7890033" lon="11.1657188"><ele>36.833333333333336</ele><time>2026-04-05T10:45:00.417Z</time></trkpt><trkpt lat="43.7889961" lon="11.1658374"><ele>37.0</ele><time>2026-04-05T10:45:02.417Z</time></trkpt><trkpt lat="43.7889994" lon="11.1659593"><ele>37.0</ele><time>2026-04-05T10:45:04.416Z</time></trkpt><trkpt lat="43.7890073" lon="11.1660792"><ele>37.0</ele><time>2026-04-05T10:45:06.416Z</time></trkpt><trkpt lat="43.7890164" lon="11.1661913"><ele>37.0</ele><time>2026-04-05T10:45:08.416Z</time></trkpt><trkpt lat="43.7890208" lon="11.166293"><ele>37.0</ele><time>2026-04-05T10:45:10.415Z</time></trkpt><trkpt lat="43.7890309" lon="11.1663911"><ele>37.0</ele><time>2026-04-05T10:45:12.416Z</time></trkpt><trkpt lat="43.7890433" lon="11.1664994"><ele>37.0</ele><time>2026-04-05T10:45:14.416Z</time></trkpt><trkpt lat="43.7890563" lon="11.1666211"><ele>36.66666666666667</ele><time>2026-04-05T10:45:16.416Z</time></trkpt><trkpt lat="43.7890698" lon="11.1667455"><ele>36.333333333333336</ele><time>2026-04-05T10:45:18.415Z</time></trkpt><trkpt lat="43.7890813" lon="11.1668619"><ele>36.0</ele><time>2026-04-05T10:45:20.416Z</time></trkpt><trkpt lat="43.7890898" lon="11.1669653"><ele>35.666666666666664</ele><time>2026-04-05T10:45:22.417Z</time></trkpt><trkpt lat="43.7890996" lon="11.1670625"><ele>35.33333333333333</ele><time>2026-04-05T10:45:24.416Z</time></trkpt><trkpt lat="43.789108" lon="11.1671645"><ele>35.0</ele><time>2026-04-05T10:45:26.415Z</time></trkpt><trkpt lat="43.7891125" lon="11.1672762"><ele>35.0</ele><time>2026-04-05T10:45:28.416Z</time></trkpt><trkpt lat="43.7891187" lon="11.1673915"><ele>35.0</ele><time>2026-04-05T10:45:30.416Z</time></trkpt><trkpt lat="43.7891251" lon="11.1675012"><ele>35.0</ele><time>2026-04-05T10:45:32.416Z</time></trkpt><trkpt lat="43.7891291" lon="11.1676152"><ele>35.0</ele><time>2026-04-05T10:45:34.417Z</time></trkpt><trkpt lat="43.7891385" lon="11.1677282"><ele>35.0</ele><time>2026-04-05T10:45:36.417Z</time></trkpt><trkpt lat="43.7891493" lon="11.1678403"><ele>35.0</ele><time>2026-04-05T10:45:38.416Z</time></trkpt><trkpt lat="43.7891531" lon="11.1679481"><ele>35.0</ele><time>2026-04-05T10:45:40.416Z</time></trkpt><trkpt lat="43.7891579" lon="11.1680588"><ele>35.0</ele><time>2026-04-05T10:45:42.416Z</time></trkpt><trkpt lat="43.7891591" lon="11.1681718"><ele>35.0</ele><time>2026-04-05T10:45:44.415Z</time></trkpt><trkpt lat="43.7891603" lon="11.1682813"><ele>35.0</ele><time>2026-04-05T10:45:46.417Z</time></trkpt><trkpt lat="43.7891662" lon="11.1683971"><ele>35.0</ele><time>2026-04-05T10:45:48.417Z</time></trkpt><trkpt lat="43.7891759" lon="11.16851"><ele>35.0</ele><time>2026-04-05T10:45:50.417Z</time></trkpt><trkpt lat="43.7891826" lon="11.1686244"><ele>35.166666666666664</ele><time>2026-04-05T10:45:52.416Z</time></trkpt><trkpt lat="43.7891917" lon="11.1687376"><ele>35.33333333333333</ele><time>2026-04-05T10:45:54.416Z</time></trkpt><trkpt lat="43.7892025" lon="11.1688466"><ele>35.5</ele><time>2026-04-05T10:45:56.417Z</time></trkpt><trkpt lat="43.7892171" lon="11.1689536"><ele>35.666666666666664</ele><time>2026-04-05T10:45:58.415Z</time></trkpt><trkpt lat="43.7892264" lon="11.1690665"><ele>35.833333333333336</ele><time>2026-04-05T10:46:00.416Z</time></trkpt><trkpt lat="43.7892394" lon="11.1691821"><ele>36.0</ele><time>2026-04-05T10:46:02.416Z</time></trkpt><trkpt lat="43.789251" lon="11.169296"><ele>36.0</ele><time>2026-04-05T10:46:04.417Z</time></trkpt><trkpt lat="43.7892642" lon="11.1694088"><ele>36.0</ele><time>2026-04-05T10:46:06.416Z</time></trkpt><trkpt lat="43.7892826" lon="11.16952"><ele>36.0</ele><time>2026-04-05T10:46:08.416Z</time></trkpt><trkpt lat="43.7892983" lon="11.169628"><ele>36.0</ele><time>2026-04-05T10:46:10.416Z</time></trkpt><trkpt lat="43.7893093" lon="11.169735"><ele>36.0</ele><time>2026-04-05T10:46:12.416Z</time></trkpt><trkpt lat="43.7893209" lon="11.169847"><ele>36.0</ele><time>2026-04-05T10:46:14.417Z</time></trkpt><trkpt lat="43.789333" lon="11.1699597"><ele>36.5</ele><time>2026-04-05T10:46:16.416Z</time></trkpt><trkpt lat="43.7893466" lon="11.1700738"><ele>37.0</ele><time>2026-04-05T10:46:18.416Z</time></trkpt><trkpt lat="43.7893576" lon="11.1701873"><ele>37.5</ele><time>2026-04-05T10:46:20.415Z</time></trkpt><trkpt lat="43.7893673" lon="11.1702972"><ele>38.0</ele><time>2026-04-05T10:46:22.416Z</time></trkpt><trkpt lat="43.7893761" lon="11.170411"><ele>38.5</ele><time>2026-04-05T10:46:24.416Z</time></trkpt><trkpt lat="43.7893827" lon="11.1705243"><ele>39.0</ele><time>2026-04-05T10:46:26.417Z</time></trkpt><trkpt lat="43.7893874" lon="11.1706354"><ele>38.833333333333336</ele><time>2026-04-05T10:46:28.416Z</time></trkpt><trkpt lat="43.7893969" lon="11.170746"><ele>38.666666666666664</ele><time>2026-04-05T10:46:30.415Z</time></trkpt><trkpt lat="43.7894087" lon="11.1708577"><ele>38.5</ele><time>2026-04-05T10:46:32.416Z</time></trkpt><trkpt lat="43.7894227" lon="11.1709662"><ele>38.33333333333333</ele><time>2026-04-05T10:46:34.416Z</time></trkpt><trkpt lat="43.7894358" lon="11.1710766"><ele>38.166666666666664</ele><time>2026-04-05T10:46:36.417Z</time></trkpt><trkpt lat="43.7894475" lon="11.1711899"><ele>38.0</ele><time>2026-04-05T10:46:38.416Z</time></trkpt><trkpt lat="43.7894566" lon="11.1713033"><ele>38.0</ele><time>2026-04-05T10:46:40.415Z</time></trkpt><trkpt lat="43.7894694" lon="11.1714117"><ele>38.0</ele><time>2026-04-05T10:46:42.417Z</time></trkpt><trkpt lat="43.7894784" lon="11.1715188"><ele>38.0</ele><time>2026-04-05T10:46:44.416Z</time></trkpt><trkpt lat="43.7894886" lon="11.1716178"><ele>38.0</ele><time>2026-04-05T10:46:46.415Z</time></trkpt><trkpt lat="43.7894977" lon="11.1717182"><ele>38.0</ele><time>2026-04-05T10:46:48.416Z</time></trkpt><trkpt lat="43.7895085" lon="11.1718222"><ele>38.0</ele><time>2026-04-05T10:46:50.415Z</time></trkpt><trkpt lat="43.789518" lon="11.1719313"><ele>37.83333333333333</ele><time>2026-04-05T10:46:52.416Z</time></trkpt><trkpt lat="43.789524" lon="11.1720421"><ele>37.666666666666664</ele><time>2026-04-05T10:46:54.417Z</time></trkpt><trkpt lat="43.7895314" lon="11.1721524"><ele>37.5</ele><time>2026-04-05T10:46:56.417Z</time></trkpt><trkpt lat="43.7895449" lon="11.1722609"><ele>37.333333333333336</ele><time>2026-04-05T10:46:58.415Z</time></trkpt><trkpt lat="43.7895593" lon="11.1723707"><ele>37.16666666666667</ele><time>2026-04-05T10:47:00.416Z</time></trkpt><trkpt lat="43.7895639" lon="11.1724802"><ele>37.0</ele><time>2026-04-05T10:47:02.417Z</time></trkpt><trkpt lat="43.7895689" lon="11.1725871"><ele>37.0</ele><time>2026-04-05T10:47:04.417Z</time></trkpt><trkpt lat="43.7895804" lon="11.1726922"><ele>37.0</ele><time>2026-04-05T10:47:06.416Z</time></trkpt><trkpt lat="43.7895918" lon="11.1727987"><ele>37.0</ele><time>2026-04-05T10:47:08.415Z</time></trkpt><trkpt lat="43.7896046" lon="11.1729073"><ele>37.0</ele><time>2026-04-05T10:47:10.416Z</time></trkpt><trkpt lat="43.7896177" lon="11.1730146"><ele>37.0</ele><time>2026-04-05T10:47:12.416Z</time></trkpt><trkpt lat="43.7896317" lon="11.1731189"><ele>37.0</ele><time>2026-04-05T10:47:14.416Z</time></trkpt><trkpt lat="43.7896486" lon="11.1732224"><ele>37.0</ele><time>2026-04-05T10:47:16.416Z</time></trkpt><trkpt lat="43.789667" lon="11.1733274"><ele>37.0</ele><time>2026-04-05T10:47:18.416Z</time></trkpt><trkpt lat="43.7896826" lon="11.1734379"><ele>37.0</ele><time>2026-04-05T10:47:20.417Z</time></trkpt><trkpt lat="43.7896979" lon="11.1735533"><ele>37.0</ele><time>2026-04-05T10:47:22.401Z</time></trkpt><trkpt lat="43.789712" lon="11.1736634"><ele>37.0</ele><time>2026-04-05T10:47:24.415Z</time></trkpt><trkpt lat="43.7897206" lon="11.1737757"><ele>37.0</ele><time>2026-04-05T10:47:26.416Z</time></trkpt><trkpt lat="43.7897323" lon="11.1738865"><ele>37.0</ele><time>2026-04-05T10:47:28.417Z</time></trkpt><trkpt lat="43.7897386" lon="11.1739997"><ele>37.0</ele><time>2026-04-05T10:47:30.416Z</time></trkpt><trkpt lat="43.7897488" lon="11.1741083"><ele>37.0</ele><time>2026-04-05T10:47:32.353Z</time></trkpt><trkpt lat="43.7897602" lon="11.174219"><ele>37.0</ele><time>2026-04-05T10:47:34.414Z</time></trkpt><trkpt lat="43.7897655" lon="11.174323"><ele>37.0</ele><time>2026-04-05T10:47:36.415Z</time></trkpt><trkpt lat="43.7897738" lon="11.1744135"><ele>37.0</ele><time>2026-04-05T10:47:38.416Z</time></trkpt><trkpt lat="43.7897802" lon="11.1745167"><ele>37.0</ele><time>2026-04-05T10:47:40.415Z</time></trkpt><trkpt lat="43.789788" lon="11.1746243"><ele>37.0</ele><time>2026-04-05T10:47:42.415Z</time></trkpt><trkpt lat="43.7897932" lon="11.1747329"><ele>37.0</ele><time>2026-04-05T10:47:44.415Z</time></trkpt><trkpt lat="43.789798" lon="11.1748401"><ele>37.0</ele><time>2026-04-05T10:47:46.415Z</time></trkpt><trkpt lat="43.7898007" lon="11.1749478"><ele>37.0</ele><time>2026-04-05T10:47:48.417Z</time></trkpt><trkpt lat="43.7897959" lon="11.1750615"><ele>37.0</ele><time>2026-04-05T10:47:50.417Z</time></trkpt><trkpt lat="43.7897897" lon="11.1751808"><ele>37.0</ele><time>2026-04-05T10:47:52.415Z</time></trkpt><trkpt lat="43.7897819" lon="11.1753018"><ele>37.0</ele><time>2026-04-05T10:47:54.415Z</time></trkpt><trkpt lat="43.7897778" lon="11.1754256"><ele>37.0</ele><time>2026-04-05T10:47:56.415Z</time></trkpt><trkpt lat="43.7897694" lon="11.1755425"><ele>37.0</ele><time>2026-04-05T10:47:58.417Z</time></trkpt><trkpt lat="43.7897665" lon="11.1756514"><ele>37.0</ele><time>2026-04-05T10:48:00.416Z</time></trkpt><trkpt lat="43.7897716" lon="11.1757573"><ele>37.0</ele><time>2026-04-05T10:48:02.414Z</time></trkpt><trkpt lat="43.7897876" lon="11.1758653"><ele>36.66666666666667</ele><time>2026-04-05T10:48:04.416Z</time></trkpt><trkpt lat="43.7898051" lon="11.1759708"><ele>36.333333333333336</ele><time>2026-04-05T10:48:06.416Z</time></trkpt><trkpt lat="43.7898179" lon="11.1760737"><ele>36.0</ele><time>2026-04-05T10:48:08.415Z</time></trkpt><trkpt lat="43.7898305" lon="11.1761778"><ele>35.666666666666664</ele><time>2026-04-05T10:48:10.417Z</time></trkpt><trkpt lat="43.7898455" lon="11.1762855"><ele>35.33333333333333</ele><time>2026-04-05T10:48:12.416Z</time></trkpt><trkpt lat="43.789851" lon="11.176391"><ele>35.0</ele><time>2026-04-05T10:48:14.415Z</time></trkpt><trkpt lat="43.7898618" lon="11.176496"><ele>35.0</ele><time>2026-04-05T10:48:16.416Z</time></trkpt><trkpt lat="43.7898691" lon="11.1766004"><ele>35.0</ele><time>2026-04-05T10:48:18.416Z</time></trkpt><trkpt lat="43.7898798" lon="11.1767113"><ele>35.0</ele><time>2026-04-05T10:48:20.416Z</time></trkpt><trkpt lat="43.7898897" lon="11.1768274"><ele>35.0</ele><time>2026-04-05T10:48:22.416Z</time></trkpt><trkpt lat="43.7899005" lon="11.1769409"><ele>35.0</ele><time>2026-04-05T10:48:24.417Z</time></trkpt><trkpt lat="43.7899086" lon="11.1770616"><ele>35.0</ele><time>2026-04-05T10:48:26.415Z</time></trkpt><trkpt lat="43.7899186" lon="11.1771743"><ele>35.0</ele><time>2026-04-05T10:48:28.415Z</time></trkpt><trkpt lat="43.7899264" lon="11.1772804"><ele>35.0</ele><time>2026-04-05T10:48:30.416Z</time></trkpt><trkpt lat="43.7899346" lon="11.1773933"><ele>35.0</ele><time>2026-04-05T10:48:32.416Z</time></trkpt><trkpt lat="43.7899452" lon="11.1775043"><ele>35.0</ele><time>2026-04-05T10:48:34.416Z</time></trkpt><trkpt lat="43.7899531" lon="11.1776168"><ele>35.0</ele><time>2026-04-05T10:48:36.415Z</time></trkpt><trkpt lat="43.7899666" lon="11.1777303"><ele>35.0</ele><time>2026-04-05T10:48:38.415Z</time></trkpt><trkpt lat="43.7899782" lon="11.1778435"><ele>35.0</ele><time>2026-04-05T10:48:40.415Z</time></trkpt><trkpt lat="43.7899864" lon="11.1779602"><ele>35.0</ele><time>2026-04-05T10:48:42.416Z</time></trkpt><trkpt lat="43.7899958" lon="11.1780765"><ele>35.0</ele><time>2026-04-05T10:48:44.415Z</time></trkpt><trkpt lat="43.7900055" lon="11.1781895"><ele>35.0</ele><time>2026-04-05T10:48:46.415Z</time></trkpt><trkpt lat="43.7900136" lon="11.1782991"><ele>35.0</ele><time>2026-04-05T10:48:48.417Z</time></trkpt><trkpt lat="43.7900211" lon="11.1784094"><ele>35.0</ele><time>2026-04-05T10:48:50.415Z</time></trkpt><trkpt lat="43.7900277" lon="11.1785206"><ele>35.0</ele><time>2026-04-05T10:48:52.415Z</time></trkpt><trkpt lat="43.7900356" lon="11.1786339"><ele>35.0</ele><time>2026-04-05T10:48:54.416Z</time></trkpt><trkpt lat="43.7900455" lon="11.1787453"><ele>35.0</ele><time>2026-04-05T10:48:56.415Z</time></trkpt><trkpt lat="43.7900639" lon="11.1788575"><ele>35.0</ele><time>2026-04-05T10:48:58.415Z</time></trkpt><trkpt lat="43.7900738" lon="11.1789716"><ele>35.0</ele><time>2026-04-05T10:49:00.416Z</time></trkpt><trkpt lat="43.7900841" lon="11.1790875"><ele>35.0</ele><time>2026-04-05T10:49:02.416Z</time></trkpt><trkpt lat="43.7900956" lon="11.1792007"><ele>34.83333333333333</ele><time>2026-04-05T10:49:04.416Z</time></trkpt><trkpt lat="43.7901057" lon="11.1793181"><ele>34.666666666666664</ele><time>2026-04-05T10:49:06.415Z</time></trkpt><trkpt lat="43.7901193" lon="11.1794371"><ele>34.5</ele><time>2026-04-05T10:49:08.416Z</time></trkpt><trkpt lat="43.7901312" lon="11.1795553"><ele>34.333333333333336</ele><time>2026-04-05T10:49:10.415Z</time></trkpt><trkpt lat="43.790151" lon="11.1796671"><ele>34.16666666666667</ele><time>2026-04-05T10:49:12.415Z</time></trkpt><trkpt lat="43.7901725" lon="11.1797762"><ele>34.0</ele><time>2026-04-05T10:49:14.415Z</time></trkpt><trkpt lat="43.7901962" lon="11.1798851"><ele>34.5</ele><time>2026-04-05T10:49:16.415Z</time></trkpt><trkpt lat="43.7902206" lon="11.1799927"><ele>35.0</ele><time>2026-04-05T10:49:18.416Z</time></trkpt><trkpt lat="43.790242" lon="11.1801022"><ele>35.5</ele><time>2026-04-05T10:49:20.415Z</time></trkpt><trkpt lat="43.7902633" lon="11.1802069"><ele>36.0</ele><time>2026-04-05T10:49:22.415Z</time></trkpt><trkpt lat="43.7902815" lon="11.1803097"><ele>36.5</ele><time>2026-04-05T10:49:24.415Z</time></trkpt><trkpt lat="43.7902954" lon="11.1804182"><ele>37.0</ele><time>2026-04-05T10:49:26.415Z</time></trkpt><trkpt lat="43.7903038" lon="11.1805243"><ele>37.0</ele><time>2026-04-05T10:49:28.415Z</time></trkpt><trkpt lat="43.7903143" lon="11.18063"><ele>37.0</ele><time>2026-04-05T10:49:30.416Z</time></trkpt><trkpt lat="43.7903255" lon="11.1807369"><ele>37.0</ele><time>2026-04-05T10:49:32.415Z</time></trkpt><trkpt lat="43.7903366" lon="11.1808459"><ele>37.0</ele><time>2026-04-05T10:49:34.415Z</time></trkpt><trkpt lat="43.7903467" lon="11.1809542"><ele>37.0</ele><time>2026-04-05T10:49:36.416Z</time></trkpt><trkpt lat="43.7903584" lon="11.1810638"><ele>37.0</ele><time>2026-04-05T10:49:38.415Z</time></trkpt><trkpt lat="43.7903677" lon="11.1811741"><ele>37.16666666666667</ele><time>2026-04-05T10:49:40.415Z</time></trkpt><trkpt lat="43.7903722" lon="11.181285"><ele>37.333333333333336</ele><time>2026-04-05T10:49:42.416Z</time></trkpt><trkpt lat="43.7903807" lon="11.1813937"><ele>37.5</ele><time>2026-04-05T10:49:44.415Z</time></trkpt><trkpt lat="43.7903874" lon="11.1815021"><ele>37.666666666666664</ele><time>2026-04-05T10:49:46.415Z</time></trkpt><trkpt lat="43.7903959" lon="11.1816107"><ele>37.83333333333333</ele><time>2026-04-05T10:49:48.415Z</time></trkpt><trkpt lat="43.7904056" lon="11.1817216"><ele>38.0</ele><time>2026-04-05T10:49:50.414Z</time></trkpt><trkpt lat="43.7904126" lon="11.1818315"><ele>38.0</ele><time>2026-04-05T10:49:52.415Z</time></trkpt><trkpt lat="43.7904243" lon="11.1819451"><ele>38.0</ele><time>2026-04-05T10:49:54.416Z</time></trkpt><trkpt lat="43.7904351" lon="11.1820578"><ele>38.0</ele><time>2026-04-05T10:49:56.415Z</time></trkpt><trkpt lat="43.7904478" lon="11.182169"><ele>38.0</ele><time>2026-04-05T10:49:58.416Z</time></trkpt><trkpt lat="43.7904636" lon="11.1822779"><ele>38.0</ele><time>2026-04-05T10:50:00.416Z</time></trkpt><trkpt lat="43.7904763" lon="11.1823829"><ele>38.0</ele><time>2026-04-05T10:50:02.416Z</time></trkpt><trkpt lat="43.7904884" lon="11.1824926"><ele>38.0</ele><time>2026-04-05T10:50:04.416Z</time></trkpt><trkpt lat="43.7904988" lon="11.1826081"><ele>38.0</ele><time>2026-04-05T10:50:06.416Z</time></trkpt><trkpt lat="43.7905066" lon="11.182723"><ele>38.0</ele><time>2026-04-05T10:50:08.416Z</time></trkpt><trkpt lat="43.7905177" lon="11.1828363"><ele>38.0</ele><time>2026-04-05T10:50:10.416Z</time></trkpt><trkpt lat="43.7905305" lon="11.1829466"><ele>38.0</ele><time>2026-04-05T10:50:12.415Z</time></trkpt><trkpt lat="43.7905398" lon="11.1830582"><ele>38.0</ele><time>2026-04-05T10:50:14.416Z</time></trkpt><trkpt lat="43.7905494" lon="11.1831685"><ele>38.166666666666664</ele><time>2026-04-05T10:50:16.415Z</time></trkpt><trkpt lat="43.7905601" lon="11.183278"><ele>38.33333333333333</ele><time>2026-04-05T10:50:18.415Z</time></trkpt><trkpt lat="43.790572" lon="11.1833899"><ele>38.5</ele><time>2026-04-05T10:50:20.415Z</time></trkpt><trkpt lat="43.790584" lon="11.1835027"><ele>38.666666666666664</ele><time>2026-04-05T10:50:22.415Z</time></trkpt><trkpt lat="43.7905957" lon="11.1836151"><ele>38.833333333333336</ele><time>2026-04-05T10:50:24.416Z</time></trkpt><trkpt lat="43.7906064" lon="11.1837241"><ele>39.0</ele><time>2026-04-05T10:50:26.415Z</time></trkpt><trkpt lat="43.7906127" lon="11.1838365"><ele>39.0</ele><time>2026-04-05T10:50:28.415Z</time></trkpt><trkpt lat="43.7906175" lon="11.1839487"><ele>39.0</ele><time>2026-04-05T10:50:30.415Z</time></trkpt><trkpt lat="43.7906272" lon="11.1840594"><ele>39.0</ele><time>2026-04-05T10:50:32.415Z</time></trkpt><trkpt lat="43.790636" lon="11.1841728"><ele>39.0</ele><time>2026-04-05T10:50:34.416Z</time></trkpt><trkpt lat="43.7906486" lon="11.1842891"><ele>39.0</ele><time>2026-04-05T10:50:36.416Z</time></trkpt><trkpt lat="43.7906566" lon="11.1844026"><ele>39.0</ele><time>2026-04-05T10:50:38.415Z</time></trkpt><trkpt lat="43.790663" lon="11.1845143"><ele>38.666666666666664</ele><time>2026-04-05T10:50:40.416Z</time></trkpt><trkpt lat="43.7906686" lon="11.1846248"><ele>38.333333333333336</ele><time>2026-04-05T10:50:42.415Z</time></trkpt><trkpt lat="43.7906768" lon="11.1847373"><ele>38.0</ele><time>2026-04-05T10:50:44.416Z</time></trkpt><trkpt lat="43.7906851" lon="11.1848483"><ele>37.66666666666667</ele><time>2026-04-05T10:50:46.415Z</time></trkpt><trkpt lat="43.7906905" lon="11.184959"><ele>37.333333333333336</ele><time>2026-04-05T10:50:48.415Z</time></trkpt><trkpt lat="43.7906946" lon="11.1850746"><ele>37.0</ele><time>2026-04-05T10:50:50.414Z</time></trkpt><trkpt lat="43.7906933" lon="11.1851897"><ele>36.66666666666667</ele><time>2026-04-05T10:50:52.416Z</time></trkpt><trkpt lat="43.7906899" lon="11.1853036"><ele>36.333333333333336</ele><time>2026-04-05T10:50:54.416Z</time></trkpt><trkpt lat="43.7906912" lon="11.1854188"><ele>36.0</ele><time>2026-04-05T10:50:56.416Z</time></trkpt><trkpt lat="43.790703" lon="11.1855315"><ele>35.666666666666664</ele><time>2026-04-05T10:50:58.415Z</time></trkpt><trkpt lat="43.7907195" lon="11.1856417"><ele>35.33333333333333</ele><time>2026-04-05T10:51:00.416Z</time></trkpt><trkpt lat="43.7907373" lon="11.1857493"><ele>35.0</ele><time>2026-04-05T10:51:02.415Z</time></trkpt><trkpt lat="43.7907568" lon="11.1858539"><ele>35.0</ele><time>2026-04-05T10:51:04.415Z</time></trkpt><trkpt lat="43.7907807" lon="11.1859488"><ele>35.0</ele><time>2026-04-05T10:51:06.415Z</time></trkpt><trkpt lat="43.7908014" lon="11.1860334"><ele>35.0</ele><time>2026-04-05T10:51:08.415Z</time></trkpt><trkpt lat="43.7908101" lon="11.1861324"><ele>35.0</ele><time>2026-04-05T10:51:10.415Z</time></trkpt><trkpt lat="43.7908137" lon="11.1862398"><ele>35.0</ele><time>2026-04-05T10:51:12.414Z</time></trkpt><trkpt lat="43.7908198" lon="11.1863525"><ele>35.0</ele><time>2026-04-05T10:51:14.416Z</time></trkpt><trkpt lat="43.7908285" lon="11.1864658"><ele>34.83333333333333</ele><time>2026-04-05T10:51:16.415Z</time></trkpt><trkpt lat="43.790838" lon="11.1865795"><ele>34.666666666666664</ele><time>2026-04-05T10:51:18.415Z</time></trkpt><trkpt lat="43.7908489" lon="11.1866927"><ele>34.5</ele><time>2026-04-05T10:51:20.416Z</time></trkpt><trkpt lat="43.790855" lon="11.1868099"><ele>34.333333333333336</ele><time>2026-04-05T10:51:22.416Z</time></trkpt><trkpt lat="43.7908575" lon="11.1869262"><ele>34.16666666666667</ele><time>2026-04-05T10:51:24.415Z</time></trkpt><trkpt lat="43.7908602" lon="11.1870385"><ele>34.0</ele><time>2026-04-05T10:51:26.415Z</time></trkpt><trkpt lat="43.7908658" lon="11.1871492"><ele>34.0</ele><time>2026-04-05T10:51:28.415Z</time></trkpt><trkpt lat="43.7908749" lon="11.1872602"><ele>34.0</ele><time>2026-04-05T10:51:30.415Z</time></trkpt><trkpt lat="43.7908848" lon="11.1873729"><ele>34.0</ele><time>2026-04-05T10:51:32.414Z</time></trkpt><trkpt lat="43.7908939" lon="11.1874859"><ele>34.0</ele><time>2026-04-05T10:51:34.416Z</time></trkpt><trkpt lat="43.7909016" lon="11.1875987"><ele>34.0</ele><time>2026-04-05T10:51:36.416Z</time></trkpt><trkpt lat="43.7909114" lon="11.1877122"><ele>34.0</ele><time>2026-04-05T10:51:38.416Z</time></trkpt><trkpt lat="43.7909221" lon="11.1878219"><ele>34.0</ele><time>2026-04-05T10:51:40.415Z</time></trkpt><trkpt lat="43.790931" lon="11.1879274"><ele>34.0</ele><time>2026-04-05T10:51:42.416Z</time></trkpt><trkpt lat="43.7909408" lon="11.1880391"><ele>34.0</ele><time>2026-04-05T10:51:44.415Z</time></trkpt><trkpt lat="43.7909498" lon="11.1881612"><ele>34.0</ele><time>2026-04-05T10:51:46.416Z</time></trkpt><trkpt lat="43.7909682" lon="11.1882855"><ele>34.0</ele><time>2026-04-05T10:51:48.416Z</time></trkpt><trkpt lat="43.790987" lon="11.1884045"><ele>34.0</ele><time>2026-04-05T10:51:50.414Z</time></trkpt><trkpt lat="43.790997" lon="11.1885256"><ele>34.333333333333336</ele><time>2026-04-05T10:51:52.415Z</time></trkpt><trkpt lat="43.7910053" lon="11.1886385"><ele>34.66666666666667</ele><time>2026-04-05T10:51:54.414Z</time></trkpt><trkpt lat="43.791012" lon="11.1887494"><ele>35.0</ele><time>2026-04-05T10:51:56.415Z</time></trkpt><trkpt lat="43.7910195" lon="11.1888594"><ele>35.333333333333336</ele><time>2026-04-05T10:51:58.414Z</time></trkpt><trkpt lat="43.7910288" lon="11.1889726"><ele>35.666666666666664</ele><time>2026-04-05T10:52:00.415Z</time></trkpt><trkpt lat="43.7910403" lon="11.1890851"><ele>36.0</ele><time>2026-04-05T10:52:02.415Z</time></trkpt><trkpt lat="43.7910545" lon="11.1891972"><ele>36.5</ele><time>2026-04-05T10:52:04.416Z</time></trkpt><trkpt lat="43.7910688" lon="11.1893061"><ele>37.0</ele><time>2026-04-05T10:52:06.416Z</time></trkpt><trkpt lat="43.7910821" lon="11.1894165"><ele>37.5</ele><time>2026-04-05T10:52:08.415Z</time></trkpt><trkpt lat="43.7910993" lon="11.1895245"><ele>38.0</ele><time>2026-04-05T10:52:10.415Z</time></trkpt><trkpt lat="43.7911179" lon="11.1896345"><ele>38.5</ele><time>2026-04-05T10:52:12.416Z</time></trkpt><trkpt lat="43.7911338" lon="11.1897496"><ele>39.0</ele><time>2026-04-05T10:52:14.415Z</time></trkpt><trkpt lat="43.7911522" lon="11.1898654"><ele>39.166666666666664</ele><time>2026-04-05T10:52:16.415Z</time></trkpt><trkpt lat="43.7911673" lon="11.1899819"><ele>39.333333333333336</ele><time>2026-04-05T10:52:18.415Z</time></trkpt><trkpt lat="43.7911774" lon="11.1900972"><ele>39.5</ele><time>2026-04-05T10:52:20.414Z</time></trkpt><trkpt lat="43.7911816" lon="11.1902134"><ele>39.66666666666667</ele><time>2026-04-05T10:52:22.415Z</time></trkpt><trkpt lat="43.7911831" lon="11.1903267"><ele>39.833333333333336</ele><time>2026-04-05T10:52:24.415Z</time></trkpt><trkpt lat="43.7911763" lon="11.1904407"><ele>40.0</ele><time>2026-04-05T10:52:26.413Z</time></trkpt><trkpt lat="43.7911592" lon="11.1905633"><ele>39.8</ele><time>2026-04-05T10:52:28.416Z</time></trkpt><trkpt lat="43.7911387" lon="11.1907117"><ele>39.6</ele><time>2026-04-05T10:52:30.414Z</time></trkpt><trkpt lat="43.7911203" lon="11.1908463"><ele>39.4</ele><time>2026-04-05T10:52:32.416Z</time></trkpt><trkpt lat="43.7911275" lon="11.1909636"><ele>39.2</ele><time>2026-04-05T10:52:34.416Z</time></trkpt><trkpt lat="43.7911298" lon="11.1910897"><ele>39.0</ele><time>2026-04-05T10:52:36.414Z</time></trkpt><trkpt lat="43.7911368" lon="11.1912189"><ele>39.0</ele><time>2026-04-05T10:52:38.414Z</time></trkpt><trkpt lat="43.7911336" lon="11.191332"><ele>39.0</ele><time>2026-04-05T10:52:40.416Z</time></trkpt><trkpt lat="43.7911317" lon="11.1914497"><ele>39.0</ele><time>2026-04-05T10:52:42.414Z</time></trkpt><trkpt lat="43.7911307" lon="11.1915721"><ele>39.0</ele><time>2026-04-05T10:52:44.416Z</time></trkpt><trkpt lat="43.7911281" lon="11.1916891"><ele>39.0</ele><time>2026-04-05T10:52:46.415Z</time></trkpt><trkpt lat="43.7911298" lon="11.1918064"><ele>39.0</ele><time>2026-04-05T10:52:48.416Z</time></trkpt><trkpt lat="43.7911294" lon="11.1919215"><ele>39.0</ele><time>2026-04-05T10:52:50.413Z</time></trkpt><trkpt lat="43.7911249" lon="11.1920321"><ele>39.0</ele><time>2026-04-05T10:52:52.415Z</time></trkpt><trkpt lat="43.7911218" lon="11.1921432"><ele>39.0</ele><time>2026-04-05T10:52:54.414Z</time></trkpt><trkpt lat="43.7911175" lon="11.1922525"><ele>39.0</ele><time>2026-04-05T10:52:56.416Z</time></trkpt><trkpt lat="43.7911117" lon="11.1923659"><ele>39.0</ele><time>2026-04-05T10:52:58.415Z</time></trkpt><trkpt lat="43.7911098" lon="11.1924805"><ele>39.0</ele><time>2026-04-05T10:53:00.415Z</time></trkpt><trkpt lat="43.7911137" lon="11.1926036"><ele>39.0</ele><time>2026-04-05T10:53:02.415Z</time></trkpt><trkpt lat="43.7911105" lon="11.1927175"><ele>39.0</ele><time>2026-04-05T10:53:04.414Z</time></trkpt><trkpt lat="43.7911104" lon="11.192828"><ele>39.0</ele><time>2026-04-05T10:53:06.414Z</time></trkpt><trkpt lat="43.7911166" lon="11.1929558"><ele>39.0</ele><time>2026-04-05T10:53:08.414Z</time></trkpt><trkpt lat="43.7911171" lon="11.1930669"><ele>39.0</ele><time>2026-04-05T10:53:10.416Z</time></trkpt><trkpt lat="43.7911137" lon="11.1931801"><ele>39.0</ele><time>2026-04-05T10:53:12.416Z</time></trkpt><trkpt lat="43.7911097" lon="11.1932956"><ele>39.0</ele><time>2026-04-05T10:53:14.415Z</time></trkpt><trkpt lat="43.7911049" lon="11.1934086"><ele>39.0</ele><time>2026-04-05T10:53:16.415Z</time></trkpt><trkpt lat="43.7911055" lon="11.1935262"><ele>39.0</ele><time>2026-04-05T10:53:18.415Z</time></trkpt><trkpt lat="43.7911119" lon="11.1936409"><ele>39.0</ele><time>2026-04-05T10:53:20.415Z</time></trkpt><trkpt lat="43.7911224" lon="11.1937496"><ele>39.0</ele><time>2026-04-05T10:53:22.414Z</time></trkpt><trkpt lat="43.791131" lon="11.1938527"><ele>39.0</ele><time>2026-04-05T10:53:24.415Z</time></trkpt><trkpt lat="43.7911341" lon="11.1939583"><ele>39.142857142857146</ele><time>2026-04-05T10:53:26.413Z</time></trkpt><trkpt lat="43.7911329" lon="11.1940493"><ele>39.285714285714285</ele><time>2026-04-05T10:53:28.414Z</time></trkpt><trkpt lat="43.7911264" lon="11.194175"><ele>39.42857142857143</ele><time>2026-04-05T10:53:31.415Z</time></trkpt><trkpt lat="43.7911245" lon="11.1942651"><ele>39.57142857142857</ele><time>2026-04-05T10:53:33.416Z</time></trkpt><trkpt lat="43.7911213" lon="11.1943621"><ele>39.714285714285715</ele><time>2026-04-05T10:53:35.415Z</time></trkpt><trkpt lat="43.7911188" lon="11.1944672"><ele>39.857142857142854</ele><time>2026-04-05T10:53:37.415Z</time></trkpt><trkpt lat="43.791121" lon="11.1945778"><ele>40.0</ele><time>2026-04-05T10:53:39.414Z</time></trkpt><trkpt lat="43.7911051" lon="11.1946888"><ele>40.0</ele><time>2026-04-05T10:53:41.416Z</time></trkpt><trkpt lat="43.7910962" lon="11.1948028"><ele>40.0</ele><time>2026-04-05T10:53:43.415Z</time></trkpt><trkpt lat="43.7910956" lon="11.1949204"><ele>40.0</ele><time>2026-04-05T10:53:45.415Z</time></trkpt><trkpt lat="43.7911002" lon="11.1950362"><ele>40.0</ele><time>2026-04-05T10:53:47.415Z</time></trkpt><trkpt lat="43.7911034" lon="11.1951506"><ele>40.0</ele><time>2026-04-05T10:53:49.414Z</time></trkpt><trkpt lat="43.7911057" lon="11.195264"><ele>40.0</ele><time>2026-04-05T10:53:51.414Z</time></trkpt><trkpt lat="43.7911101" lon="11.1953697"><ele>40.0</ele><time>2026-04-05T10:53:53.414Z</time></trkpt><trkpt lat="43.791116" lon="11.1954848"><ele>40.0</ele><time>2026-04-05T10:53:55.414Z</time></trkpt><trkpt lat="43.7911247" lon="11.1956072"><ele>40.0</ele><time>2026-04-05T10:53:57.414Z</time></trkpt><trkpt lat="43.7911349" lon="11.1957259"><ele>40.0</ele><time>2026-04-05T10:53:59.416Z</time></trkpt><trkpt lat="43.7911394" lon="11.1958428"><ele>40.0</ele><time>2026-04-05T10:54:01.414Z</time></trkpt><trkpt lat="43.7911364" lon="11.1959521"><ele>40.0</ele><time>2026-04-05T10:54:03.413Z</time></trkpt><trkpt lat="43.7911361" lon="11.1960527"><ele>40.0</ele><time>2026-04-05T10:54:05.414Z</time></trkpt><trkpt lat="43.791139" lon="11.1961568"><ele>40.0</ele><time>2026-04-05T10:54:07.415Z</time></trkpt><trkpt lat="43.7911424" lon="11.1962622"><ele>40.0</ele><time>2026-04-05T10:54:09.413Z</time></trkpt><trkpt lat="43.7911451" lon="11.1963733"><ele>40.0</ele><time>2026-04-05T10:54:11.415Z</time></trkpt><trkpt lat="43.7911448" lon="11.1964844"><ele>40.0</ele><time>2026-04-05T10:54:13.414Z</time></trkpt><trkpt lat="43.7911389" lon="11.1965915"><ele>40.0</ele><time>2026-04-05T10:54:15.414Z</time></trkpt><trkpt lat="43.7911379" lon="11.1967016"><ele>39.833333333333336</ele><time>2026-04-05T10:54:17.413Z</time></trkpt><trkpt lat="43.7911334" lon="11.1968057"><ele>39.66666666666667</ele><time>2026-04-05T10:54:19.414Z</time></trkpt><trkpt lat="43.7911218" lon="11.1968979"><ele>39.5</ele><time>2026-04-05T10:54:21.415Z</time></trkpt><trkpt lat="43.7911012" lon="11.1969958"><ele>39.333333333333336</ele><time>2026-04-05T10:54:23.414Z</time></trkpt><trkpt lat="43.7910891" lon="11.1970943"><ele>39.166666666666664</ele><time>2026-04-05T10:54:25.414Z</time></trkpt><trkpt lat="43.7910799" lon="11.1972076"><ele>39.0</ele><time>2026-04-05T10:54:27.415Z</time></trkpt><trkpt lat="43.7910802" lon="11.197327"><ele>39.0</ele><time>2026-04-05T10:54:29.414Z</time></trkpt><trkpt lat="43.7910847" lon="11.1974534"><ele>39.0</ele><time>2026-04-05T10:54:31.415Z</time></trkpt><trkpt lat="43.7910975" lon="11.1975716"><ele>39.0</ele><time>2026-04-05T10:54:33.414Z</time></trkpt><trkpt lat="43.7911031" lon="11.1976856"><ele>39.0</ele><time>2026-04-05T10:54:35.415Z</time></trkpt><trkpt lat="43.7911116" lon="11.1977904"><ele>39.0</ele><time>2026-04-05T10:54:37.415Z</time></trkpt><trkpt lat="43.7911168" lon="11.1979059"><ele>39.0</ele><time>2026-04-05T10:54:39.414Z</time></trkpt><trkpt lat="43.7911203" lon="11.1980297"><ele>39.0</ele><time>2026-04-05T10:54:41.414Z</time></trkpt><trkpt lat="43.791123" lon="11.1981458"><ele>39.0</ele><time>2026-04-05T10:54:43.414Z</time></trkpt><trkpt lat="43.7911243" lon="11.1982575"><ele>39.0</ele><time>2026-04-05T10:54:45.415Z</time></trkpt><trkpt lat="43.791119" lon="11.1983596"><ele>39.0</ele><time>2026-04-05T10:54:47.414Z</time></trkpt><trkpt lat="43.7911153" lon="11.1984535"><ele>39.0</ele><time>2026-04-05T10:54:50.414Z</time></trkpt><trkpt lat="43.7910632" lon="11.1985315"><ele>39.0</ele><time>2026-04-05T10:54:55.414Z</time></trkpt><trkpt lat="43.7909717" lon="11.1985333"><ele>39.0</ele><time>2026-04-05T10:54:58.414Z</time></trkpt><trkpt lat="43.7909001" lon="11.1985291"><ele>39.0</ele><time>2026-04-05T10:55:00.414Z</time></trkpt><trkpt lat="43.7908276" lon="11.1985285"><ele>39.0</ele><time>2026-04-05T10:55:02.414Z</time></trkpt><trkpt lat="43.7907637" lon="11.1985267"><ele>39.0</ele><time>2026-04-05T10:55:04.414Z</time></trkpt><trkpt lat="43.7906811" lon="11.1985217"><ele>39.0</ele><time>2026-04-05T10:55:07.414Z</time></trkpt><trkpt lat="43.7906058" lon="11.1985222"><ele>39.0</ele><time>2026-04-05T10:55:11.414Z</time></trkpt><trkpt lat="43.7905928" lon="11.1986229"><ele>39.0</ele><time>2026-04-05T10:55:14.415Z</time></trkpt><trkpt lat="43.7905984" lon="11.1987203"><ele>39.0</ele><time>2026-04-05T10:55:16.414Z</time></trkpt><trkpt lat="43.790537" lon="11.1987715"><ele>39.0</ele><time>2026-04-05T10:55:19.414Z</time></trkpt><trkpt lat="43.790478" lon="11.1988268"><ele>39.0</ele><time>2026-04-05T10:55:27.414Z</time></trkpt><trkpt lat="43.7904238" lon="11.198908"><ele>39.0</ele><time>2026-04-05T10:55:29.415Z</time></trkpt><trkpt lat="43.7903485" lon="11.1989906"><ele>39.0</ele><time>2026-04-05T10:55:30.415Z</time></trkpt><trkpt lat="43.7902739" lon="11.1990879"><ele>39.0</ele><time>2026-04-05T10:55:32.416Z</time></trkpt><trkpt lat="43.7902019" lon="11.1991956"><ele>41.0</ele><time>2026-04-05T10:55:34.415Z</time></trkpt><trkpt lat="43.7901621" lon="11.1993155"><ele>43.0</ele><time>2026-04-05T10:55:37.414Z</time></trkpt><trkpt lat="43.790131" lon="11.1994172"><ele>45.0</ele><time>2026-04-05T10:55:39.414Z</time></trkpt><trkpt lat="43.7900867" lon="11.1995272"><ele>47.0</ele><time>2026-04-05T10:55:41.414Z</time></trkpt><trkpt lat="43.7900184" lon="11.1996126"><ele>49.0</ele><time>2026-04-05T10:55:44.415Z</time></trkpt><trkpt lat="43.7899673" lon="11.1997298"><ele>49.5</ele><time>2026-04-05T10:55:46.415Z</time></trkpt><trkpt lat="43.7899114" lon="11.1999053"><ele>50.0</ele><time>2026-04-05T10:55:48.414Z</time></trkpt><trkpt lat="43.7898648" lon="11.2000539"><ele>50.5</ele><time>2026-04-05T10:55:50.415Z</time></trkpt><trkpt lat="43.7898148" lon="11.2002049"><ele>51.0</ele><time>2026-04-05T10:55:52.414Z</time></trkpt><trkpt lat="43.7897659" lon="11.2003346"><ele>51.0</ele><time>2026-04-05T10:55:54.413Z</time></trkpt><trkpt lat="43.7897072" lon="11.2004735"><ele>51.0</ele><time>2026-04-05T10:55:56.416Z</time></trkpt><trkpt lat="43.7896622" lon="11.2005561"><ele>51.0</ele><time>2026-04-05T10:55:57.413Z</time></trkpt><trkpt lat="43.7896226" lon="11.2006527"><ele>51.0</ele><time>2026-04-05T10:55:58.415Z</time></trkpt><trkpt lat="43.7895756" lon="11.2007868"><ele>51.0</ele><time>2026-04-05T10:56:00.414Z</time></trkpt><trkpt lat="43.7895364" lon="11.2008768"><ele>50.8</ele><time>2026-04-05T10:56:02.415Z</time></trkpt><trkpt lat="43.7895051" lon="11.2009769"><ele>50.599999999999994</ele><time>2026-04-05T10:56:04.413Z</time></trkpt><trkpt lat="43.7894625" lon="11.2010876"><ele>50.4</ele><time>2026-04-05T10:56:06.414Z</time></trkpt><trkpt lat="43.7893901" lon="11.2012555"><ele>50.2</ele><time>2026-04-05T10:56:08.414Z</time></trkpt><trkpt lat="43.7893592" lon="11.2013694"><ele>50.0</ele><time>2026-04-05T10:56:10.415Z</time></trkpt><trkpt lat="43.7893525" lon="11.201473"><ele>50.0</ele><time>2026-04-05T10:56:13.414Z</time></trkpt><trkpt lat="43.7892722" lon="11.2015585"><ele>50.0</ele><time>2026-04-05T10:56:16.414Z</time></trkpt><trkpt lat="43.7892214" lon="11.2016452"><ele>50.0</ele><time>2026-04-05T10:56:18.414Z</time></trkpt><trkpt lat="43.7891543" lon="11.2017306"><ele>50.0</ele><time>2026-04-05T10:56:20.414Z</time></trkpt><trkpt lat="43.7890998" lon="11.2018194"><ele>50.0</ele><time>2026-04-05T10:56:22.414Z</time></trkpt><trkpt lat="43.7890765" lon="11.2019587"><ele>50.00000000000001</ele><time>2026-04-05T10:56:24.414Z</time></trkpt><trkpt lat="43.7890431" lon="11.202057"><ele>50.0</ele><time>2026-04-05T10:56:26.414Z</time></trkpt><trkpt lat="43.7889915" lon="11.2021419"><ele>50.0</ele><time>2026-04-05T10:56:28.416Z</time></trkpt><trkpt lat="43.788955" lon="11.2022548"><ele>50.0</ele><time>2026-04-05T10:56:30.415Z</time></trkpt><trkpt lat="43.7889212" lon="11.2023642"><ele>50.00000000000001</ele><time>2026-04-05T10:56:32.415Z</time></trkpt><trkpt lat="43.788878" lon="11.2024687"><ele>50.0</ele><time>2026-04-05T10:56:34.414Z</time></trkpt><trkpt lat="43.7888356" lon="11.2025584"><ele>49.6</ele><time>2026-04-05T10:56:36.414Z</time></trkpt><trkpt lat="43.7887798" lon="11.2026761"><ele>49.2</ele><time>2026-04-05T10:56:38.413Z</time></trkpt><trkpt lat="43.7887093" lon="11.2027355"><ele>48.8</ele><time>2026-04-05T10:56:40.416Z</time></trkpt><trkpt lat="43.7886401" lon="11.2028372"><ele>48.4</ele><time>2026-04-05T10:56:42.414Z</time></trkpt><trkpt lat="43.7885927" lon="11.2029215"><ele>48.0</ele><time>2026-04-05T10:56:44.416Z</time></trkpt><trkpt lat="43.788551" lon="11.2030347"><ele>48.0</ele><time>2026-04-05T10:56:47.414Z</time></trkpt><trkpt lat="43.7885266" lon="11.2031446"><ele>48.0</ele><time>2026-04-05T10:56:49.413Z</time></trkpt><trkpt lat="43.7884974" lon="11.2033024"><ele>48.0</ele><time>2026-04-05T10:56:51.413Z</time></trkpt><trkpt lat="43.7884265" lon="11.2034077"><ele>48.0</ele><time>2026-04-05T10:56:53.415Z</time></trkpt><trkpt lat="43.7883645" lon="11.2034593"><ele>48.0</ele><time>2026-04-05T10:56:55.415Z</time></trkpt><trkpt lat="43.7882708" lon="11.2035199"><ele>48.8</ele><time>2026-04-05T10:56:57.415Z</time></trkpt><trkpt lat="43.7882139" lon="11.2036322"><ele>49.599999999999994</ele><time>2026-04-05T10:56:59.414Z</time></trkpt><trkpt lat="43.7881611" lon="11.2037579"><ele>50.400000000000006</ele><time>2026-04-05T10:57:01.414Z</time></trkpt><trkpt lat="43.7881252" lon="11.2038829"><ele>51.2</ele><time>2026-04-05T10:57:03.415Z</time></trkpt><trkpt lat="43.7880921" lon="11.204017"><ele>52.0</ele><time>2026-04-05T10:57:05.414Z</time></trkpt><trkpt lat="43.7880301" lon="11.2041154"><ele>51.99999999999999</ele><time>2026-04-05T10:57:07.415Z</time></trkpt><trkpt lat="43.7879786" lon="11.2042114"><ele>52.0</ele><time>2026-04-05T10:57:09.414Z</time></trkpt><trkpt lat="43.7879206" lon="11.2043135"><ele>52.0</ele><time>2026-04-05T10:57:11.414Z</time></trkpt><trkpt lat="43.7878714" lon="11.2044116"><ele>52.0</ele><time>2026-04-05T10:57:13.414Z</time></trkpt><trkpt lat="43.7878276" lon="11.204493"><ele>51.99999999999999</ele><time>2026-04-05T10:57:15.414Z</time></trkpt><trkpt lat="43.7878843" lon="11.2045436"><ele>52.0</ele><time>2026-04-05T10:57:18.415Z</time></trkpt><trkpt lat="43.7879368" lon="11.2046249"><ele>51.99999999999999</ele><time>2026-04-05T10:57:20.414Z</time></trkpt><trkpt lat="43.787947" lon="11.2047288"><ele>52.0</ele><time>2026-04-05T10:57:22.415Z</time></trkpt><trkpt lat="43.7879163" lon="11.2048229"><ele>52.0</ele><time>2026-04-05T10:57:25.413Z</time></trkpt><trkpt lat="43.7878655" lon="11.204944"><ele>52.0</ele><time>2026-04-05T10:57:28.414Z</time></trkpt><trkpt lat="43.787805" lon="11.2050434"><ele>51.99999999999999</ele><time>2026-04-05T10:57:30.415Z</time></trkpt><trkpt lat="43.7877453" lon="11.2051443"><ele>52.0</ele><time>2026-04-05T10:57:32.415Z</time></trkpt><trkpt lat="43.7876989" lon="11.2052313"><ele>51.83333333333333</ele><time>2026-04-05T10:57:34.414Z</time></trkpt><trkpt lat="43.7876611" lon="11.2053503"><ele>51.666666666666664</ele><time>2026-04-05T10:57:37.415Z</time></trkpt><trkpt lat="43.7876233" lon="11.205424"><ele>51.5</ele><time>2026-04-05T10:57:39.413Z</time></trkpt><trkpt lat="43.7875791" lon="11.2055124"><ele>51.33333333333333</ele><time>2026-04-05T10:57:41.415Z</time></trkpt><trkpt lat="43.7875357" lon="11.2055901"><ele>51.166666666666664</ele><time>2026-04-05T10:57:43.413Z</time></trkpt><trkpt lat="43.7874929" lon="11.2056828"><ele>51.0</ele><time>2026-04-05T10:57:45.413Z</time></trkpt><trkpt lat="43.7874525" lon="11.2057685"><ele>50.5</ele><time>2026-04-05T10:57:47.414Z</time></trkpt><trkpt lat="43.7874155" lon="11.2058402"><ele>50.0</ele><time>2026-04-05T10:57:49.414Z</time></trkpt><trkpt lat="43.7873549" lon="11.205942"><ele>49.5</ele><time>2026-04-05T10:57:52.414Z</time></trkpt><trkpt lat="43.7873047" lon="11.2060327"><ele>49.0</ele><time>2026-04-05T10:57:54.413Z</time></trkpt><trkpt lat="43.7872572" lon="11.2061272"><ele>48.5</ele><time>2026-04-05T10:57:56.413Z</time></trkpt><trkpt lat="43.7872015" lon="11.2062175"><ele>48.0</ele><time>2026-04-05T10:57:58.414Z</time></trkpt><trkpt lat="43.7871536" lon="11.2063118"><ele>48.0</ele><time>2026-04-05T10:58:00.416Z</time></trkpt><trkpt lat="43.7870952" lon="11.2064169"><ele>48.0</ele><time>2026-04-05T10:58:02.414Z</time></trkpt><trkpt lat="43.7870428" lon="11.206514"><ele>48.0</ele><time>2026-04-05T10:58:04.414Z</time></trkpt><trkpt lat="43.786996" lon="11.2066004"><ele>48.0</ele><time>2026-04-05T10:58:06.414Z</time></trkpt><trkpt lat="43.7869652" lon="11.206701"><ele>48.0</ele><time>2026-04-05T10:58:09.414Z</time></trkpt><trkpt lat="43.7869262" lon="11.2068078"><ele>48.0</ele><time>2026-04-05T10:58:13.414Z</time></trkpt><trkpt lat="43.7868731" lon="11.2069001"><ele>48.5</ele><time>2026-04-05T10:58:15.415Z</time></trkpt><trkpt lat="43.7868259" lon="11.2069771"><ele>49.0</ele><time>2026-04-05T10:58:17.414Z</time></trkpt><trkpt lat="43.7867791" lon="11.2070596"><ele>49.5</ele><time>2026-04-05T10:58:19.412Z</time></trkpt><trkpt lat="43.7867274" lon="11.2071526"><ele>50.0</ele><time>2026-04-05T10:58:21.415Z</time></trkpt><trkpt lat="43.7866625" lon="11.207257"><ele>50.5</ele><time>2026-04-05T10:58:23.414Z</time></trkpt><trkpt lat="43.7866015" lon="11.2073507"><ele>51.0</ele><time>2026-04-05T10:58:25.414Z</time></trkpt><trkpt lat="43.7865337" lon="11.2074425"><ele>51.0</ele><time>2026-04-05T10:58:26.414Z</time></trkpt><trkpt lat="43.7864872" lon="11.2075112"><ele>51.0</ele><time>2026-04-05T10:58:27.413Z</time></trkpt><trkpt lat="43.7864436" lon="11.2076134"><ele>51.0</ele><time>2026-04-05T10:58:29.414Z</time></trkpt><trkpt lat="43.7863908" lon="11.2077137"><ele>51.0</ele><time>2026-04-05T10:58:31.414Z</time></trkpt><trkpt lat="43.786337" lon="11.2078245"><ele>51.0</ele><time>2026-04-05T10:58:34.414Z</time></trkpt><trkpt lat="43.7862859" lon="11.2079056"><ele>51.0</ele><time>2026-04-05T10:58:36.412Z</time></trkpt><trkpt lat="43.7862308" lon="11.2080148"><ele>51.0</ele><time>2026-04-05T10:58:38.414Z</time></trkpt><trkpt lat="43.7861805" lon="11.2081006"><ele>51.0</ele><time>2026-04-05T10:58:40.415Z</time></trkpt><trkpt lat="43.786142" lon="11.2081799"><ele>51.0</ele><time>2026-04-05T10:58:42.414Z</time></trkpt><trkpt lat="43.7860964" lon="11.2082751"><ele>51.0</ele><time>2026-04-05T10:58:44.414Z</time></trkpt><trkpt lat="43.7860397" lon="11.2083716"><ele>51.0</ele><time>2026-04-05T10:58:46.415Z</time></trkpt><trkpt lat="43.7859846" lon="11.2084672"><ele>51.0</ele><time>2026-04-05T10:58:48.413Z</time></trkpt><trkpt lat="43.7859367" lon="11.2085515"><ele>51.0</ele><time>2026-04-05T10:58:50.415Z</time></trkpt><trkpt lat="43.7858901" lon="11.2086376"><ele>51.0</ele><time>2026-04-05T10:58:52.413Z</time></trkpt><trkpt lat="43.7858278" lon="11.2087415"><ele>51.0</ele><time>2026-04-05T10:58:55.413Z</time></trkpt><trkpt lat="43.7857783" lon="11.2088235"><ele>51.0</ele><time>2026-04-05T10:58:57.413Z</time></trkpt><trkpt lat="43.785731" lon="11.2089062"><ele>51.0</ele><time>2026-04-05T10:58:59.413Z</time></trkpt><trkpt lat="43.7856813" lon="11.2090002"><ele>51.0</ele><time>2026-04-05T10:59:01.413Z</time></trkpt><trkpt lat="43.7856343" lon="11.2090886"><ele>51.0</ele><time>2026-04-05T10:59:03.413Z</time></trkpt><trkpt lat="43.7855862" lon="11.2091765"><ele>51.0</ele><time>2026-04-05T10:59:05.416Z</time></trkpt><trkpt lat="43.7855367" lon="11.2092641"><ele>51.0</ele><time>2026-04-05T10:59:07.414Z</time></trkpt><trkpt lat="43.785503" lon="11.2093475"><ele>51.0</ele><time>2026-04-05T10:59:09.415Z</time></trkpt><trkpt lat="43.7854651" lon="11.2094521"><ele>51.0</ele><time>2026-04-05T10:59:12.414Z</time></trkpt><trkpt lat="43.785425" lon="11.2095277"><ele>51.0</ele><time>2026-04-05T10:59:15.414Z</time></trkpt><trkpt lat="43.7853962" lon="11.2096225"><ele>51.0</ele><time>2026-04-05T10:59:20.414Z</time></trkpt><trkpt lat="43.7853492" lon="11.209709"><ele>51.0</ele><time>2026-04-05T10:59:23.413Z</time></trkpt><trkpt lat="43.7852919" lon="11.2098158"><ele>51.0</ele><time>2026-04-05T10:59:26.413Z</time></trkpt><trkpt lat="43.7852552" lon="11.2099149"><ele>51.0</ele><time>2026-04-05T10:59:28.413Z</time></trkpt><trkpt lat="43.7852031" lon="11.2100057"><ele>51.0</ele><time>2026-04-05T10:59:30.413Z</time></trkpt><trkpt lat="43.7851528" lon="11.2100977"><ele>51.0</ele><time>2026-04-05T10:59:32.413Z</time></trkpt><trkpt lat="43.7851078" lon="11.2101889"><ele>51.0</ele><time>2026-04-05T10:59:34.414Z</time></trkpt><trkpt lat="43.7850657" lon="11.2102776"><ele>51.0</ele><time>2026-04-05T10:59:36.413Z</time></trkpt><trkpt lat="43.7850171" lon="11.2103659"><ele>51.0</ele><time>2026-04-05T10:59:38.413Z</time></trkpt><trkpt lat="43.7849702" lon="11.2104599"><ele>51.0</ele><time>2026-04-05T10:59:41.413Z</time></trkpt><trkpt lat="43.7849178" lon="11.2105568"><ele>51.0</ele><time>2026-04-05T10:59:43.415Z</time></trkpt><trkpt lat="43.784876" lon="11.2106445"><ele>51.0</ele><time>2026-04-05T10:59:45.413Z</time></trkpt><trkpt lat="43.7848308" lon="11.2107468"><ele>51.0</ele><time>2026-04-05T10:59:47.414Z</time></trkpt><trkpt lat="43.7847847" lon="11.2108441"><ele>51.0</ele><time>2026-04-05T10:59:49.413Z</time></trkpt><trkpt lat="43.7847348" lon="11.2109389"><ele>51.0</ele><time>2026-04-05T10:59:51.413Z</time></trkpt><trkpt lat="43.7846819" lon="11.2110331"><ele>51.0</ele><time>2026-04-05T10:59:53.413Z</time></trkpt><trkpt lat="43.7846346" lon="11.2111317"><ele>51.0</ele><time>2026-04-05T10:59:55.414Z</time></trkpt><trkpt lat="43.7845784" lon="11.2112794"><ele>51.0</ele><time>2026-04-05T10:59:57.414Z</time></trkpt><trkpt lat="43.7845324" lon="11.2113708"><ele>51.0</ele><time>2026-04-05T10:59:59.413Z</time></trkpt><trkpt lat="43.7844806" lon="11.2114225"><ele>51.0</ele><time>2026-04-05T11:00:01.414Z</time></trkpt><trkpt lat="43.7844304" lon="11.2115048"><ele>51.0</ele><time>2026-04-05T11:00:03.413Z</time></trkpt><trkpt lat="43.7843779" lon="11.2115853"><ele>51.0</ele><time>2026-04-05T11:00:05.415Z</time></trkpt><trkpt lat="43.7843343" lon="11.2116796"><ele>51.0</ele><time>2026-04-05T11:00:09.413Z</time></trkpt><trkpt lat="43.7842815" lon="11.2117564"><ele>50.5</ele><time>2026-04-05T11:00:11.414Z</time></trkpt><trkpt lat="43.7842409" lon="11.2118313"><ele>50.0</ele><time>2026-04-05T11:00:13.414Z</time></trkpt><trkpt lat="43.7841867" lon="11.2119288"><ele>49.5</ele><time>2026-04-05T11:00:15.413Z</time></trkpt><trkpt lat="43.7841261" lon="11.2120363"><ele>49.0</ele><time>2026-04-05T11:00:17.414Z</time></trkpt><trkpt lat="43.7840656" lon="11.2121453"><ele>48.5</ele><time>2026-04-05T11:00:19.414Z</time></trkpt><trkpt lat="43.7840185" lon="11.212245"><ele>48.0</ele><time>2026-04-05T11:00:21.413Z</time></trkpt><trkpt lat="43.7839746" lon="11.2123378"><ele>48.0</ele><time>2026-04-05T11:00:23.412Z</time></trkpt><trkpt lat="43.7839362" lon="11.2124179"><ele>48.0</ele><time>2026-04-05T11:00:25.414Z</time></trkpt><trkpt lat="43.7838949" lon="11.2124917"><ele>48.0</ele><time>2026-04-05T11:00:27.414Z</time></trkpt><trkpt lat="43.7838446" lon="11.212585"><ele>48.0</ele><time>2026-04-05T11:00:29.413Z</time></trkpt><trkpt lat="43.7837893" lon="11.2126858"><ele>48.0</ele><time>2026-04-05T11:00:31.413Z</time></trkpt><trkpt lat="43.7837375" lon="11.212773"><ele>48.0</ele><time>2026-04-05T11:00:33.413Z</time></trkpt><trkpt lat="43.7836766" lon="11.2128682"><ele>48.0</ele><time>2026-04-05T11:00:35.414Z</time></trkpt><trkpt lat="43.7836195" lon="11.2129666"><ele>48.0</ele><time>2026-04-05T11:00:37.413Z</time></trkpt><trkpt lat="43.7835689" lon="11.2130597"><ele>48.0</ele><time>2026-04-05T11:00:39.413Z</time></trkpt><trkpt lat="43.7835177" lon="11.2131585"><ele>48.0</ele><time>2026-04-05T11:00:41.413Z</time></trkpt><trkpt lat="43.7834596" lon="11.2132646"><ele>48.0</ele><time>2026-04-05T11:00:43.414Z</time></trkpt><trkpt lat="43.7834081" lon="11.2133628"><ele>48.0</ele><time>2026-04-05T11:00:45.414Z</time></trkpt><trkpt lat="43.7833411" lon="11.2134883"><ele>48.0</ele><time>2026-04-05T11:00:47.414Z</time></trkpt><trkpt lat="43.7832855" lon="11.2135893"><ele>48.0</ele><time>2026-04-05T11:00:49.414Z</time></trkpt><trkpt lat="43.7832445" lon="11.2136717"><ele>48.0</ele><time>2026-04-05T11:00:50.413Z</time></trkpt><trkpt lat="43.7832037" lon="11.2137648"><ele>48.0</ele><time>2026-04-05T11:00:52.414Z</time></trkpt><trkpt lat="43.7831539" lon="11.2138728"><ele>48.0</ele><time>2026-04-05T11:00:54.413Z</time></trkpt><trkpt lat="43.7831173" lon="11.2139742"><ele>48.0</ele><time>2026-04-05T11:00:56.414Z</time></trkpt><trkpt lat="43.7830722" lon="11.2140675"><ele>48.833333333333336</ele><time>2026-04-05T11:00:58.413Z</time></trkpt><trkpt lat="43.7830211" lon="11.214182"><ele>49.66666666666667</ele><time>2026-04-05T11:01:00.414Z</time></trkpt><trkpt lat="43.7829876" lon="11.2142923"><ele>50.5</ele><time>2026-04-05T11:01:02.414Z</time></trkpt><trkpt lat="43.7829552" lon="11.2143903"><ele>51.333333333333336</ele><time>2026-04-05T11:01:04.414Z</time></trkpt><trkpt lat="43.7829324" lon="11.2144753"><ele>52.16666666666667</ele><time>2026-04-05T11:01:06.413Z</time></trkpt><trkpt lat="43.7828841" lon="11.2145532"><ele>53.0</ele><time>2026-04-05T11:01:08.413Z</time></trkpt><trkpt lat="43.7828347" lon="11.2146513"><ele>53.00000000000001</ele><time>2026-04-05T11:01:10.414Z</time></trkpt><trkpt lat="43.7827931" lon="11.2147168"><ele>53.0</ele><time>2026-04-05T11:01:11.412Z</time></trkpt><trkpt lat="43.7827263" lon="11.214815"><ele>53.0</ele><time>2026-04-05T11:01:13.413Z</time></trkpt><trkpt lat="43.7826779" lon="11.2149066"><ele>53.0</ele><time>2026-04-05T11:01:15.414Z</time></trkpt><trkpt lat="43.7826415" lon="11.2149817"><ele>53.00000000000001</ele><time>2026-04-05T11:01:17.412Z</time></trkpt><trkpt lat="43.7826039" lon="11.2150559"><ele>53.0</ele><time>2026-04-05T11:01:19.413Z</time></trkpt><trkpt lat="43.7825477" lon="11.215153"><ele>52.50000000000001</ele><time>2026-04-05T11:01:21.414Z</time></trkpt><trkpt lat="43.7825187" lon="11.2152391"><ele>52.0</ele><time>2026-04-05T11:01:23.414Z</time></trkpt><trkpt lat="43.7824808" lon="11.2153202"><ele>51.5</ele><time>2026-04-05T11:01:25.412Z</time></trkpt><trkpt lat="43.7824379" lon="11.2154123"><ele>51.0</ele><time>2026-04-05T11:01:27.413Z</time></trkpt><trkpt lat="43.7823941" lon="11.2155108"><ele>50.50000000000001</ele><time>2026-04-05T11:01:29.414Z</time></trkpt><trkpt lat="43.7823526" lon="11.2156059"><ele>50.0</ele><time>2026-04-05T11:01:31.415Z</time></trkpt><trkpt lat="43.7823126" lon="11.2156993"><ele>50.00000000000001</ele><time>2026-04-05T11:01:33.413Z</time></trkpt><trkpt lat="43.7822736" lon="11.2157818"><ele>50.0</ele><time>2026-04-05T11:01:35.413Z</time></trkpt><trkpt lat="43.7822298" lon="11.2158758"><ele>50.0</ele><time>2026-04-05T11:01:37.413Z</time></trkpt><trkpt lat="43.782176" lon="11.2159781"><ele>50.0</ele><time>2026-04-05T11:01:39.414Z</time></trkpt><trkpt lat="43.7821179" lon="11.2160869"><ele>50.00000000000001</ele><time>2026-04-05T11:01:41.414Z</time></trkpt><trkpt lat="43.782064" lon="11.2162021"><ele>50.0</ele><time>2026-04-05T11:01:43.412Z</time></trkpt><trkpt lat="43.7820221" lon="11.2163006"><ele>50.0</ele><time>2026-04-05T11:01:45.413Z</time></trkpt><trkpt lat="43.7819732" lon="11.2164152"><ele>50.0</ele><time>2026-04-05T11:01:47.413Z</time></trkpt><trkpt lat="43.7819245" lon="11.2165271"><ele>50.0</ele><time>2026-04-05T11:01:49.412Z</time></trkpt><trkpt lat="43.7818784" lon="11.2166275"><ele>50.0</ele><time>2026-04-05T11:01:51.414Z</time></trkpt><trkpt lat="43.7818322" lon="11.2167417"><ele>50.0</ele><time>2026-04-05T11:01:54.413Z</time></trkpt><trkpt lat="43.7817964" lon="11.2168413"><ele>50.00000000000001</ele><time>2026-04-05T11:01:56.413Z</time></trkpt><trkpt lat="43.7817535" lon="11.2169474"><ele>50.0</ele><time>2026-04-05T11:01:58.412Z</time></trkpt><trkpt lat="43.7817157" lon="11.2170443"><ele>50.0</ele><time>2026-04-05T11:02:00.414Z</time></trkpt><trkpt lat="43.7816794" lon="11.2171428"><ele>50.0</ele><time>2026-04-05T11:02:02.413Z</time></trkpt><trkpt lat="43.7816422" lon="11.2172315"><ele>50.00000000000001</ele><time>2026-04-05T11:02:04.414Z</time></trkpt><trkpt lat="43.7816117" lon="11.2173252"><ele>50.0</ele><time>2026-04-05T11:02:06.413Z</time></trkpt><trkpt lat="43.7815819" lon="11.217441"><ele>49.57142857142858</ele><time>2026-04-05T11:02:09.412Z</time></trkpt><trkpt lat="43.7815575" lon="11.2175275"><ele>49.142857142857146</ele><time>2026-04-05T11:02:11.413Z</time></trkpt><trkpt lat="43.7815243" lon="11.217621"><ele>48.714285714285715</ele><time>2026-04-05T11:02:13.414Z</time></trkpt><trkpt lat="43.7814921" lon="11.2176996"><ele>48.28571428571429</ele><time>2026-04-05T11:02:15.413Z</time></trkpt><trkpt lat="43.7814536" lon="11.2177953"><ele>47.857142857142854</ele><time>2026-04-05T11:02:18.413Z</time></trkpt><trkpt lat="43.7814538" lon="11.2178927"><ele>47.42857142857143</ele><time>2026-04-05T11:02:21.413Z</time></trkpt><trkpt lat="43.7814919" lon="11.2179776"><ele>47.0</ele><time>2026-04-05T11:02:25.412Z</time></trkpt><trkpt lat="43.7815431" lon="11.2180287"><ele>47.0</ele><time>2026-04-05T11:02:27.413Z</time></trkpt><trkpt lat="43.7816018" lon="11.218078"><ele>47.0</ele><time>2026-04-05T11:02:29.413Z</time></trkpt><trkpt lat="43.7816691" lon="11.2181309"><ele>47.0</ele><time>2026-04-05T11:02:31.413Z</time></trkpt><trkpt lat="43.7817337" lon="11.2181868"><ele>47.0</ele><time>2026-04-05T11:02:33.412Z</time></trkpt><trkpt lat="43.7817915" lon="11.2182343"><ele>47.0</ele><time>2026-04-05T11:02:35.413Z</time></trkpt><trkpt lat="43.7818519" lon="11.2182796"><ele>47.0</ele><time>2026-04-05T11:02:37.412Z</time></trkpt><trkpt lat="43.7819153" lon="11.2183482"><ele>47.0</ele><time>2026-04-05T11:02:40.413Z</time></trkpt><trkpt lat="43.7819896" lon="11.2184318"><ele>46.666666666666664</ele><time>2026-04-05T11:02:43.413Z</time></trkpt><trkpt lat="43.7820391" lon="11.2184949"><ele>46.33333333333333</ele><time>2026-04-05T11:02:45.413Z</time></trkpt><trkpt lat="43.782085" lon="11.2185562"><ele>46.0</ele><time>2026-04-05T11:02:47.412Z</time></trkpt><trkpt lat="43.7821608" lon="11.2186243"><ele>45.666666666666664</ele><time>2026-04-05T11:02:50.413Z</time></trkpt><trkpt lat="43.7822216" lon="11.2187073"><ele>45.333333333333336</ele><time>2026-04-05T11:02:53.413Z</time></trkpt><trkpt lat="43.7822538" lon="11.2187934"><ele>45.0</ele><time>2026-04-05T11:02:57.413Z</time></trkpt><trkpt lat="43.7823281" lon="11.2188181"><ele>45.0</ele><time>2026-04-05T11:03:01.414Z</time></trkpt><trkpt lat="43.7823697" lon="11.2187378"><ele>45.0</ele><time>2026-04-05T11:03:05.413Z</time></trkpt><trkpt lat="43.7823794" lon="11.2188271"><ele>45.0</ele><time>2026-04-05T11:15:29.41Z</time></trkpt><trkpt lat="43.7823602" lon="11.2187412"><ele>45.0</ele><time>2026-04-05T12:02:25.407Z</time></trkpt><trkpt lat="43.7823695" lon="11.2188333"><ele>45.0</ele><time>2026-04-05T12:04:44.407Z</time></trkpt><trkpt lat="43.7822984" lon="11.2188508"><ele>45.0</ele><time>2026-04-05T12:04:49.407Z</time></trkpt><trkpt lat="43.7822494" lon="11.2187949"><ele>45.0</ele><time>2026-04-05T12:04:52.405Z</time></trkpt><trkpt lat="43.7821725" lon="11.2187357"><ele>45.0</ele><time>2026-04-05T12:04:57.407Z</time></trkpt><trkpt lat="43.7821101" lon="11.2187167"><ele>45.0</ele><time>2026-04-05T12:04:59.406Z</time></trkpt><trkpt lat="43.7820448" lon="11.218669"><ele>45.0</ele><time>2026-04-05T12:05:02.407Z</time></trkpt><trkpt lat="43.781964" lon="11.2185933"><ele>45.0</ele><time>2026-04-05T12:05:05.407Z</time></trkpt><trkpt lat="43.7819116" lon="11.2185023"><ele>45.0</ele><time>2026-04-05T12:05:08.406Z</time></trkpt><trkpt lat="43.7818473" lon="11.2184802"><ele>45.0</ele><time>2026-04-05T12:05:10.406Z</time></trkpt><trkpt lat="43.7817905" lon="11.2184307"><ele>45.0</ele><time>2026-04-05T12:05:12.406Z</time></trkpt><trkpt lat="43.7817309" lon="11.2183571"><ele>45.0</ele><time>2026-04-05T12:05:15.407Z</time></trkpt><trkpt lat="43.7816665" lon="11.2182778"><ele>45.0</ele><time>2026-04-05T12:05:18.407Z</time></trkpt><trkpt lat="43.7816073" lon="11.2182155"><ele>45.0</ele><time>2026-04-05T12:05:21.406Z</time></trkpt><trkpt lat="43.781534" lon="11.2181565"><ele>45.0</ele><time>2026-04-05T12:05:24.408Z</time></trkpt><trkpt lat="43.7814683" lon="11.2180953"><ele>45.0</ele><time>2026-04-05T12:05:27.407Z</time></trkpt><trkpt lat="43.7813818" lon="11.2180595"><ele>45.0</ele><time>2026-04-05T12:05:30.406Z</time></trkpt><trkpt lat="43.7813041" lon="11.2180382"><ele>45.0</ele><time>2026-04-05T12:05:33.406Z</time></trkpt><trkpt lat="43.7812219" lon="11.2180743"><ele>45.0</ele><time>2026-04-05T12:05:36.407Z</time></trkpt><trkpt lat="43.7811403" lon="11.2181332"><ele>45.0</ele><time>2026-04-05T12:05:39.407Z</time></trkpt><trkpt lat="43.7810697" lon="11.2182024"><ele>45.0</ele><time>2026-04-05T12:05:42.407Z</time></trkpt><trkpt lat="43.7810044" lon="11.2182813"><ele>45.0</ele><time>2026-04-05T12:05:45.406Z</time></trkpt><trkpt lat="43.7809383" lon="11.218346"><ele>44.5</ele><time>2026-04-05T12:05:48.408Z</time></trkpt><trkpt lat="43.78088" lon="11.2184243"><ele>44.0</ele><time>2026-04-05T12:05:51.406Z</time></trkpt><trkpt lat="43.7808414" lon="11.2185037"><ele>43.5</ele><time>2026-04-05T12:05:54.406Z</time></trkpt><trkpt lat="43.7807923" lon="11.2185817"><ele>43.0</ele><time>2026-04-05T12:05:57.406Z</time></trkpt><trkpt lat="43.780746" lon="11.2186754"><ele>42.5</ele><time>2026-04-05T12:06:00.408Z</time></trkpt><trkpt lat="43.780664" lon="11.2187364"><ele>42.0</ele><time>2026-04-05T12:06:03.407Z</time></trkpt><trkpt lat="43.7805947" lon="11.2187121"><ele>42.0</ele><time>2026-04-05T12:06:05.406Z</time></trkpt><trkpt lat="43.7805353" lon="11.2186701"><ele>42.0</ele><time>2026-04-05T12:06:07.406Z</time></trkpt><trkpt lat="43.780468" lon="11.218602"><ele>42.0</ele><time>2026-04-05T12:06:10.408Z</time></trkpt><trkpt lat="43.7804036" lon="11.2185245"><ele>42.0</ele><time>2026-04-05T12:06:13.407Z</time></trkpt><trkpt lat="43.7803272" lon="11.2184706"><ele>42.0</ele><time>2026-04-05T12:06:16.407Z</time></trkpt><trkpt lat="43.7802415" lon="11.2184219"><ele>42.0</ele><time>2026-04-05T12:06:19.407Z</time></trkpt><trkpt lat="43.7801692" lon="11.2183637"><ele>42.142857142857146</ele><time>2026-04-05T12:06:22.407Z</time></trkpt><trkpt lat="43.7801019" lon="11.2183261"><ele>42.285714285714285</ele><time>2026-04-05T12:06:25.407Z</time></trkpt><trkpt lat="43.7800312" lon="11.2182793"><ele>42.42857142857143</ele><time>2026-04-05T12:06:29.407Z</time></trkpt><trkpt lat="43.7799704" lon="11.2182385"><ele>42.57142857142857</ele><time>2026-04-05T12:06:32.406Z</time></trkpt><trkpt lat="43.7799077" lon="11.2181893"><ele>42.714285714285715</ele><time>2026-04-05T12:06:35.406Z</time></trkpt><trkpt lat="43.7798441" lon="11.2181455"><ele>42.85714285714286</ele><time>2026-04-05T12:06:38.406Z</time></trkpt><trkpt lat="43.7797817" lon="11.2180991"><ele>43.0</ele><time>2026-04-05T12:06:41.407Z</time></trkpt><trkpt lat="43.7797092" lon="11.218046"><ele>42.5</ele><time>2026-04-05T12:06:44.407Z</time></trkpt><trkpt lat="43.7796429" lon="11.2179988"><ele>42.0</ele><time>2026-04-05T12:06:47.407Z</time></trkpt><trkpt lat="43.779563" lon="11.2179248"><ele>41.5</ele><time>2026-04-05T12:06:50.406Z</time></trkpt><trkpt lat="43.7795049" lon="11.217853"><ele>41.0</ele><time>2026-04-05T12:06:52.406Z</time></trkpt><trkpt lat="43.7795073" lon="11.217745"><ele>40.5</ele><time>2026-04-05T12:06:54.407Z</time></trkpt><trkpt lat="43.7795775" lon="11.2176689"><ele>40.0</ele><time>2026-04-05T12:06:56.407Z</time></trkpt><trkpt lat="43.779649" lon="11.2176085"><ele>40.0</ele><time>2026-04-05T12:06:58.407Z</time></trkpt><trkpt lat="43.7797055" lon="11.2175139"><ele>40.0</ele><time>2026-04-05T12:07:01.407Z</time></trkpt><trkpt lat="43.7797477" lon="11.2174091"><ele>40.0</ele><time>2026-04-05T12:07:04.406Z</time></trkpt><trkpt lat="43.7797787" lon="11.2173319"><ele>40.0</ele><time>2026-04-05T12:07:06.407Z</time></trkpt><trkpt lat="43.7798061" lon="11.2172506"><ele>40.0</ele><time>2026-04-05T12:07:08.407Z</time></trkpt><trkpt lat="43.7798216" lon="11.2171655"><ele>40.0</ele><time>2026-04-05T12:07:10.405Z</time></trkpt><trkpt lat="43.7798111" lon="11.2170772"><ele>40.0</ele><time>2026-04-05T12:07:12.406Z</time></trkpt><trkpt lat="43.7797897" lon="11.2169634"><ele>40.14285714285714</ele><time>2026-04-05T12:07:15.406Z</time></trkpt><trkpt lat="43.7798347" lon="11.2168385"><ele>40.285714285714285</ele><time>2026-04-05T12:07:18.408Z</time></trkpt><trkpt lat="43.7798705" lon="11.2167495"><ele>40.42857142857143</ele><time>2026-04-05T12:07:20.407Z</time></trkpt><trkpt lat="43.7799145" lon="11.2166563"><ele>40.57142857142857</ele><time>2026-04-05T12:07:23.407Z</time></trkpt><trkpt lat="43.7799506" lon="11.2165806"><ele>40.714285714285715</ele><time>2026-04-05T12:07:25.406Z</time></trkpt><trkpt lat="43.7799864" lon="11.2165078"><ele>40.857142857142854</ele><time>2026-04-05T12:07:27.407Z</time></trkpt><trkpt lat="43.7800181" lon="11.2164306"><ele>41.0</ele><time>2026-04-05T12:07:29.406Z</time></trkpt><trkpt lat="43.7800613" lon="11.2163137"><ele>41.33333333333333</ele><time>2026-04-05T12:07:32.407Z</time></trkpt><trkpt lat="43.7801062" lon="11.216215"><ele>41.666666666666664</ele><time>2026-04-05T12:07:35.406Z</time></trkpt><trkpt lat="43.7801521" lon="11.2160998"><ele>42.0</ele><time>2026-04-05T12:07:38.407Z</time></trkpt><trkpt lat="43.7801927" lon="11.2159878"><ele>42.333333333333336</ele><time>2026-04-05T12:07:41.406Z</time></trkpt><trkpt lat="43.7802234" lon="11.2159091"><ele>42.66666666666667</ele><time>2026-04-05T12:07:43.407Z</time></trkpt><trkpt lat="43.7802597" lon="11.2158284"><ele>43.0</ele><time>2026-04-05T12:07:45.407Z</time></trkpt><trkpt lat="43.7802925" lon="11.2157458"><ele>42.333333333333336</ele><time>2026-04-05T12:07:47.407Z</time></trkpt><trkpt lat="43.7803228" lon="11.2156579"><ele>41.66666666666667</ele><time>2026-04-05T12:07:49.407Z</time></trkpt><trkpt lat="43.7803591" lon="11.2155715"><ele>41.0</ele><time>2026-04-05T12:07:51.406Z</time></trkpt><trkpt lat="43.7803965" lon="11.2154962"><ele>40.333333333333336</ele><time>2026-04-05T12:07:53.407Z</time></trkpt><trkpt lat="43.7804481" lon="11.2153881"><ele>39.666666666666664</ele><time>2026-04-05T12:07:56.407Z</time></trkpt><trkpt lat="43.7804805" lon="11.215307"><ele>39.0</ele><time>2026-04-05T12:07:58.406Z</time></trkpt><trkpt lat="43.780527" lon="11.2151916"><ele>39.0</ele><time>2026-04-05T12:08:01.406Z</time></trkpt><trkpt lat="43.7805627" lon="11.2151148"><ele>39.0</ele><time>2026-04-05T12:08:03.406Z</time></trkpt><trkpt lat="43.7806106" lon="11.2150136"><ele>39.0</ele><time>2026-04-05T12:08:06.406Z</time></trkpt><trkpt lat="43.7806561" lon="11.214909"><ele>39.0</ele><time>2026-04-05T12:08:09.407Z</time></trkpt><trkpt lat="43.7806991" lon="11.2148387"><ele>39.0</ele><time>2026-04-05T12:08:11.407Z</time></trkpt><trkpt lat="43.7807302" lon="11.2147473"><ele>39.0</ele><time>2026-04-05T12:08:14.406Z</time></trkpt><trkpt lat="43.7806477" lon="11.2147509"><ele>39.166666666666664</ele><time>2026-04-05T12:08:17.406Z</time></trkpt><trkpt lat="43.7805757" lon="11.2148147"><ele>39.333333333333336</ele><time>2026-04-05T12:08:19.407Z</time></trkpt><trkpt lat="43.780497" lon="11.214787"><ele>39.5</ele><time>2026-04-05T12:08:21.406Z</time></trkpt><trkpt lat="43.7804529" lon="11.2147066"><ele>39.66666666666667</ele><time>2026-04-05T12:08:23.407Z</time></trkpt><trkpt lat="43.7804526" lon="11.2146013"><ele>39.833333333333336</ele><time>2026-04-05T12:08:25.408Z</time></trkpt><trkpt lat="43.7804108" lon="11.2145229"><ele>40.0</ele><time>2026-04-05T12:08:27.406Z</time></trkpt><trkpt lat="43.7803374" lon="11.2144638"><ele>40.0</ele><time>2026-04-05T12:08:29.407Z</time></trkpt><trkpt lat="43.78026" lon="11.2144049"><ele>40.0</ele><time>2026-04-05T12:08:31.408Z</time></trkpt><trkpt lat="43.7801845" lon="11.2143526"><ele>40.0</ele><time>2026-04-05T12:08:33.407Z</time></trkpt><trkpt lat="43.7801129" lon="11.2143042"><ele>40.0</ele><time>2026-04-05T12:08:35.407Z</time></trkpt><trkpt lat="43.7800437" lon="11.2142412"><ele>40.0</ele><time>2026-04-05T12:08:37.406Z</time></trkpt><trkpt lat="43.7799739" lon="11.2141852"><ele>40.0</ele><time>2026-04-05T12:08:39.406Z</time></trkpt><trkpt lat="43.7799042" lon="11.2141366"><ele>40.57142857142857</ele><time>2026-04-05T12:08:41.406Z</time></trkpt><trkpt lat="43.7798335" lon="11.2140787"><ele>41.142857142857146</ele><time>2026-04-05T12:08:43.407Z</time></trkpt><trkpt lat="43.7797701" lon="11.2140263"><ele>41.714285714285715</ele><time>2026-04-05T12:08:45.406Z</time></trkpt><trkpt lat="43.7797059" lon="11.2139813"><ele>42.285714285714285</ele><time>2026-04-05T12:08:47.406Z</time></trkpt><trkpt lat="43.7796448" lon="11.2139419"><ele>42.857142857142854</ele><time>2026-04-05T12:08:49.406Z</time></trkpt><trkpt lat="43.7795867" lon="11.2139004"><ele>43.42857142857143</ele><time>2026-04-05T12:08:51.408Z</time></trkpt><trkpt lat="43.7795247" lon="11.2138516"><ele>44.0</ele><time>2026-04-05T12:08:53.406Z</time></trkpt><trkpt lat="43.7794647" lon="11.2138035"><ele>44.0</ele><time>2026-04-05T12:08:55.406Z</time></trkpt><trkpt lat="43.7794167" lon="11.2137103"><ele>44.0</ele><time>2026-04-05T12:08:58.406Z</time></trkpt><trkpt lat="43.7794496" lon="11.2136222"><ele>44.0</ele><time>2026-04-05T12:09:00.406Z</time></trkpt><trkpt lat="43.7795002" lon="11.2135302"><ele>44.0</ele><time>2026-04-05T12:09:02.406Z</time></trkpt><trkpt lat="43.7795451" lon="11.213436"><ele>44.0</ele><time>2026-04-05T12:09:04.406Z</time></trkpt><trkpt lat="43.7795835" lon="11.2133419"><ele>44.0</ele><time>2026-04-05T12:09:06.406Z</time></trkpt><trkpt lat="43.7796187" lon="11.2132591"><ele>44.0</ele><time>2026-04-05T12:09:08.408Z</time></trkpt><trkpt lat="43.7796549" lon="11.2131809"><ele>44.0</ele><time>2026-04-05T12:09:10.407Z</time></trkpt><trkpt lat="43.7796802" lon="11.2130975"><ele>44.0</ele><time>2026-04-05T12:09:12.406Z</time></trkpt><trkpt lat="43.7796747" lon="11.2130045"><ele>44.0</ele><time>2026-04-05T12:09:14.405Z</time></trkpt><trkpt lat="43.7796218" lon="11.2129163"><ele>44.0</ele><time>2026-04-05T12:09:16.407Z</time></trkpt><trkpt lat="43.7795573" lon="11.2128368"><ele>44.0</ele><time>2026-04-05T12:09:18.406Z</time></trkpt><trkpt lat="43.7794883" lon="11.2127713"><ele>43.83333333333333</ele><time>2026-04-05T12:09:20.407Z</time></trkpt><trkpt lat="43.7794099" lon="11.2127076"><ele>43.666666666666664</ele><time>2026-04-05T12:09:22.407Z</time></trkpt><trkpt lat="43.7793358" lon="11.2126369"><ele>43.5</ele><time>2026-04-05T12:09:24.406Z</time></trkpt><trkpt lat="43.779259" lon="11.2125743"><ele>43.333333333333336</ele><time>2026-04-05T12:09:26.406Z</time></trkpt><trkpt lat="43.7791835" lon="11.2125161"><ele>43.16666666666667</ele><time>2026-04-05T12:09:28.405Z</time></trkpt><trkpt lat="43.7791201" lon="11.2124673"><ele>43.0</ele><time>2026-04-05T12:09:30.406Z</time></trkpt><trkpt lat="43.7790487" lon="11.212408"><ele>43.0</ele><time>2026-04-05T12:09:32.406Z</time></trkpt><trkpt lat="43.7789815" lon="11.2123526"><ele>43.0</ele><time>2026-04-05T12:09:34.406Z</time></trkpt><trkpt lat="43.7789134" lon="11.2123001"><ele>43.0</ele><time>2026-04-05T12:09:36.406Z</time></trkpt><trkpt lat="43.7788464" lon="11.2122432"><ele>43.0</ele><time>2026-04-05T12:09:38.407Z</time></trkpt><trkpt lat="43.7787767" lon="11.2121862"><ele>43.0</ele><time>2026-04-05T12:09:40.406Z</time></trkpt><trkpt lat="43.7787054" lon="11.2121247"><ele>43.0</ele><time>2026-04-05T12:09:42.406Z</time></trkpt><trkpt lat="43.7786414" lon="11.2120614"><ele>43.00000000000001</ele><time>2026-04-05T12:09:44.407Z</time></trkpt><trkpt lat="43.7785799" lon="11.2120048"><ele>43.0</ele><time>2026-04-05T12:09:46.407Z</time></trkpt><trkpt lat="43.7785169" lon="11.2119504"><ele>43.0</ele><time>2026-04-05T12:09:48.406Z</time></trkpt><trkpt lat="43.7784621" lon="11.2119005"><ele>43.0</ele><time>2026-04-05T12:09:50.406Z</time></trkpt><trkpt lat="43.7784127" lon="11.2118462"><ele>43.0</ele><time>2026-04-05T12:09:52.406Z</time></trkpt><trkpt lat="43.7783786" lon="11.2117717"><ele>43.00000000000001</ele><time>2026-04-05T12:09:54.406Z</time></trkpt><trkpt lat="43.7783619" lon="11.2116792"><ele>43.0</ele><time>2026-04-05T12:09:56.407Z</time></trkpt><trkpt lat="43.7783538" lon="11.2115887"><ele>43.0</ele><time>2026-04-05T12:09:58.406Z</time></trkpt><trkpt lat="43.7783527" lon="11.2115015"><ele>43.0</ele><time>2026-04-05T12:10:00.406Z</time></trkpt><trkpt lat="43.7783768" lon="11.2113796"><ele>43.0</ele><time>2026-04-05T12:10:03.406Z</time></trkpt><trkpt lat="43.7783952" lon="11.2112945"><ele>43.0</ele><time>2026-04-05T12:10:05.406Z</time></trkpt><trkpt lat="43.7784193" lon="11.2111692"><ele>43.0</ele><time>2026-04-05T12:10:08.406Z</time></trkpt><trkpt lat="43.7784429" lon="11.2110444"><ele>43.0</ele><time>2026-04-05T12:10:11.406Z</time></trkpt><trkpt lat="43.7784563" lon="11.2109548"><ele>43.00000000000001</ele><time>2026-04-05T12:10:13.407Z</time></trkpt><trkpt lat="43.7784686" lon="11.2108688"><ele>43.0</ele><time>2026-04-05T12:10:15.407Z</time></trkpt><trkpt lat="43.7784847" lon="11.2107807"><ele>43.0</ele><time>2026-04-05T12:10:17.407Z</time></trkpt><trkpt lat="43.7784999" lon="11.2106888"><ele>43.0</ele><time>2026-04-05T12:10:19.407Z</time></trkpt><trkpt lat="43.7785149" lon="11.2105989"><ele>43.0</ele><time>2026-04-05T12:10:21.406Z</time></trkpt><trkpt lat="43.7785314" lon="11.2104969"><ele>43.00000000000001</ele><time>2026-04-05T12:10:23.406Z</time></trkpt><trkpt lat="43.7785459" lon="11.2104107"><ele>43.0</ele><time>2026-04-05T12:10:25.407Z</time></trkpt><trkpt lat="43.7785651" lon="11.2102924"><ele>43.0</ele><time>2026-04-05T12:10:28.407Z</time></trkpt><trkpt lat="43.7785906" lon="11.2101871"><ele>43.0</ele><time>2026-04-05T12:10:31.407Z</time></trkpt><trkpt lat="43.7786191" lon="11.2100484"><ele>43.0</ele><time>2026-04-05T12:10:34.407Z</time></trkpt><trkpt lat="43.7786332" lon="11.2099535"><ele>43.0</ele><time>2026-04-05T12:10:36.406Z</time></trkpt><trkpt lat="43.7786515" lon="11.2098644"><ele>43.0</ele><time>2026-04-05T12:10:38.407Z</time></trkpt><trkpt lat="43.7786739" lon="11.2097775"><ele>43.0</ele><time>2026-04-05T12:10:40.406Z</time></trkpt><trkpt lat="43.7787038" lon="11.2096711"><ele>43.00000000000001</ele><time>2026-04-05T12:10:43.407Z</time></trkpt><trkpt lat="43.7787124" lon="11.2095806"><ele>43.0</ele><time>2026-04-05T12:10:45.406Z</time></trkpt><trkpt lat="43.7787272" lon="11.2094907"><ele>43.0</ele><time>2026-04-05T12:10:47.407Z</time></trkpt><trkpt lat="43.7787488" lon="11.209403"><ele>43.0</ele><time>2026-04-05T12:10:49.406Z</time></trkpt><trkpt lat="43.7787625" lon="11.2093112"><ele>43.0</ele><time>2026-04-05T12:10:51.407Z</time></trkpt><trkpt lat="43.7787757" lon="11.2092104"><ele>43.00000000000001</ele><time>2026-04-05T12:10:53.406Z</time></trkpt><trkpt lat="43.7787919" lon="11.2091156"><ele>43.0</ele><time>2026-04-05T12:10:55.405Z</time></trkpt><trkpt lat="43.7788077" lon="11.2090204"><ele>42.714285714285715</ele><time>2026-04-05T12:10:57.405Z</time></trkpt><trkpt lat="43.7788229" lon="11.2089311"><ele>42.42857142857143</ele><time>2026-04-05T12:10:59.408Z</time></trkpt><trkpt lat="43.7788403" lon="11.2088437"><ele>42.14285714285714</ele><time>2026-04-05T12:11:01.406Z</time></trkpt><trkpt lat="43.7788582" lon="11.2087504"><ele>41.85714285714286</ele><time>2026-04-05T12:11:03.408Z</time></trkpt><trkpt lat="43.7788724" lon="11.2086552"><ele>41.57142857142857</ele><time>2026-04-05T12:11:05.406Z</time></trkpt><trkpt lat="43.7788901" lon="11.2085646"><ele>41.285714285714285</ele><time>2026-04-05T12:11:07.406Z</time></trkpt><trkpt lat="43.778927" lon="11.2084363"><ele>41.0</ele><time>2026-04-05T12:11:10.407Z</time></trkpt><trkpt lat="43.778948" lon="11.2083406"><ele>40.99999999999999</ele><time>2026-04-05T12:11:12.406Z</time></trkpt><trkpt lat="43.7789601" lon="11.2082439"><ele>41.0</ele><time>2026-04-05T12:11:14.406Z</time></trkpt><trkpt lat="43.7789692" lon="11.2081469"><ele>41.0</ele><time>2026-04-05T12:11:16.407Z</time></trkpt><trkpt lat="43.7789768" lon="11.2080434"><ele>41.0</ele><time>2026-04-05T12:11:18.406Z</time></trkpt><trkpt lat="43.7789917" lon="11.207937"><ele>41.0</ele><time>2026-04-05T12:11:20.406Z</time></trkpt><trkpt lat="43.7790112" lon="11.207844"><ele>40.99999999999999</ele><time>2026-04-05T12:11:22.406Z</time></trkpt><trkpt lat="43.7790306" lon="11.2077577"><ele>41.0</ele><time>2026-04-05T12:11:24.406Z</time></trkpt><trkpt lat="43.7790545" lon="11.207636"><ele>41.0</ele><time>2026-04-05T12:11:27.405Z</time></trkpt><trkpt lat="43.779076" lon="11.2075182"><ele>41.0</ele><time>2026-04-05T12:11:30.406Z</time></trkpt><trkpt lat="43.7790887" lon="11.2074177"><ele>41.0</ele><time>2026-04-05T12:11:33.407Z</time></trkpt><trkpt lat="43.779104" lon="11.2073091"><ele>41.0</ele><time>2026-04-05T12:11:36.407Z</time></trkpt><trkpt lat="43.7791201" lon="11.2071992"><ele>41.0</ele><time>2026-04-05T12:11:39.405Z</time></trkpt><trkpt lat="43.7791353" lon="11.2070837"><ele>41.0</ele><time>2026-04-05T12:11:42.406Z</time></trkpt><trkpt lat="43.7791513" lon="11.2069704"><ele>41.0</ele><time>2026-04-05T12:11:45.406Z</time></trkpt><trkpt lat="43.7791698" lon="11.2068603"><ele>41.0</ele><time>2026-04-05T12:11:48.407Z</time></trkpt><trkpt lat="43.7791886" lon="11.2067425"><ele>41.0</ele><time>2026-04-05T12:11:51.405Z</time></trkpt><trkpt lat="43.7792138" lon="11.2066341"><ele>41.0</ele><time>2026-04-05T12:11:54.407Z</time></trkpt><trkpt lat="43.7792395" lon="11.2065246"><ele>41.0</ele><time>2026-04-05T12:11:57.406Z</time></trkpt><trkpt lat="43.7792637" lon="11.2064136"><ele>41.0</ele><time>2026-04-05T12:12:00.406Z</time></trkpt><trkpt lat="43.7792862" lon="11.2062933"><ele>40.83333333333333</ele><time>2026-04-05T12:12:03.406Z</time></trkpt><trkpt lat="43.7793036" lon="11.2061814"><ele>40.666666666666664</ele><time>2026-04-05T12:12:06.405Z</time></trkpt><trkpt lat="43.7793134" lon="11.2060679"><ele>40.5</ele><time>2026-04-05T12:12:09.406Z</time></trkpt><trkpt lat="43.7793189" lon="11.2059675"><ele>40.333333333333336</ele><time>2026-04-05T12:12:13.407Z</time></trkpt><trkpt lat="43.7792375" lon="11.2059164"><ele>40.16666666666667</ele><time>2026-04-05T12:12:19.405Z</time></trkpt><trkpt lat="43.779143" lon="11.2058903"><ele>40.0</ele><time>2026-04-05T12:12:23.407Z</time></trkpt><trkpt lat="43.7792068" lon="11.2058983"><ele>40.0</ele><time>2026-04-05T12:12:50.405Z</time></trkpt><trkpt lat="43.7791384" lon="11.2058482"><ele>40.0</ele><time>2026-04-05T12:16:19.405Z</time></trkpt><trkpt lat="43.7790597" lon="11.205816"><ele>40.0</ele><time>2026-04-05T12:16:25.405Z</time></trkpt><trkpt lat="43.7790007" lon="11.205869"><ele>40.0</ele><time>2026-04-05T12:16:35.405Z</time></trkpt><trkpt lat="43.7789541" lon="11.2058085"><ele>40.0</ele><time>2026-04-05T12:16:46.406Z</time></trkpt></trkseg></trk></gpx>